<?xml version="1.0" encoding="UTF-8" standalone="no" ?>
<gpx xmlns="http://www.topografix.com/GPX/1/1" creator="www.cicloide.com" version="1.1" xmlns:xsi="http://www.w3.org/2001/XMLSchema-instance" xsi:schemaLocation="http://www.topografix.com/GPX/1/1 http://www.topografix.com/GPX/1/1/gpx.xsd">
  <trk>
    <name>www.cicloide.com 17484</name>
    <desc>www.cicloide.com 17484</desc>
    <trkseg>
      <trkpt lat="41.545094000" lon="1.889579000">
        <ele>131.84</ele>
        <time>2014-03-23T08:01:42Z</time>
      </trkpt>
      <trkpt lat="41.545078000" lon="1.889493000">
        <ele>131.84</ele>
        <time>2014-03-23T08:01:44Z</time>
      </trkpt>
      <trkpt lat="41.545055000" lon="1.889267000">
        <ele>131.84</ele>
        <time>2014-03-23T08:01:49Z</time>
      </trkpt>
      <trkpt lat="41.545052000" lon="1.889226000">
        <ele>131.84</ele>
        <time>2014-03-23T08:01:50Z</time>
      </trkpt>
      <trkpt lat="41.545033000" lon="1.889107000">
        <ele>133.28</ele>
        <time>2014-03-23T08:01:53Z</time>
      </trkpt>
      <trkpt lat="41.544971000" lon="1.888655000">
        <ele>134.24</ele>
        <time>2014-03-23T08:02:04Z</time>
      </trkpt>
      <trkpt lat="41.545025000" lon="1.888068000">
        <ele>135.20</ele>
        <time>2014-03-23T08:02:17Z</time>
      </trkpt>
      <trkpt lat="41.545097000" lon="1.887607000">
        <ele>136.16</ele>
        <time>2014-03-23T08:02:28Z</time>
      </trkpt>
      <trkpt lat="41.544708000" lon="1.887312000">
        <ele>133.28</ele>
        <time>2014-03-23T08:02:37Z</time>
      </trkpt>
      <trkpt lat="41.544655000" lon="1.887275000">
        <ele>132.32</ele>
        <time>2014-03-23T08:02:38Z</time>
      </trkpt>
      <trkpt lat="41.544209000" lon="1.887200000">
        <ele>129.43</ele>
        <time>2014-03-23T08:02:46Z</time>
      </trkpt>
      <trkpt lat="41.543903000" lon="1.887080000">
        <ele>128.95</ele>
        <time>2014-03-23T08:02:57Z</time>
      </trkpt>
      <trkpt lat="41.543934000" lon="1.887059000">
        <ele>129.43</ele>
        <time>2014-03-23T08:03:09Z</time>
      </trkpt>
      <trkpt lat="41.543934000" lon="1.887059000">
        <ele>128.47</ele>
        <time>2014-03-23T08:03:33Z</time>
      </trkpt>
      <trkpt lat="41.543934000" lon="1.887053000">
        <ele>128.47</ele>
        <time>2014-03-23T08:03:54Z</time>
      </trkpt>
      <trkpt lat="41.543934000" lon="1.887053000">
        <ele>128.47</ele>
        <time>2014-03-23T08:04:09Z</time>
      </trkpt>
      <trkpt lat="41.543945000" lon="1.887035000">
        <ele>125.11</ele>
        <time>2014-03-23T08:04:28Z</time>
      </trkpt>
      <trkpt lat="41.543945000" lon="1.887035000">
        <ele>123.19</ele>
        <time>2014-03-23T08:04:34Z</time>
      </trkpt>
      <trkpt lat="41.543945000" lon="1.887035000">
        <ele>119.34</ele>
        <time>2014-03-23T08:04:42Z</time>
      </trkpt>
      <trkpt lat="41.543945000" lon="1.887021000">
        <ele>116.46</ele>
        <time>2014-03-23T08:05:01Z</time>
      </trkpt>
      <trkpt lat="41.543945000" lon="1.887021000">
        <ele>116.46</ele>
        <time>2014-03-23T08:05:23Z</time>
      </trkpt>
      <trkpt lat="41.543945000" lon="1.887021000">
        <ele>115.98</ele>
        <time>2014-03-23T08:05:34Z</time>
      </trkpt>
      <trkpt lat="41.543957000" lon="1.887127000">
        <ele>115.50</ele>
        <time>2014-03-23T08:05:40Z</time>
      </trkpt>
      <trkpt lat="41.544033000" lon="1.887201000">
        <ele>115.98</ele>
        <time>2014-03-23T08:05:46Z</time>
      </trkpt>
      <trkpt lat="41.544159000" lon="1.887279000">
        <ele>115.98</ele>
        <time>2014-03-23T08:05:54Z</time>
      </trkpt>
      <trkpt lat="41.544380000" lon="1.887366000">
        <ele>116.94</ele>
        <time>2014-03-23T08:06:06Z</time>
      </trkpt>
      <trkpt lat="41.544643000" lon="1.887397000">
        <ele>119.34</ele>
        <time>2014-03-23T08:06:18Z</time>
      </trkpt>
      <trkpt lat="41.544907000" lon="1.887519000">
        <ele>121.74</ele>
        <time>2014-03-23T08:06:30Z</time>
      </trkpt>
      <trkpt lat="41.545212000" lon="1.887599000">
        <ele>125.59</ele>
        <time>2014-03-23T08:06:43Z</time>
      </trkpt>
      <trkpt lat="41.545345000" lon="1.887669000">
        <ele>126.07</ele>
        <time>2014-03-23T08:06:50Z</time>
      </trkpt>
      <trkpt lat="41.545361000" lon="1.887660000">
        <ele>126.07</ele>
        <time>2014-03-23T08:07:02Z</time>
      </trkpt>
      <trkpt lat="41.545361000" lon="1.887660000">
        <ele>123.19</ele>
        <time>2014-03-23T08:07:10Z</time>
      </trkpt>
      <trkpt lat="41.545361000" lon="1.887660000">
        <ele>126.55</ele>
        <time>2014-03-23T08:07:14Z</time>
      </trkpt>
      <trkpt lat="41.545361000" lon="1.887660000">
        <ele>121.74</ele>
        <time>2014-03-23T08:07:32Z</time>
      </trkpt>
      <trkpt lat="41.545361000" lon="1.887660000">
        <ele>124.15</ele>
        <time>2014-03-23T08:07:33Z</time>
      </trkpt>
      <trkpt lat="41.545361000" lon="1.887655000">
        <ele>127.03</ele>
        <time>2014-03-23T08:07:34Z</time>
      </trkpt>
      <trkpt lat="41.545361000" lon="1.887655000">
        <ele>126.07</ele>
        <time>2014-03-23T08:07:35Z</time>
      </trkpt>
      <trkpt lat="41.545361000" lon="1.887655000">
        <ele>129.43</ele>
        <time>2014-03-23T08:07:38Z</time>
      </trkpt>
      <trkpt lat="41.545361000" lon="1.887655000">
        <ele>126.55</ele>
        <time>2014-03-23T08:07:40Z</time>
      </trkpt>
      <trkpt lat="41.545414000" lon="1.887690000">
        <ele>129.92</ele>
        <time>2014-03-23T08:07:47Z</time>
      </trkpt>
      <trkpt lat="41.545414000" lon="1.887690000">
        <ele>126.07</ele>
        <time>2014-03-23T08:07:51Z</time>
      </trkpt>
      <trkpt lat="41.545414000" lon="1.887690000">
        <ele>131.36</ele>
        <time>2014-03-23T08:08:03Z</time>
      </trkpt>
      <trkpt lat="41.545414000" lon="1.887690000">
        <ele>127.99</ele>
        <time>2014-03-23T08:08:04Z</time>
      </trkpt>
      <trkpt lat="41.545414000" lon="1.887690000">
        <ele>124.63</ele>
        <time>2014-03-23T08:08:07Z</time>
      </trkpt>
      <trkpt lat="41.545414000" lon="1.887690000">
        <ele>128.47</ele>
        <time>2014-03-23T08:08:09Z</time>
      </trkpt>
      <trkpt lat="41.545414000" lon="1.887690000">
        <ele>122.71</ele>
        <time>2014-03-23T08:08:11Z</time>
      </trkpt>
      <trkpt lat="41.545414000" lon="1.887690000">
        <ele>127.03</ele>
        <time>2014-03-23T08:08:12Z</time>
      </trkpt>
      <trkpt lat="41.545414000" lon="1.887690000">
        <ele>127.99</ele>
        <time>2014-03-23T08:08:16Z</time>
      </trkpt>
      <trkpt lat="41.545414000" lon="1.887695000">
        <ele>127.03</ele>
        <time>2014-03-23T08:08:40Z</time>
      </trkpt>
      <trkpt lat="41.545425000" lon="1.887697000">
        <ele>126.07</ele>
        <time>2014-03-23T08:08:50Z</time>
      </trkpt>
      <trkpt lat="41.545540000" lon="1.887748000">
        <ele>127.51</ele>
        <time>2014-03-23T08:08:58Z</time>
      </trkpt>
      <trkpt lat="41.545784000" lon="1.887829000">
        <ele>129.43</ele>
        <time>2014-03-23T08:09:10Z</time>
      </trkpt>
      <trkpt lat="41.546032000" lon="1.887874000">
        <ele>130.40</ele>
        <time>2014-03-23T08:09:21Z</time>
      </trkpt>
      <trkpt lat="41.546284000" lon="1.888033000">
        <ele>130.88</ele>
        <time>2014-03-23T08:09:34Z</time>
      </trkpt>
      <trkpt lat="41.546566000" lon="1.888095000">
        <ele>132.32</ele>
        <time>2014-03-23T08:09:46Z</time>
      </trkpt>
      <trkpt lat="41.546715000" lon="1.888117000">
        <ele>133.76</ele>
        <time>2014-03-23T08:09:53Z</time>
      </trkpt>
      <trkpt lat="41.546814000" lon="1.888139000">
        <ele>135.68</ele>
        <time>2014-03-23T08:09:58Z</time>
      </trkpt>
      <trkpt lat="41.547066000" lon="1.888140000">
        <ele>138.57</ele>
        <time>2014-03-23T08:10:09Z</time>
      </trkpt>
      <trkpt lat="41.547325000" lon="1.888160000">
        <ele>141.45</ele>
        <time>2014-03-23T08:10:21Z</time>
      </trkpt>
      <trkpt lat="41.547634000" lon="1.888186000">
        <ele>144.82</ele>
        <time>2014-03-23T08:10:35Z</time>
      </trkpt>
      <trkpt lat="41.547955000" lon="1.888125000">
        <ele>147.70</ele>
        <time>2014-03-23T08:10:49Z</time>
      </trkpt>
      <trkpt lat="41.548279000" lon="1.888028000">
        <ele>151.06</ele>
        <time>2014-03-23T08:11:03Z</time>
      </trkpt>
      <trkpt lat="41.548546000" lon="1.887963000">
        <ele>152.51</ele>
        <time>2014-03-23T08:11:15Z</time>
      </trkpt>
      <trkpt lat="41.548878000" lon="1.887923000">
        <ele>153.95</ele>
        <time>2014-03-23T08:11:28Z</time>
      </trkpt>
      <trkpt lat="41.549305000" lon="1.887886000">
        <ele>156.35</ele>
        <time>2014-03-23T08:11:44Z</time>
      </trkpt>
      <trkpt lat="41.549694000" lon="1.887853000">
        <ele>158.75</ele>
        <time>2014-03-23T08:11:59Z</time>
      </trkpt>
      <trkpt lat="41.550167000" lon="1.887891000">
        <ele>160.68</ele>
        <time>2014-03-23T08:12:16Z</time>
      </trkpt>
      <trkpt lat="41.550556000" lon="1.888046000">
        <ele>162.12</ele>
        <time>2014-03-23T08:12:31Z</time>
      </trkpt>
      <trkpt lat="41.550983000" lon="1.888258000">
        <ele>165.00</ele>
        <time>2014-03-23T08:12:47Z</time>
      </trkpt>
      <trkpt lat="41.551357000" lon="1.888427000">
        <ele>166.93</ele>
        <time>2014-03-23T08:13:01Z</time>
      </trkpt>
      <trkpt lat="41.551464000" lon="1.888493000">
        <ele>166.93</ele>
        <time>2014-03-23T08:13:07Z</time>
      </trkpt>
      <trkpt lat="41.551502000" lon="1.888468000">
        <ele>166.93</ele>
        <time>2014-03-23T08:13:11Z</time>
      </trkpt>
      <trkpt lat="41.551434000" lon="1.888453000">
        <ele>166.93</ele>
        <time>2014-03-23T08:13:23Z</time>
      </trkpt>
      <trkpt lat="41.551449000" lon="1.888488000">
        <ele>166.93</ele>
        <time>2014-03-23T08:13:26Z</time>
      </trkpt>
      <trkpt lat="41.551483000" lon="1.888480000">
        <ele>166.93</ele>
        <time>2014-03-23T08:13:30Z</time>
      </trkpt>
      <trkpt lat="41.551579000" lon="1.888637000">
        <ele>167.41</ele>
        <time>2014-03-23T08:13:40Z</time>
      </trkpt>
      <trkpt lat="41.551689000" lon="1.888932000">
        <ele>168.85</ele>
        <time>2014-03-23T08:13:51Z</time>
      </trkpt>
      <trkpt lat="41.552055000" lon="1.889129000">
        <ele>170.77</ele>
        <time>2014-03-23T08:14:05Z</time>
      </trkpt>
      <trkpt lat="41.552456000" lon="1.889356000">
        <ele>172.69</ele>
        <time>2014-03-23T08:14:20Z</time>
      </trkpt>
      <trkpt lat="41.552868000" lon="1.889580000">
        <ele>175.58</ele>
        <time>2014-03-23T08:14:36Z</time>
      </trkpt>
      <trkpt lat="41.552826000" lon="1.889954000">
        <ele>176.06</ele>
        <time>2014-03-23T08:14:47Z</time>
      </trkpt>
      <trkpt lat="41.552761000" lon="1.890275000">
        <ele>175.58</ele>
        <time>2014-03-23T08:14:55Z</time>
      </trkpt>
      <trkpt lat="41.552795000" lon="1.890358000">
        <ele>175.10</ele>
        <time>2014-03-23T08:14:59Z</time>
      </trkpt>
      <trkpt lat="41.552822000" lon="1.890356000">
        <ele>175.58</ele>
        <time>2014-03-23T08:15:03Z</time>
      </trkpt>
      <trkpt lat="41.552666000" lon="1.890505000">
        <ele>174.14</ele>
        <time>2014-03-23T08:15:10Z</time>
      </trkpt>
      <trkpt lat="41.552605000" lon="1.890854000">
        <ele>173.17</ele>
        <time>2014-03-23T08:15:18Z</time>
      </trkpt>
      <trkpt lat="41.552872000" lon="1.890994000">
        <ele>173.66</ele>
        <time>2014-03-23T08:15:28Z</time>
      </trkpt>
      <trkpt lat="41.553375000" lon="1.891183000">
        <ele>175.58</ele>
        <time>2014-03-23T08:15:45Z</time>
      </trkpt>
      <trkpt lat="41.553722000" lon="1.891315000">
        <ele>178.94</ele>
        <time>2014-03-23T08:15:58Z</time>
      </trkpt>
      <trkpt lat="41.553841000" lon="1.891327000">
        <ele>179.90</ele>
        <time>2014-03-23T08:16:03Z</time>
      </trkpt>
      <trkpt lat="41.553925000" lon="1.890993000">
        <ele>180.38</ele>
        <time>2014-03-23T08:16:15Z</time>
      </trkpt>
      <trkpt lat="41.553967000" lon="1.890835000">
        <ele>180.87</ele>
        <time>2014-03-23T08:16:20Z</time>
      </trkpt>
      <trkpt lat="41.554413000" lon="1.890796000">
        <ele>183.75</ele>
        <time>2014-03-23T08:16:37Z</time>
      </trkpt>
      <trkpt lat="41.554836000" lon="1.890778000">
        <ele>186.15</ele>
        <time>2014-03-23T08:16:53Z</time>
      </trkpt>
      <trkpt lat="41.555206000" lon="1.890848000">
        <ele>189.52</ele>
        <time>2014-03-23T08:17:08Z</time>
      </trkpt>
      <trkpt lat="41.555584000" lon="1.890882000">
        <ele>191.92</ele>
        <time>2014-03-23T08:17:23Z</time>
      </trkpt>
      <trkpt lat="41.555992000" lon="1.890819000">
        <ele>194.32</ele>
        <time>2014-03-23T08:17:39Z</time>
      </trkpt>
      <trkpt lat="41.556355000" lon="1.890771000">
        <ele>196.73</ele>
        <time>2014-03-23T08:17:53Z</time>
      </trkpt>
      <trkpt lat="41.556637000" lon="1.890737000">
        <ele>198.65</ele>
        <time>2014-03-23T08:18:04Z</time>
      </trkpt>
      <trkpt lat="41.556686000" lon="1.890846000">
        <ele>198.65</ele>
        <time>2014-03-23T08:18:08Z</time>
      </trkpt>
      <trkpt lat="41.556667000" lon="1.891412000">
        <ele>199.13</ele>
        <time>2014-03-23T08:18:24Z</time>
      </trkpt>
      <trkpt lat="41.556828000" lon="1.891625000">
        <ele>199.61</ele>
        <time>2014-03-23T08:18:35Z</time>
      </trkpt>
      <trkpt lat="41.557034000" lon="1.891662000">
        <ele>201.53</ele>
        <time>2014-03-23T08:18:46Z</time>
      </trkpt>
      <trkpt lat="41.557381000" lon="1.891711000">
        <ele>204.90</ele>
        <time>2014-03-23T08:19:01Z</time>
      </trkpt>
      <trkpt lat="41.557671000" lon="1.891742000">
        <ele>207.78</ele>
        <time>2014-03-23T08:19:14Z</time>
      </trkpt>
      <trkpt lat="41.557884000" lon="1.891924000">
        <ele>210.67</ele>
        <time>2014-03-23T08:19:26Z</time>
      </trkpt>
      <trkpt lat="41.558025000" lon="1.892268000">
        <ele>212.59</ele>
        <time>2014-03-23T08:19:38Z</time>
      </trkpt>
      <trkpt lat="41.558159000" lon="1.892575000">
        <ele>215.47</ele>
        <time>2014-03-23T08:19:50Z</time>
      </trkpt>
      <trkpt lat="41.558178000" lon="1.892614000">
        <ele>216.43</ele>
        <time>2014-03-23T08:19:52Z</time>
      </trkpt>
      <trkpt lat="41.558369000" lon="1.892838000">
        <ele>219.32</ele>
        <time>2014-03-23T08:20:05Z</time>
      </trkpt>
      <trkpt lat="41.558521000" lon="1.892930000">
        <ele>222.68</ele>
        <time>2014-03-23T08:20:15Z</time>
      </trkpt>
      <trkpt lat="41.558811000" lon="1.892936000">
        <ele>226.05</ele>
        <time>2014-03-23T08:20:30Z</time>
      </trkpt>
      <trkpt lat="41.558907000" lon="1.892918000">
        <ele>227.01</ele>
        <time>2014-03-23T08:20:35Z</time>
      </trkpt>
      <trkpt lat="41.559086000" lon="1.892963000">
        <ele>227.97</ele>
        <time>2014-03-23T08:20:45Z</time>
      </trkpt>
      <trkpt lat="41.559105000" lon="1.892978000">
        <ele>227.49</ele>
        <time>2014-03-23T08:20:46Z</time>
      </trkpt>
      <trkpt lat="41.559334000" lon="1.893159000">
        <ele>229.89</ele>
        <time>2014-03-23T08:21:00Z</time>
      </trkpt>
      <trkpt lat="41.559391000" lon="1.893191000">
        <ele>230.85</ele>
        <time>2014-03-23T08:21:03Z</time>
      </trkpt>
      <trkpt lat="41.559566000" lon="1.893296000">
        <ele>234.22</ele>
        <time>2014-03-23T08:21:14Z</time>
      </trkpt>
      <trkpt lat="41.559742000" lon="1.893302000">
        <ele>237.10</ele>
        <time>2014-03-23T08:21:25Z</time>
      </trkpt>
      <trkpt lat="41.559895000" lon="1.893374000">
        <ele>240.47</ele>
        <time>2014-03-23T08:21:36Z</time>
      </trkpt>
      <trkpt lat="41.559952000" lon="1.893474000">
        <ele>241.43</ele>
        <time>2014-03-23T08:21:42Z</time>
      </trkpt>
      <trkpt lat="41.559990000" lon="1.893542000">
        <ele>242.87</ele>
        <time>2014-03-23T08:21:46Z</time>
      </trkpt>
      <trkpt lat="41.560005000" lon="1.893573000">
        <ele>243.35</ele>
        <time>2014-03-23T08:21:48Z</time>
      </trkpt>
      <trkpt lat="41.560043000" lon="1.893677000">
        <ele>244.31</ele>
        <time>2014-03-23T08:21:53Z</time>
      </trkpt>
      <trkpt lat="41.560207000" lon="1.894027000">
        <ele>244.79</ele>
        <time>2014-03-23T08:22:08Z</time>
      </trkpt>
      <trkpt lat="41.560436000" lon="1.894063000">
        <ele>244.79</ele>
        <time>2014-03-23T08:22:18Z</time>
      </trkpt>
      <trkpt lat="41.560501000" lon="1.893949000">
        <ele>244.79</ele>
        <time>2014-03-23T08:22:23Z</time>
      </trkpt>
      <trkpt lat="41.560619000" lon="1.893581000">
        <ele>248.16</ele>
        <time>2014-03-23T08:22:38Z</time>
      </trkpt>
      <trkpt lat="41.560753000" lon="1.893444000">
        <ele>251.04</ele>
        <time>2014-03-23T08:22:47Z</time>
      </trkpt>
      <trkpt lat="41.560768000" lon="1.893431000">
        <ele>251.52</ele>
        <time>2014-03-23T08:22:48Z</time>
      </trkpt>
      <trkpt lat="41.560963000" lon="1.893380000">
        <ele>253.93</ele>
        <time>2014-03-23T08:23:00Z</time>
      </trkpt>
      <trkpt lat="41.561123000" lon="1.893549000">
        <ele>257.29</ele>
        <time>2014-03-23T08:23:13Z</time>
      </trkpt>
      <trkpt lat="41.561207000" lon="1.893724000">
        <ele>260.65</ele>
        <time>2014-03-23T08:23:23Z</time>
      </trkpt>
      <trkpt lat="41.561253000" lon="1.893811000">
        <ele>261.62</ele>
        <time>2014-03-23T08:23:28Z</time>
      </trkpt>
      <trkpt lat="41.561359000" lon="1.893926000">
        <ele>264.50</ele>
        <time>2014-03-23T08:23:37Z</time>
      </trkpt>
      <trkpt lat="41.561478000" lon="1.893803000">
        <ele>266.90</ele>
        <time>2014-03-23T08:23:47Z</time>
      </trkpt>
      <trkpt lat="41.561588000" lon="1.893660000">
        <ele>269.79</ele>
        <time>2014-03-23T08:23:57Z</time>
      </trkpt>
      <trkpt lat="41.561680000" lon="1.893557000">
        <ele>272.67</ele>
        <time>2014-03-23T08:24:04Z</time>
      </trkpt>
      <trkpt lat="41.561695000" lon="1.893548000">
        <ele>272.67</ele>
        <time>2014-03-23T08:24:05Z</time>
      </trkpt>
      <trkpt lat="41.561733000" lon="1.893525000">
        <ele>274.11</ele>
        <time>2014-03-23T08:24:08Z</time>
      </trkpt>
      <trkpt lat="41.561920000" lon="1.893516000">
        <ele>277.00</ele>
        <time>2014-03-23T08:24:19Z</time>
      </trkpt>
      <trkpt lat="41.562126000" lon="1.893543000">
        <ele>279.40</ele>
        <time>2014-03-23T08:24:32Z</time>
      </trkpt>
      <trkpt lat="41.562313000" lon="1.893585000">
        <ele>280.36</ele>
        <time>2014-03-23T08:24:43Z</time>
      </trkpt>
      <trkpt lat="41.562401000" lon="1.893628000">
        <ele>281.32</ele>
        <time>2014-03-23T08:24:49Z</time>
      </trkpt>
      <trkpt lat="41.562626000" lon="1.893785000">
        <ele>283.25</ele>
        <time>2014-03-23T08:25:03Z</time>
      </trkpt>
      <trkpt lat="41.562828000" lon="1.894003000">
        <ele>284.69</ele>
        <time>2014-03-23T08:25:18Z</time>
      </trkpt>
      <trkpt lat="41.562840000" lon="1.894021000">
        <ele>284.69</ele>
        <time>2014-03-23T08:25:19Z</time>
      </trkpt>
      <trkpt lat="41.562901000" lon="1.894074000">
        <ele>285.17</ele>
        <time>2014-03-23T08:25:23Z</time>
      </trkpt>
      <trkpt lat="41.563087000" lon="1.894098000">
        <ele>286.61</ele>
        <time>2014-03-23T08:25:34Z</time>
      </trkpt>
      <trkpt lat="41.563126000" lon="1.893976000">
        <ele>287.09</ele>
        <time>2014-03-23T08:25:39Z</time>
      </trkpt>
      <trkpt lat="41.563194000" lon="1.893785000">
        <ele>288.05</ele>
        <time>2014-03-23T08:25:47Z</time>
      </trkpt>
      <trkpt lat="41.563244000" lon="1.893683000">
        <ele>289.01</ele>
        <time>2014-03-23T08:25:52Z</time>
      </trkpt>
      <trkpt lat="41.563400000" lon="1.893646000">
        <ele>289.49</ele>
        <time>2014-03-23T08:26:00Z</time>
      </trkpt>
      <trkpt lat="41.563576000" lon="1.893979000">
        <ele>289.97</ele>
        <time>2014-03-23T08:26:13Z</time>
      </trkpt>
      <trkpt lat="41.563690000" lon="1.894368000">
        <ele>290.94</ele>
        <time>2014-03-23T08:26:26Z</time>
      </trkpt>
      <trkpt lat="41.563725000" lon="1.894461000">
        <ele>290.46</ele>
        <time>2014-03-23T08:26:29Z</time>
      </trkpt>
      <trkpt lat="41.563847000" lon="1.894423000">
        <ele>290.94</ele>
        <time>2014-03-23T08:26:35Z</time>
      </trkpt>
      <trkpt lat="41.564083000" lon="1.894086000">
        <ele>294.30</ele>
        <time>2014-03-23T08:26:51Z</time>
      </trkpt>
      <trkpt lat="41.564236000" lon="1.893952000">
        <ele>297.18</ele>
        <time>2014-03-23T08:27:01Z</time>
      </trkpt>
      <trkpt lat="41.564377000" lon="1.893974000">
        <ele>300.07</ele>
        <time>2014-03-23T08:27:10Z</time>
      </trkpt>
      <trkpt lat="41.564575000" lon="1.893980000">
        <ele>303.43</ele>
        <time>2014-03-23T08:27:23Z</time>
      </trkpt>
      <trkpt lat="41.564587000" lon="1.893968000">
        <ele>303.91</ele>
        <time>2014-03-23T08:27:24Z</time>
      </trkpt>
      <trkpt lat="41.564636000" lon="1.893914000">
        <ele>304.39</ele>
        <time>2014-03-23T08:27:28Z</time>
      </trkpt>
      <trkpt lat="41.564697000" lon="1.893874000">
        <ele>305.84</ele>
        <time>2014-03-23T08:27:32Z</time>
      </trkpt>
      <trkpt lat="41.564789000" lon="1.893863000">
        <ele>306.80</ele>
        <time>2014-03-23T08:27:38Z</time>
      </trkpt>
      <trkpt lat="41.564907000" lon="1.893914000">
        <ele>307.28</ele>
        <time>2014-03-23T08:27:46Z</time>
      </trkpt>
      <trkpt lat="41.565083000" lon="1.893948000">
        <ele>309.20</ele>
        <time>2014-03-23T08:27:58Z</time>
      </trkpt>
      <trkpt lat="41.565132000" lon="1.893967000">
        <ele>309.20</ele>
        <time>2014-03-23T08:28:01Z</time>
      </trkpt>
      <trkpt lat="41.565235000" lon="1.894059000">
        <ele>310.16</ele>
        <time>2014-03-23T08:28:10Z</time>
      </trkpt>
      <trkpt lat="41.565380000" lon="1.894140000">
        <ele>311.12</ele>
        <time>2014-03-23T08:28:20Z</time>
      </trkpt>
      <trkpt lat="41.565430000" lon="1.894081000">
        <ele>312.09</ele>
        <time>2014-03-23T08:28:24Z</time>
      </trkpt>
      <trkpt lat="41.565483000" lon="1.893833000">
        <ele>313.05</ele>
        <time>2014-03-23T08:28:36Z</time>
      </trkpt>
      <trkpt lat="41.565498000" lon="1.893641000">
        <ele>314.49</ele>
        <time>2014-03-23T08:28:45Z</time>
      </trkpt>
      <trkpt lat="41.565495000" lon="1.893267000">
        <ele>315.45</ele>
        <time>2014-03-23T08:29:01Z</time>
      </trkpt>
      <trkpt lat="41.565445000" lon="1.892921000">
        <ele>316.41</ele>
        <time>2014-03-23T08:29:14Z</time>
      </trkpt>
      <trkpt lat="41.565411000" lon="1.892721000">
        <ele>317.85</ele>
        <time>2014-03-23T08:29:22Z</time>
      </trkpt>
      <trkpt lat="41.565372000" lon="1.892538000">
        <ele>317.85</ele>
        <time>2014-03-23T08:29:37Z</time>
      </trkpt>
      <trkpt lat="41.565376000" lon="1.892541000">
        <ele>317.37</ele>
        <time>2014-03-23T08:29:50Z</time>
      </trkpt>
      <trkpt lat="41.565376000" lon="1.892541000">
        <ele>317.37</ele>
        <time>2014-03-23T08:30:13Z</time>
      </trkpt>
      <trkpt lat="41.565380000" lon="1.892542000">
        <ele>317.37</ele>
        <time>2014-03-23T08:30:35Z</time>
      </trkpt>
      <trkpt lat="41.565384000" lon="1.892547000">
        <ele>317.37</ele>
        <time>2014-03-23T08:30:54Z</time>
      </trkpt>
      <trkpt lat="41.565388000" lon="1.892543000">
        <ele>317.37</ele>
        <time>2014-03-23T08:31:00Z</time>
      </trkpt>
      <trkpt lat="41.565498000" lon="1.892449000">
        <ele>316.89</ele>
        <time>2014-03-23T08:31:10Z</time>
      </trkpt>
      <trkpt lat="41.565838000" lon="1.892545000">
        <ele>315.93</ele>
        <time>2014-03-23T08:31:24Z</time>
      </trkpt>
      <trkpt lat="41.566193000" lon="1.892654000">
        <ele>316.89</ele>
        <time>2014-03-23T08:31:38Z</time>
      </trkpt>
      <trkpt lat="41.566555000" lon="1.892631000">
        <ele>318.81</ele>
        <time>2014-03-23T08:31:52Z</time>
      </trkpt>
      <trkpt lat="41.566895000" lon="1.892682000">
        <ele>318.81</ele>
        <time>2014-03-23T08:32:03Z</time>
      </trkpt>
      <trkpt lat="41.567245000" lon="1.892577000">
        <ele>318.81</ele>
        <time>2014-03-23T08:32:15Z</time>
      </trkpt>
      <trkpt lat="41.567619000" lon="1.892610000">
        <ele>317.85</ele>
        <time>2014-03-23T08:32:26Z</time>
      </trkpt>
      <trkpt lat="41.568085000" lon="1.892793000">
        <ele>319.30</ele>
        <time>2014-03-23T08:32:41Z</time>
      </trkpt>
      <trkpt lat="41.568378000" lon="1.893065000">
        <ele>321.70</ele>
        <time>2014-03-23T08:32:54Z</time>
      </trkpt>
      <trkpt lat="41.568512000" lon="1.893557000">
        <ele>323.14</ele>
        <time>2014-03-23T08:33:08Z</time>
      </trkpt>
      <trkpt lat="41.568604000" lon="1.893720000">
        <ele>323.62</ele>
        <time>2014-03-23T08:33:14Z</time>
      </trkpt>
      <trkpt lat="41.568695000" lon="1.893680000">
        <ele>324.10</ele>
        <time>2014-03-23T08:33:18Z</time>
      </trkpt>
      <trkpt lat="41.568954000" lon="1.893280000">
        <ele>326.02</ele>
        <time>2014-03-23T08:33:34Z</time>
      </trkpt>
      <trkpt lat="41.569206000" lon="1.893065000">
        <ele>327.95</ele>
        <time>2014-03-23T08:33:46Z</time>
      </trkpt>
      <trkpt lat="41.569595000" lon="1.892920000">
        <ele>328.43</ele>
        <time>2014-03-23T08:34:00Z</time>
      </trkpt>
      <trkpt lat="41.569996000" lon="1.893078000">
        <ele>328.91</ele>
        <time>2014-03-23T08:34:14Z</time>
      </trkpt>
      <trkpt lat="41.570251000" lon="1.893357000">
        <ele>331.31</ele>
        <time>2014-03-23T08:34:27Z</time>
      </trkpt>
      <trkpt lat="41.570541000" lon="1.893422000">
        <ele>333.23</ele>
        <time>2014-03-23T08:34:38Z</time>
      </trkpt>
      <trkpt lat="41.570923000" lon="1.893572000">
        <ele>334.68</ele>
        <time>2014-03-23T08:34:52Z</time>
      </trkpt>
      <trkpt lat="41.571327000" lon="1.893668000">
        <ele>336.60</ele>
        <time>2014-03-23T08:35:08Z</time>
      </trkpt>
      <trkpt lat="41.571705000" lon="1.893895000">
        <ele>339.00</ele>
        <time>2014-03-23T08:35:24Z</time>
      </trkpt>
      <trkpt lat="41.571995000" lon="1.894269000">
        <ele>341.41</ele>
        <time>2014-03-23T08:35:40Z</time>
      </trkpt>
      <trkpt lat="41.572083000" lon="1.894433000">
        <ele>342.37</ele>
        <time>2014-03-23T08:35:46Z</time>
      </trkpt>
      <trkpt lat="41.572124000" lon="1.894546000">
        <ele>342.85</ele>
        <time>2014-03-23T08:35:50Z</time>
      </trkpt>
      <trkpt lat="41.572212000" lon="1.895007000">
        <ele>342.85</ele>
        <time>2014-03-23T08:36:05Z</time>
      </trkpt>
      <trkpt lat="41.572224000" lon="1.895046000">
        <ele>342.37</ele>
        <time>2014-03-23T08:36:06Z</time>
      </trkpt>
      <trkpt lat="41.572376000" lon="1.894995000">
        <ele>342.37</ele>
        <time>2014-03-23T08:36:12Z</time>
      </trkpt>
      <trkpt lat="41.572506000" lon="1.894770000">
        <ele>341.41</ele>
        <time>2014-03-23T08:36:18Z</time>
      </trkpt>
      <trkpt lat="41.572628000" lon="1.894700000">
        <ele>340.92</ele>
        <time>2014-03-23T08:36:21Z</time>
      </trkpt>
      <trkpt lat="41.572769000" lon="1.894466000">
        <ele>340.44</ele>
        <time>2014-03-23T08:36:27Z</time>
      </trkpt>
      <trkpt lat="41.572758000" lon="1.894425000">
        <ele>340.44</ele>
        <time>2014-03-23T08:36:28Z</time>
      </trkpt>
      <trkpt lat="41.572639000" lon="1.894082000">
        <ele>344.77</ele>
        <time>2014-03-23T08:36:41Z</time>
      </trkpt>
      <trkpt lat="41.572556000" lon="1.893828000">
        <ele>346.21</ele>
        <time>2014-03-23T08:36:51Z</time>
      </trkpt>
      <trkpt lat="41.572533000" lon="1.893299000">
        <ele>347.65</ele>
        <time>2014-03-23T08:37:07Z</time>
      </trkpt>
      <trkpt lat="41.572582000" lon="1.893045000">
        <ele>348.13</ele>
        <time>2014-03-23T08:37:15Z</time>
      </trkpt>
      <trkpt lat="41.572617000" lon="1.892686000">
        <ele>351.02</ele>
        <time>2014-03-23T08:37:28Z</time>
      </trkpt>
      <trkpt lat="41.572746000" lon="1.892362000">
        <ele>352.94</ele>
        <time>2014-03-23T08:37:42Z</time>
      </trkpt>
      <trkpt lat="41.572895000" lon="1.892188000">
        <ele>354.86</ele>
        <time>2014-03-23T08:37:52Z</time>
      </trkpt>
      <trkpt lat="41.572990000" lon="1.891961000">
        <ele>355.34</ele>
        <time>2014-03-23T08:38:00Z</time>
      </trkpt>
      <trkpt lat="41.573040000" lon="1.891794000">
        <ele>356.79</ele>
        <time>2014-03-23T08:38:06Z</time>
      </trkpt>
      <trkpt lat="41.572964000" lon="1.891649000">
        <ele>360.63</ele>
        <time>2014-03-23T08:38:14Z</time>
      </trkpt>
      <trkpt lat="41.572788000" lon="1.891591000">
        <ele>364.00</ele>
        <time>2014-03-23T08:38:24Z</time>
      </trkpt>
      <trkpt lat="41.572544000" lon="1.891518000">
        <ele>367.36</ele>
        <time>2014-03-23T08:38:38Z</time>
      </trkpt>
      <trkpt lat="41.572342000" lon="1.891465000">
        <ele>370.73</ele>
        <time>2014-03-23T08:38:49Z</time>
      </trkpt>
      <trkpt lat="41.572182000" lon="1.891376000">
        <ele>373.61</ele>
        <time>2014-03-23T08:38:58Z</time>
      </trkpt>
      <trkpt lat="41.572113000" lon="1.891112000">
        <ele>376.49</ele>
        <time>2014-03-23T08:39:09Z</time>
      </trkpt>
      <trkpt lat="41.572006000" lon="1.890769000">
        <ele>379.38</ele>
        <time>2014-03-23T08:39:23Z</time>
      </trkpt>
      <trkpt lat="41.571980000" lon="1.890703000">
        <ele>381.30</ele>
        <time>2014-03-23T08:39:26Z</time>
      </trkpt>
      <trkpt lat="41.572060000" lon="1.890686000">
        <ele>382.74</ele>
        <time>2014-03-23T08:39:34Z</time>
      </trkpt>
      <trkpt lat="41.572243000" lon="1.890918000">
        <ele>385.15</ele>
        <time>2014-03-23T08:39:48Z</time>
      </trkpt>
      <trkpt lat="41.572479000" lon="1.891111000">
        <ele>388.03</ele>
        <time>2014-03-23T08:40:03Z</time>
      </trkpt>
      <trkpt lat="41.572746000" lon="1.891171000">
        <ele>388.03</ele>
        <time>2014-03-23T08:40:16Z</time>
      </trkpt>
      <trkpt lat="41.572952000" lon="1.891111000">
        <ele>387.55</ele>
        <time>2014-03-23T08:40:25Z</time>
      </trkpt>
      <trkpt lat="41.573254000" lon="1.891092000">
        <ele>389.47</ele>
        <time>2014-03-23T08:40:37Z</time>
      </trkpt>
      <trkpt lat="41.573528000" lon="1.891069000">
        <ele>391.87</ele>
        <time>2014-03-23T08:40:51Z</time>
      </trkpt>
      <trkpt lat="41.573673000" lon="1.890924000">
        <ele>394.76</ele>
        <time>2014-03-23T08:41:01Z</time>
      </trkpt>
      <trkpt lat="41.573742000" lon="1.890732000">
        <ele>398.12</ele>
        <time>2014-03-23T08:41:11Z</time>
      </trkpt>
      <trkpt lat="41.573826000" lon="1.890734000">
        <ele>399.08</ele>
        <time>2014-03-23T08:41:18Z</time>
      </trkpt>
      <trkpt lat="41.573853000" lon="1.890767000">
        <ele>399.57</ele>
        <time>2014-03-23T08:41:20Z</time>
      </trkpt>
      <trkpt lat="41.573868000" lon="1.890878000">
        <ele>400.05</ele>
        <time>2014-03-23T08:41:25Z</time>
      </trkpt>
      <trkpt lat="41.573875000" lon="1.891133000">
        <ele>401.97</ele>
        <time>2014-03-23T08:41:39Z</time>
      </trkpt>
      <trkpt lat="41.573879000" lon="1.891174000">
        <ele>401.49</ele>
        <time>2014-03-23T08:41:49Z</time>
      </trkpt>
      <trkpt lat="41.573879000" lon="1.891176000">
        <ele>401.97</ele>
        <time>2014-03-23T08:41:52Z</time>
      </trkpt>
      <trkpt lat="41.573879000" lon="1.891194000">
        <ele>401.97</ele>
        <time>2014-03-23T08:41:54Z</time>
      </trkpt>
      <trkpt lat="41.573856000" lon="1.891541000">
        <ele>402.45</ele>
        <time>2014-03-23T08:42:10Z</time>
      </trkpt>
      <trkpt lat="41.573860000" lon="1.891744000">
        <ele>402.93</ele>
        <time>2014-03-23T08:42:18Z</time>
      </trkpt>
      <trkpt lat="41.573879000" lon="1.892114000">
        <ele>404.37</ele>
        <time>2014-03-23T08:42:32Z</time>
      </trkpt>
      <trkpt lat="41.573875000" lon="1.892406000">
        <ele>406.77</ele>
        <time>2014-03-23T08:42:44Z</time>
      </trkpt>
      <trkpt lat="41.573700000" lon="1.892736000">
        <ele>406.77</ele>
        <time>2014-03-23T08:42:58Z</time>
      </trkpt>
      <trkpt lat="41.573540000" lon="1.893068000">
        <ele>408.22</ele>
        <time>2014-03-23T08:43:13Z</time>
      </trkpt>
      <trkpt lat="41.573517000" lon="1.893432000">
        <ele>407.74</ele>
        <time>2014-03-23T08:43:27Z</time>
      </trkpt>
      <trkpt lat="41.573685000" lon="1.893838000">
        <ele>407.26</ele>
        <time>2014-03-23T08:43:42Z</time>
      </trkpt>
      <trkpt lat="41.573864000" lon="1.894294000">
        <ele>404.37</ele>
        <time>2014-03-23T08:43:57Z</time>
      </trkpt>
      <trkpt lat="41.574070000" lon="1.894833000">
        <ele>402.45</ele>
        <time>2014-03-23T08:44:11Z</time>
      </trkpt>
      <trkpt lat="41.574245000" lon="1.895176000">
        <ele>403.89</ele>
        <time>2014-03-23T08:44:25Z</time>
      </trkpt>
      <trkpt lat="41.574333000" lon="1.895454000">
        <ele>403.89</ele>
        <time>2014-03-23T08:44:35Z</time>
      </trkpt>
      <trkpt lat="41.574425000" lon="1.895861000">
        <ele>405.81</ele>
        <time>2014-03-23T08:44:50Z</time>
      </trkpt>
      <trkpt lat="41.574566000" lon="1.896030000">
        <ele>409.18</ele>
        <time>2014-03-23T08:45:00Z</time>
      </trkpt>
      <trkpt lat="41.574619000" lon="1.896082000">
        <ele>410.14</ele>
        <time>2014-03-23T08:45:04Z</time>
      </trkpt>
      <trkpt lat="41.574692000" lon="1.896161000">
        <ele>412.06</ele>
        <time>2014-03-23T08:45:09Z</time>
      </trkpt>
      <trkpt lat="41.574802000" lon="1.896318000">
        <ele>413.98</ele>
        <time>2014-03-23T08:45:18Z</time>
      </trkpt>
      <trkpt lat="41.574963000" lon="1.896379000">
        <ele>417.35</ele>
        <time>2014-03-23T08:45:28Z</time>
      </trkpt>
      <trkpt lat="41.575146000" lon="1.896385000">
        <ele>420.23</ele>
        <time>2014-03-23T08:45:40Z</time>
      </trkpt>
      <trkpt lat="41.575333000" lon="1.896394000">
        <ele>423.60</ele>
        <time>2014-03-23T08:45:52Z</time>
      </trkpt>
      <trkpt lat="41.575581000" lon="1.896388000">
        <ele>426.00</ele>
        <time>2014-03-23T08:46:05Z</time>
      </trkpt>
      <trkpt lat="41.575642000" lon="1.896364000">
        <ele>426.48</ele>
        <time>2014-03-23T08:46:08Z</time>
      </trkpt>
      <trkpt lat="41.575886000" lon="1.896398000">
        <ele>427.92</ele>
        <time>2014-03-23T08:46:21Z</time>
      </trkpt>
      <trkpt lat="41.576027000" lon="1.896482000">
        <ele>431.29</ele>
        <time>2014-03-23T08:46:30Z</time>
      </trkpt>
      <trkpt lat="41.576038000" lon="1.896489000">
        <ele>431.29</ele>
        <time>2014-03-23T08:46:31Z</time>
      </trkpt>
      <trkpt lat="41.576145000" lon="1.896514000">
        <ele>432.25</ele>
        <time>2014-03-23T08:46:37Z</time>
      </trkpt>
      <trkpt lat="41.576252000" lon="1.896533000">
        <ele>433.69</ele>
        <time>2014-03-23T08:46:43Z</time>
      </trkpt>
      <trkpt lat="41.576553000" lon="1.896528000">
        <ele>435.61</ele>
        <time>2014-03-23T08:46:57Z</time>
      </trkpt>
      <trkpt lat="41.576805000" lon="1.896730000">
        <ele>437.06</ele>
        <time>2014-03-23T08:47:10Z</time>
      </trkpt>
      <trkpt lat="41.576935000" lon="1.897041000">
        <ele>439.46</ele>
        <time>2014-03-23T08:47:23Z</time>
      </trkpt>
      <trkpt lat="41.577129000" lon="1.897332000">
        <ele>441.86</ele>
        <time>2014-03-23T08:47:38Z</time>
      </trkpt>
      <trkpt lat="41.577187000" lon="1.897648000">
        <ele>444.75</ele>
        <time>2014-03-23T08:47:50Z</time>
      </trkpt>
      <trkpt lat="41.577106000" lon="1.898027000">
        <ele>446.19</ele>
        <time>2014-03-23T08:48:04Z</time>
      </trkpt>
      <trkpt lat="41.577103000" lon="1.898392000">
        <ele>449.07</ele>
        <time>2014-03-23T08:48:19Z</time>
      </trkpt>
      <trkpt lat="41.577076000" lon="1.898542000">
        <ele>450.03</ele>
        <time>2014-03-23T08:48:25Z</time>
      </trkpt>
      <trkpt lat="41.577038000" lon="1.898665000">
        <ele>451.48</ele>
        <time>2014-03-23T08:48:31Z</time>
      </trkpt>
      <trkpt lat="41.577103000" lon="1.898870000">
        <ele>452.92</ele>
        <time>2014-03-23T08:48:44Z</time>
      </trkpt>
      <trkpt lat="41.577103000" lon="1.898873000">
        <ele>453.40</ele>
        <time>2014-03-23T08:49:00Z</time>
      </trkpt>
      <trkpt lat="41.577103000" lon="1.898875000">
        <ele>452.92</ele>
        <time>2014-03-23T08:49:34Z</time>
      </trkpt>
      <trkpt lat="41.577106000" lon="1.898873000">
        <ele>452.92</ele>
        <time>2014-03-23T08:50:03Z</time>
      </trkpt>
      <trkpt lat="41.577106000" lon="1.898873000">
        <ele>452.44</ele>
        <time>2014-03-23T08:50:32Z</time>
      </trkpt>
      <trkpt lat="41.577106000" lon="1.898872000">
        <ele>452.44</ele>
        <time>2014-03-23T08:50:57Z</time>
      </trkpt>
      <trkpt lat="41.577106000" lon="1.898877000">
        <ele>452.44</ele>
        <time>2014-03-23T08:51:22Z</time>
      </trkpt>
      <trkpt lat="41.577103000" lon="1.898874000">
        <ele>452.92</ele>
        <time>2014-03-23T08:51:46Z</time>
      </trkpt>
      <trkpt lat="41.577106000" lon="1.898863000">
        <ele>452.92</ele>
        <time>2014-03-23T08:52:09Z</time>
      </trkpt>
      <trkpt lat="41.577103000" lon="1.898853000">
        <ele>451.96</ele>
        <time>2014-03-23T08:52:19Z</time>
      </trkpt>
      <trkpt lat="41.577084000" lon="1.898836000">
        <ele>451.96</ele>
        <time>2014-03-23T08:52:21Z</time>
      </trkpt>
      <trkpt lat="41.576992000" lon="1.898799000">
        <ele>452.44</ele>
        <time>2014-03-23T08:52:27Z</time>
      </trkpt>
      <trkpt lat="41.576820000" lon="1.898661000">
        <ele>452.92</ele>
        <time>2014-03-23T08:52:37Z</time>
      </trkpt>
      <trkpt lat="41.576744000" lon="1.898721000">
        <ele>452.92</ele>
        <time>2014-03-23T08:52:41Z</time>
      </trkpt>
      <trkpt lat="41.576584000" lon="1.899036000">
        <ele>454.36</ele>
        <time>2014-03-23T08:52:55Z</time>
      </trkpt>
      <trkpt lat="41.576473000" lon="1.899279000">
        <ele>451.00</ele>
        <time>2014-03-23T08:53:02Z</time>
      </trkpt>
      <trkpt lat="41.576366000" lon="1.899580000">
        <ele>447.63</ele>
        <time>2014-03-23T08:53:10Z</time>
      </trkpt>
      <trkpt lat="41.576336000" lon="1.899837000">
        <ele>443.79</ele>
        <time>2014-03-23T08:53:15Z</time>
      </trkpt>
      <trkpt lat="41.576305000" lon="1.899932000">
        <ele>442.34</ele>
        <time>2014-03-23T08:53:17Z</time>
      </trkpt>
      <trkpt lat="41.576237000" lon="1.900151000">
        <ele>438.98</ele>
        <time>2014-03-23T08:53:21Z</time>
      </trkpt>
      <trkpt lat="41.576000000" lon="1.900846000">
        <ele>435.13</ele>
        <time>2014-03-23T08:53:32Z</time>
      </trkpt>
      <trkpt lat="41.575855000" lon="1.901386000">
        <ele>432.73</ele>
        <time>2014-03-23T08:53:40Z</time>
      </trkpt>
      <trkpt lat="41.575695000" lon="1.901441000">
        <ele>434.17</ele>
        <time>2014-03-23T08:53:44Z</time>
      </trkpt>
      <trkpt lat="41.575493000" lon="1.901532000">
        <ele>433.21</ele>
        <time>2014-03-23T08:53:50Z</time>
      </trkpt>
      <trkpt lat="41.575554000" lon="1.901706000">
        <ele>430.33</ele>
        <time>2014-03-23T08:53:55Z</time>
      </trkpt>
      <trkpt lat="41.575645000" lon="1.901802000">
        <ele>427.44</ele>
        <time>2014-03-23T08:53:58Z</time>
      </trkpt>
      <trkpt lat="41.575714000" lon="1.901970000">
        <ele>425.04</ele>
        <time>2014-03-23T08:54:01Z</time>
      </trkpt>
      <trkpt lat="41.575726000" lon="1.902034000">
        <ele>425.04</ele>
        <time>2014-03-23T08:54:02Z</time>
      </trkpt>
      <trkpt lat="41.575764000" lon="1.902264000">
        <ele>425.04</ele>
        <time>2014-03-23T08:54:06Z</time>
      </trkpt>
      <trkpt lat="41.575790000" lon="1.902303000">
        <ele>425.04</ele>
        <time>2014-03-23T08:54:11Z</time>
      </trkpt>
      <trkpt lat="41.575745000" lon="1.902394000">
        <ele>424.56</ele>
        <time>2014-03-23T08:54:15Z</time>
      </trkpt>
      <trkpt lat="41.575562000" lon="1.902946000">
        <ele>424.08</ele>
        <time>2014-03-23T08:54:30Z</time>
      </trkpt>
      <trkpt lat="41.575344000" lon="1.903276000">
        <ele>423.12</ele>
        <time>2014-03-23T08:54:41Z</time>
      </trkpt>
      <trkpt lat="41.575317000" lon="1.903309000">
        <ele>423.12</ele>
        <time>2014-03-23T08:54:42Z</time>
      </trkpt>
      <trkpt lat="41.575214000" lon="1.903535000">
        <ele>422.64</ele>
        <time>2014-03-23T08:54:47Z</time>
      </trkpt>
      <trkpt lat="41.575230000" lon="1.903810000">
        <ele>421.19</ele>
        <time>2014-03-23T08:54:52Z</time>
      </trkpt>
      <trkpt lat="41.575356000" lon="1.904305000">
        <ele>420.23</ele>
        <time>2014-03-23T08:55:00Z</time>
      </trkpt>
      <trkpt lat="41.575375000" lon="1.904511000">
        <ele>420.23</ele>
        <time>2014-03-23T08:55:04Z</time>
      </trkpt>
      <trkpt lat="41.575390000" lon="1.904625000">
        <ele>418.79</ele>
        <time>2014-03-23T08:55:06Z</time>
      </trkpt>
      <trkpt lat="41.575466000" lon="1.904966000">
        <ele>415.91</ele>
        <time>2014-03-23T08:55:12Z</time>
      </trkpt>
      <trkpt lat="41.575386000" lon="1.905208000">
        <ele>414.95</ele>
        <time>2014-03-23T08:55:16Z</time>
      </trkpt>
      <trkpt lat="41.575275000" lon="1.906114000">
        <ele>415.91</ele>
        <time>2014-03-23T08:55:33Z</time>
      </trkpt>
      <trkpt lat="41.575310000" lon="1.906647000">
        <ele>416.39</ele>
        <time>2014-03-23T08:55:44Z</time>
      </trkpt>
      <trkpt lat="41.575294000" lon="1.906871000">
        <ele>415.91</ele>
        <time>2014-03-23T08:55:48Z</time>
      </trkpt>
      <trkpt lat="41.575272000" lon="1.907048000">
        <ele>414.95</ele>
        <time>2014-03-23T08:55:51Z</time>
      </trkpt>
      <trkpt lat="41.575268000" lon="1.907386000">
        <ele>411.58</ele>
        <time>2014-03-23T08:55:56Z</time>
      </trkpt>
      <trkpt lat="41.575253000" lon="1.907742000">
        <ele>408.22</ele>
        <time>2014-03-23T08:56:01Z</time>
      </trkpt>
      <trkpt lat="41.575283000" lon="1.908007000">
        <ele>403.89</ele>
        <time>2014-03-23T08:56:05Z</time>
      </trkpt>
      <trkpt lat="41.575249000" lon="1.908245000">
        <ele>400.05</ele>
        <time>2014-03-23T08:56:09Z</time>
      </trkpt>
      <trkpt lat="41.575157000" lon="1.908275000">
        <ele>399.08</ele>
        <time>2014-03-23T08:56:11Z</time>
      </trkpt>
      <trkpt lat="41.575012000" lon="1.908525000">
        <ele>397.64</ele>
        <time>2014-03-23T08:56:18Z</time>
      </trkpt>
      <trkpt lat="41.575096000" lon="1.908818000">
        <ele>397.16</ele>
        <time>2014-03-23T08:56:22Z</time>
      </trkpt>
      <trkpt lat="41.575218000" lon="1.909432000">
        <ele>393.80</ele>
        <time>2014-03-23T08:56:34Z</time>
      </trkpt>
      <trkpt lat="41.575230000" lon="1.909478000">
        <ele>393.32</ele>
        <time>2014-03-23T08:56:35Z</time>
      </trkpt>
      <trkpt lat="41.575294000" lon="1.909626000">
        <ele>390.91</ele>
        <time>2014-03-23T08:56:38Z</time>
      </trkpt>
      <trkpt lat="41.575394000" lon="1.909744000">
        <ele>387.55</ele>
        <time>2014-03-23T08:56:41Z</time>
      </trkpt>
      <trkpt lat="41.575508000" lon="1.909850000">
        <ele>385.63</ele>
        <time>2014-03-23T08:56:44Z</time>
      </trkpt>
      <trkpt lat="41.575603000" lon="1.910113000">
        <ele>380.82</ele>
        <time>2014-03-23T08:56:49Z</time>
      </trkpt>
      <trkpt lat="41.575466000" lon="1.910266000">
        <ele>377.45</ele>
        <time>2014-03-23T08:56:53Z</time>
      </trkpt>
      <trkpt lat="41.575382000" lon="1.910341000">
        <ele>376.49</ele>
        <time>2014-03-23T08:56:55Z</time>
      </trkpt>
      <trkpt lat="41.575336000" lon="1.910619000">
        <ele>374.57</ele>
        <time>2014-03-23T08:56:59Z</time>
      </trkpt>
      <trkpt lat="41.575394000" lon="1.910817000">
        <ele>373.61</ele>
        <time>2014-03-23T08:57:02Z</time>
      </trkpt>
      <trkpt lat="41.575520000" lon="1.911054000">
        <ele>371.21</ele>
        <time>2014-03-23T08:57:07Z</time>
      </trkpt>
      <trkpt lat="41.575535000" lon="1.911285000">
        <ele>366.88</ele>
        <time>2014-03-23T08:57:12Z</time>
      </trkpt>
      <trkpt lat="41.575546000" lon="1.911472000">
        <ele>364.00</ele>
        <time>2014-03-23T08:57:15Z</time>
      </trkpt>
      <trkpt lat="41.575554000" lon="1.911614000">
        <ele>361.59</ele>
        <time>2014-03-23T08:57:17Z</time>
      </trkpt>
      <trkpt lat="41.575554000" lon="1.911852000">
        <ele>359.19</ele>
        <time>2014-03-23T08:57:20Z</time>
      </trkpt>
      <trkpt lat="41.575520000" lon="1.912059000">
        <ele>356.79</ele>
        <time>2014-03-23T08:57:23Z</time>
      </trkpt>
      <trkpt lat="41.575493000" lon="1.912182000">
        <ele>356.79</ele>
        <time>2014-03-23T08:57:25Z</time>
      </trkpt>
      <trkpt lat="41.575474000" lon="1.912312000">
        <ele>355.34</ele>
        <time>2014-03-23T08:57:27Z</time>
      </trkpt>
      <trkpt lat="41.575459000" lon="1.912971000">
        <ele>351.50</ele>
        <time>2014-03-23T08:57:36Z</time>
      </trkpt>
      <trkpt lat="41.575462000" lon="1.913127000">
        <ele>351.02</ele>
        <time>2014-03-23T08:57:38Z</time>
      </trkpt>
      <trkpt lat="41.575466000" lon="1.913204000">
        <ele>350.54</ele>
        <time>2014-03-23T08:57:39Z</time>
      </trkpt>
      <trkpt lat="41.575523000" lon="1.913596000">
        <ele>348.13</ele>
        <time>2014-03-23T08:57:46Z</time>
      </trkpt>
      <trkpt lat="41.575581000" lon="1.913757000">
        <ele>344.77</ele>
        <time>2014-03-23T08:57:49Z</time>
      </trkpt>
      <trkpt lat="41.575657000" lon="1.913998000">
        <ele>340.44</ele>
        <time>2014-03-23T08:57:53Z</time>
      </trkpt>
      <trkpt lat="41.575676000" lon="1.914050000">
        <ele>339.48</ele>
        <time>2014-03-23T08:57:54Z</time>
      </trkpt>
      <trkpt lat="41.575684000" lon="1.914156000">
        <ele>338.52</ele>
        <time>2014-03-23T08:57:56Z</time>
      </trkpt>
      <trkpt lat="41.575699000" lon="1.914293000">
        <ele>337.56</ele>
        <time>2014-03-23T08:57:59Z</time>
      </trkpt>
      <trkpt lat="41.575722000" lon="1.914411000">
        <ele>336.12</ele>
        <time>2014-03-23T08:58:01Z</time>
      </trkpt>
      <trkpt lat="41.575733000" lon="1.914690000">
        <ele>335.16</ele>
        <time>2014-03-23T08:58:05Z</time>
      </trkpt>
      <trkpt lat="41.575768000" lon="1.914883000">
        <ele>333.71</ele>
        <time>2014-03-23T08:58:08Z</time>
      </trkpt>
      <trkpt lat="41.575779000" lon="1.914953000">
        <ele>333.23</ele>
        <time>2014-03-23T08:58:09Z</time>
      </trkpt>
      <trkpt lat="41.575798000" lon="1.915548000">
        <ele>329.87</ele>
        <time>2014-03-23T08:58:18Z</time>
      </trkpt>
      <trkpt lat="41.575802000" lon="1.915725000">
        <ele>329.39</ele>
        <time>2014-03-23T08:58:21Z</time>
      </trkpt>
      <trkpt lat="41.575977000" lon="1.915685000">
        <ele>325.54</ele>
        <time>2014-03-23T08:58:28Z</time>
      </trkpt>
      <trkpt lat="41.576050000" lon="1.915523000">
        <ele>322.66</ele>
        <time>2014-03-23T08:58:31Z</time>
      </trkpt>
      <trkpt lat="41.576229000" lon="1.915486000">
        <ele>319.78</ele>
        <time>2014-03-23T08:58:37Z</time>
      </trkpt>
      <trkpt lat="41.576263000" lon="1.915825000">
        <ele>317.37</ele>
        <time>2014-03-23T08:58:43Z</time>
      </trkpt>
      <trkpt lat="41.576168000" lon="1.916480000">
        <ele>315.93</ele>
        <time>2014-03-23T08:58:57Z</time>
      </trkpt>
      <trkpt lat="41.576157000" lon="1.916530000">
        <ele>316.41</ele>
        <time>2014-03-23T08:58:58Z</time>
      </trkpt>
      <trkpt lat="41.576096000" lon="1.917072000">
        <ele>314.01</ele>
        <time>2014-03-23T08:59:08Z</time>
      </trkpt>
      <trkpt lat="41.576157000" lon="1.917628000">
        <ele>310.64</ele>
        <time>2014-03-23T08:59:15Z</time>
      </trkpt>
      <trkpt lat="41.576172000" lon="1.917721000">
        <ele>310.64</ele>
        <time>2014-03-23T08:59:16Z</time>
      </trkpt>
      <trkpt lat="41.576202000" lon="1.918041000">
        <ele>307.28</ele>
        <time>2014-03-23T08:59:21Z</time>
      </trkpt>
      <trkpt lat="41.576195000" lon="1.918241000">
        <ele>306.32</ele>
        <time>2014-03-23T08:59:25Z</time>
      </trkpt>
      <trkpt lat="41.576180000" lon="1.918399000">
        <ele>304.88</ele>
        <time>2014-03-23T08:59:28Z</time>
      </trkpt>
      <trkpt lat="41.576180000" lon="1.918529000">
        <ele>303.91</ele>
        <time>2014-03-23T08:59:30Z</time>
      </trkpt>
      <trkpt lat="41.576283000" lon="1.918775000">
        <ele>301.99</ele>
        <time>2014-03-23T08:59:33Z</time>
      </trkpt>
      <trkpt lat="41.576405000" lon="1.918841000">
        <ele>301.51</ele>
        <time>2014-03-23T08:59:35Z</time>
      </trkpt>
      <trkpt lat="41.576584000" lon="1.918898000">
        <ele>299.59</ele>
        <time>2014-03-23T08:59:38Z</time>
      </trkpt>
      <trkpt lat="41.576851000" lon="1.919098000">
        <ele>295.26</ele>
        <time>2014-03-23T08:59:43Z</time>
      </trkpt>
      <trkpt lat="41.576859000" lon="1.919469000">
        <ele>295.26</ele>
        <time>2014-03-23T08:59:52Z</time>
      </trkpt>
      <trkpt lat="41.576855000" lon="1.919471000">
        <ele>289.49</ele>
        <time>2014-03-23T09:00:06Z</time>
      </trkpt>
      <trkpt lat="41.576855000" lon="1.919471000">
        <ele>295.74</ele>
        <time>2014-03-23T09:00:07Z</time>
      </trkpt>
      <trkpt lat="41.576855000" lon="1.919471000">
        <ele>291.90</ele>
        <time>2014-03-23T09:00:27Z</time>
      </trkpt>
      <trkpt lat="41.576855000" lon="1.919471000">
        <ele>295.26</ele>
        <time>2014-03-23T09:00:28Z</time>
      </trkpt>
      <trkpt lat="41.576859000" lon="1.919471000">
        <ele>291.90</ele>
        <time>2014-03-23T09:00:40Z</time>
      </trkpt>
      <trkpt lat="41.576859000" lon="1.919471000">
        <ele>294.78</ele>
        <time>2014-03-23T09:00:41Z</time>
      </trkpt>
      <trkpt lat="41.576859000" lon="1.919471000">
        <ele>294.78</ele>
        <time>2014-03-23T09:00:46Z</time>
      </trkpt>
      <trkpt lat="41.576836000" lon="1.919408000">
        <ele>294.30</ele>
        <time>2014-03-23T09:00:52Z</time>
      </trkpt>
      <trkpt lat="41.576923000" lon="1.919337000">
        <ele>294.78</ele>
        <time>2014-03-23T09:00:57Z</time>
      </trkpt>
      <trkpt lat="41.576801000" lon="1.919045000">
        <ele>295.74</ele>
        <time>2014-03-23T09:01:08Z</time>
      </trkpt>
      <trkpt lat="41.576550000" lon="1.918906000">
        <ele>299.11</ele>
        <time>2014-03-23T09:01:19Z</time>
      </trkpt>
      <trkpt lat="41.576530000" lon="1.918898000">
        <ele>299.11</ele>
        <time>2014-03-23T09:01:20Z</time>
      </trkpt>
      <trkpt lat="41.576244000" lon="1.918728000">
        <ele>301.51</ele>
        <time>2014-03-23T09:01:34Z</time>
      </trkpt>
      <trkpt lat="41.576191000" lon="1.918458000">
        <ele>304.39</ele>
        <time>2014-03-23T09:01:46Z</time>
      </trkpt>
      <trkpt lat="41.576214000" lon="1.918050000">
        <ele>306.80</ele>
        <time>2014-03-23T09:02:00Z</time>
      </trkpt>
      <trkpt lat="41.576153000" lon="1.917647000">
        <ele>309.68</ele>
        <time>2014-03-23T09:02:13Z</time>
      </trkpt>
      <trkpt lat="41.576088000" lon="1.917188000">
        <ele>312.57</ele>
        <time>2014-03-23T09:02:29Z</time>
      </trkpt>
      <trkpt lat="41.576099000" lon="1.916836000">
        <ele>314.49</ele>
        <time>2014-03-23T09:02:42Z</time>
      </trkpt>
      <trkpt lat="41.576141000" lon="1.916492000">
        <ele>315.45</ele>
        <time>2014-03-23T09:02:56Z</time>
      </trkpt>
      <trkpt lat="41.576172000" lon="1.916402000">
        <ele>316.41</ele>
        <time>2014-03-23T09:03:04Z</time>
      </trkpt>
      <trkpt lat="41.576172000" lon="1.916364000">
        <ele>315.93</ele>
        <time>2014-03-23T09:03:13Z</time>
      </trkpt>
      <trkpt lat="41.576199000" lon="1.916234000">
        <ele>316.89</ele>
        <time>2014-03-23T09:03:19Z</time>
      </trkpt>
      <trkpt lat="41.576248000" lon="1.915869000">
        <ele>318.81</ele>
        <time>2014-03-23T09:03:35Z</time>
      </trkpt>
      <trkpt lat="41.576248000" lon="1.915850000">
        <ele>317.85</ele>
        <time>2014-03-23T09:03:36Z</time>
      </trkpt>
      <trkpt lat="41.576248000" lon="1.915818000">
        <ele>315.45</ele>
        <time>2014-03-23T09:03:38Z</time>
      </trkpt>
      <trkpt lat="41.576263000" lon="1.915728000">
        <ele>317.85</ele>
        <time>2014-03-23T09:03:43Z</time>
      </trkpt>
      <trkpt lat="41.576271000" lon="1.915680000">
        <ele>317.37</ele>
        <time>2014-03-23T09:03:52Z</time>
      </trkpt>
      <trkpt lat="41.576279000" lon="1.915685000">
        <ele>317.85</ele>
        <time>2014-03-23T09:04:01Z</time>
      </trkpt>
      <trkpt lat="41.576248000" lon="1.915832000">
        <ele>317.37</ele>
        <time>2014-03-23T09:04:09Z</time>
      </trkpt>
      <trkpt lat="41.576229000" lon="1.915984000">
        <ele>317.37</ele>
        <time>2014-03-23T09:04:14Z</time>
      </trkpt>
      <trkpt lat="41.576138000" lon="1.916575000">
        <ele>315.93</ele>
        <time>2014-03-23T09:04:28Z</time>
      </trkpt>
      <trkpt lat="41.576118000" lon="1.916776000">
        <ele>315.45</ele>
        <time>2014-03-23T09:04:32Z</time>
      </trkpt>
      <trkpt lat="41.576096000" lon="1.917247000">
        <ele>313.53</ele>
        <time>2014-03-23T09:04:40Z</time>
      </trkpt>
      <trkpt lat="41.576160000" lon="1.917715000">
        <ele>311.12</ele>
        <time>2014-03-23T09:04:46Z</time>
      </trkpt>
      <trkpt lat="41.576168000" lon="1.918241000">
        <ele>306.80</ele>
        <time>2014-03-23T09:04:51Z</time>
      </trkpt>
      <trkpt lat="41.576160000" lon="1.918570000">
        <ele>304.39</ele>
        <time>2014-03-23T09:04:54Z</time>
      </trkpt>
      <trkpt lat="41.576283000" lon="1.918864000">
        <ele>301.99</ele>
        <time>2014-03-23T09:04:58Z</time>
      </trkpt>
      <trkpt lat="41.576347000" lon="1.918884000">
        <ele>301.03</ele>
        <time>2014-03-23T09:04:59Z</time>
      </trkpt>
      <trkpt lat="41.576550000" lon="1.918930000">
        <ele>299.59</ele>
        <time>2014-03-23T09:05:02Z</time>
      </trkpt>
      <trkpt lat="41.576820000" lon="1.919090000">
        <ele>295.74</ele>
        <time>2014-03-23T09:05:06Z</time>
      </trkpt>
      <trkpt lat="41.576969000" lon="1.919518000">
        <ele>295.26</ele>
        <time>2014-03-23T09:05:14Z</time>
      </trkpt>
      <trkpt lat="41.577290000" lon="1.919799000">
        <ele>297.18</ele>
        <time>2014-03-23T09:05:26Z</time>
      </trkpt>
      <trkpt lat="41.577740000" lon="1.920112000">
        <ele>300.07</ele>
        <time>2014-03-23T09:05:43Z</time>
      </trkpt>
      <trkpt lat="41.577953000" lon="1.920187000">
        <ele>297.67</ele>
        <time>2014-03-23T09:05:50Z</time>
      </trkpt>
      <trkpt lat="41.578014000" lon="1.920197000">
        <ele>305.36</ele>
        <time>2014-03-23T09:05:52Z</time>
      </trkpt>
      <trkpt lat="41.578049000" lon="1.920201000">
        <ele>300.07</ele>
        <time>2014-03-23T09:05:53Z</time>
      </trkpt>
      <trkpt lat="41.578625000" lon="1.920244000">
        <ele>301.03</ele>
        <time>2014-03-23T09:06:09Z</time>
      </trkpt>
      <trkpt lat="41.578938000" lon="1.920267000">
        <ele>301.03</ele>
        <time>2014-03-23T09:06:17Z</time>
      </trkpt>
      <trkpt lat="41.579155000" lon="1.920272000">
        <ele>301.51</ele>
        <time>2014-03-23T09:06:22Z</time>
      </trkpt>
      <trkpt lat="41.580044000" lon="1.920121000">
        <ele>298.63</ele>
        <time>2014-03-23T09:06:41Z</time>
      </trkpt>
      <trkpt lat="41.580093000" lon="1.920130000">
        <ele>302.47</ele>
        <time>2014-03-23T09:06:42Z</time>
      </trkpt>
      <trkpt lat="41.580143000" lon="1.920139000">
        <ele>302.47</ele>
        <time>2014-03-23T09:06:43Z</time>
      </trkpt>
      <trkpt lat="41.580746000" lon="1.920439000">
        <ele>305.36</ele>
        <time>2014-03-23T09:06:57Z</time>
      </trkpt>
      <trkpt lat="41.581249000" lon="1.920846000">
        <ele>308.72</ele>
        <time>2014-03-23T09:07:11Z</time>
      </trkpt>
      <trkpt lat="41.581463000" lon="1.921019000">
        <ele>310.16</ele>
        <time>2014-03-23T09:07:17Z</time>
      </trkpt>
      <trkpt lat="41.581928000" lon="1.921404000">
        <ele>313.53</ele>
        <time>2014-03-23T09:07:31Z</time>
      </trkpt>
      <trkpt lat="41.582390000" lon="1.921425000">
        <ele>315.45</ele>
        <time>2014-03-23T09:07:44Z</time>
      </trkpt>
      <trkpt lat="41.582977000" lon="1.921261000">
        <ele>318.33</ele>
        <time>2014-03-23T09:08:00Z</time>
      </trkpt>
      <trkpt lat="41.583469000" lon="1.921461000">
        <ele>320.26</ele>
        <time>2014-03-23T09:08:14Z</time>
      </trkpt>
      <trkpt lat="41.583759000" lon="1.921752000">
        <ele>320.74</ele>
        <time>2014-03-23T09:08:23Z</time>
      </trkpt>
      <trkpt lat="41.583931000" lon="1.921817000">
        <ele>320.26</ele>
        <time>2014-03-23T09:08:27Z</time>
      </trkpt>
      <trkpt lat="41.584682000" lon="1.921734000">
        <ele>316.41</ele>
        <time>2014-03-23T09:08:39Z</time>
      </trkpt>
      <trkpt lat="41.584820000" lon="1.921757000">
        <ele>315.45</ele>
        <time>2014-03-23T09:08:41Z</time>
      </trkpt>
      <trkpt lat="41.585152000" lon="1.921827000">
        <ele>313.53</ele>
        <time>2014-03-23T09:08:47Z</time>
      </trkpt>
      <trkpt lat="41.585251000" lon="1.921555000">
        <ele>314.97</ele>
        <time>2014-03-23T09:08:54Z</time>
      </trkpt>
      <trkpt lat="41.585194000" lon="1.921439000">
        <ele>319.78</ele>
        <time>2014-03-23T09:09:03Z</time>
      </trkpt>
      <trkpt lat="41.585194000" lon="1.921439000">
        <ele>314.49</ele>
        <time>2014-03-23T09:09:04Z</time>
      </trkpt>
      <trkpt lat="41.585194000" lon="1.921429000">
        <ele>314.97</ele>
        <time>2014-03-23T09:09:15Z</time>
      </trkpt>
      <trkpt lat="41.585140000" lon="1.921127000">
        <ele>314.49</ele>
        <time>2014-03-23T09:09:25Z</time>
      </trkpt>
      <trkpt lat="41.585087000" lon="1.920911000">
        <ele>315.45</ele>
        <time>2014-03-23T09:09:34Z</time>
      </trkpt>
      <trkpt lat="41.585091000" lon="1.920899000">
        <ele>316.41</ele>
        <time>2014-03-23T09:09:36Z</time>
      </trkpt>
      <trkpt lat="41.585102000" lon="1.920748000">
        <ele>316.41</ele>
        <time>2014-03-23T09:09:47Z</time>
      </trkpt>
      <trkpt lat="41.585091000" lon="1.920726000">
        <ele>316.41</ele>
        <time>2014-03-23T09:09:49Z</time>
      </trkpt>
      <trkpt lat="41.585075000" lon="1.920569000">
        <ele>315.45</ele>
        <time>2014-03-23T09:10:02Z</time>
      </trkpt>
      <trkpt lat="41.585075000" lon="1.920564000">
        <ele>315.45</ele>
        <time>2014-03-23T09:10:07Z</time>
      </trkpt>
      <trkpt lat="41.585148000" lon="1.920520000">
        <ele>315.45</ele>
        <time>2014-03-23T09:10:12Z</time>
      </trkpt>
      <trkpt lat="41.585289000" lon="1.920371000">
        <ele>315.93</ele>
        <time>2014-03-23T09:10:24Z</time>
      </trkpt>
      <trkpt lat="41.585297000" lon="1.920366000">
        <ele>315.93</ele>
        <time>2014-03-23T09:10:26Z</time>
      </trkpt>
      <trkpt lat="41.585400000" lon="1.920280000">
        <ele>316.89</ele>
        <time>2014-03-23T09:10:38Z</time>
      </trkpt>
      <trkpt lat="41.585445000" lon="1.920170000">
        <ele>316.41</ele>
        <time>2014-03-23T09:10:46Z</time>
      </trkpt>
      <trkpt lat="41.585476000" lon="1.920063000">
        <ele>316.41</ele>
        <time>2014-03-23T09:10:55Z</time>
      </trkpt>
      <trkpt lat="41.585629000" lon="1.919840000">
        <ele>317.85</ele>
        <time>2014-03-23T09:11:07Z</time>
      </trkpt>
      <trkpt lat="41.585693000" lon="1.919758000">
        <ele>317.85</ele>
        <time>2014-03-23T09:11:17Z</time>
      </trkpt>
      <trkpt lat="41.585701000" lon="1.919749000">
        <ele>317.85</ele>
        <time>2014-03-23T09:11:18Z</time>
      </trkpt>
      <trkpt lat="41.585720000" lon="1.919716000">
        <ele>318.33</ele>
        <time>2014-03-23T09:11:23Z</time>
      </trkpt>
      <trkpt lat="41.585888000" lon="1.919484000">
        <ele>318.33</ele>
        <time>2014-03-23T09:11:34Z</time>
      </trkpt>
      <trkpt lat="41.586140000" lon="1.919019000">
        <ele>319.30</ele>
        <time>2014-03-23T09:11:48Z</time>
      </trkpt>
      <trkpt lat="41.586311000" lon="1.918678000">
        <ele>320.26</ele>
        <time>2014-03-23T09:11:59Z</time>
      </trkpt>
      <trkpt lat="41.586498000" lon="1.918178000">
        <ele>320.26</ele>
        <time>2014-03-23T09:12:13Z</time>
      </trkpt>
      <trkpt lat="41.586529000" lon="1.918036000">
        <ele>321.22</ele>
        <time>2014-03-23T09:12:19Z</time>
      </trkpt>
      <trkpt lat="41.586468000" lon="1.917938000">
        <ele>323.62</ele>
        <time>2014-03-23T09:12:31Z</time>
      </trkpt>
      <trkpt lat="41.586441000" lon="1.917909000">
        <ele>323.14</ele>
        <time>2014-03-23T09:12:34Z</time>
      </trkpt>
      <trkpt lat="41.586418000" lon="1.917863000">
        <ele>323.14</ele>
        <time>2014-03-23T09:12:36Z</time>
      </trkpt>
      <trkpt lat="41.586418000" lon="1.917766000">
        <ele>322.18</ele>
        <time>2014-03-23T09:12:42Z</time>
      </trkpt>
      <trkpt lat="41.586380000" lon="1.917685000">
        <ele>321.22</ele>
        <time>2014-03-23T09:12:45Z</time>
      </trkpt>
      <trkpt lat="41.586468000" lon="1.917477000">
        <ele>321.22</ele>
        <time>2014-03-23T09:12:53Z</time>
      </trkpt>
      <trkpt lat="41.586590000" lon="1.917027000">
        <ele>323.14</ele>
        <time>2014-03-23T09:13:07Z</time>
      </trkpt>
      <trkpt lat="41.586601000" lon="1.917016000">
        <ele>323.14</ele>
        <time>2014-03-23T09:13:15Z</time>
      </trkpt>
      <trkpt lat="41.586662000" lon="1.917075000">
        <ele>322.18</ele>
        <time>2014-03-23T09:13:19Z</time>
      </trkpt>
      <trkpt lat="41.586800000" lon="1.917142000">
        <ele>322.18</ele>
        <time>2014-03-23T09:13:25Z</time>
      </trkpt>
      <trkpt lat="41.586903000" lon="1.916875000">
        <ele>322.18</ele>
        <time>2014-03-23T09:13:35Z</time>
      </trkpt>
      <trkpt lat="41.587006000" lon="1.916901000">
        <ele>321.70</ele>
        <time>2014-03-23T09:13:40Z</time>
      </trkpt>
      <trkpt lat="41.587032000" lon="1.916942000">
        <ele>321.70</ele>
        <time>2014-03-23T09:13:42Z</time>
      </trkpt>
      <trkpt lat="41.587147000" lon="1.917053000">
        <ele>322.18</ele>
        <time>2014-03-23T09:13:48Z</time>
      </trkpt>
      <trkpt lat="41.587231000" lon="1.917094000">
        <ele>314.01</ele>
        <time>2014-03-23T09:13:53Z</time>
      </trkpt>
      <trkpt lat="41.587242000" lon="1.917101000">
        <ele>324.58</ele>
        <time>2014-03-23T09:13:54Z</time>
      </trkpt>
      <trkpt lat="41.587414000" lon="1.917183000">
        <ele>325.06</ele>
        <time>2014-03-23T09:14:02Z</time>
      </trkpt>
      <trkpt lat="41.587643000" lon="1.917271000">
        <ele>326.02</ele>
        <time>2014-03-23T09:14:13Z</time>
      </trkpt>
      <trkpt lat="41.587757000" lon="1.917257000">
        <ele>329.39</ele>
        <time>2014-03-23T09:14:18Z</time>
      </trkpt>
      <trkpt lat="41.587875000" lon="1.917213000">
        <ele>331.79</ele>
        <time>2014-03-23T09:14:23Z</time>
      </trkpt>
      <trkpt lat="41.587894000" lon="1.917200000">
        <ele>328.91</ele>
        <time>2014-03-23T09:14:24Z</time>
      </trkpt>
      <trkpt lat="41.588158000" lon="1.917259000">
        <ele>331.79</ele>
        <time>2014-03-23T09:14:35Z</time>
      </trkpt>
      <trkpt lat="41.588177000" lon="1.917268000">
        <ele>332.27</ele>
        <time>2014-03-23T09:14:36Z</time>
      </trkpt>
      <trkpt lat="41.588314000" lon="1.917372000">
        <ele>337.08</ele>
        <time>2014-03-23T09:14:44Z</time>
      </trkpt>
      <trkpt lat="41.588360000" lon="1.917376000">
        <ele>335.16</ele>
        <time>2014-03-23T09:14:47Z</time>
      </trkpt>
      <trkpt lat="41.588394000" lon="1.917377000">
        <ele>335.16</ele>
        <time>2014-03-23T09:14:49Z</time>
      </trkpt>
      <trkpt lat="41.588470000" lon="1.917420000">
        <ele>335.64</ele>
        <time>2014-03-23T09:15:01Z</time>
      </trkpt>
      <trkpt lat="41.588470000" lon="1.917420000">
        <ele>336.60</ele>
        <time>2014-03-23T09:15:31Z</time>
      </trkpt>
      <trkpt lat="41.588470000" lon="1.917419000">
        <ele>335.16</ele>
        <time>2014-03-23T09:15:34Z</time>
      </trkpt>
      <trkpt lat="41.588493000" lon="1.917444000">
        <ele>336.60</ele>
        <time>2014-03-23T09:15:49Z</time>
      </trkpt>
      <trkpt lat="41.588654000" lon="1.917572000">
        <ele>338.52</ele>
        <time>2014-03-23T09:15:59Z</time>
      </trkpt>
      <trkpt lat="41.588924000" lon="1.917830000">
        <ele>341.89</ele>
        <time>2014-03-23T09:16:13Z</time>
      </trkpt>
      <trkpt lat="41.589329000" lon="1.918054000">
        <ele>343.81</ele>
        <time>2014-03-23T09:16:28Z</time>
      </trkpt>
      <trkpt lat="41.589512000" lon="1.918287000">
        <ele>345.25</ele>
        <time>2014-03-23T09:16:37Z</time>
      </trkpt>
      <trkpt lat="41.589725000" lon="1.918543000">
        <ele>346.69</ele>
        <time>2014-03-23T09:16:47Z</time>
      </trkpt>
      <trkpt lat="41.590004000" lon="1.918725000">
        <ele>348.62</ele>
        <time>2014-03-23T09:16:58Z</time>
      </trkpt>
      <trkpt lat="41.590324000" lon="1.918910000">
        <ele>349.10</ele>
        <time>2014-03-23T09:17:10Z</time>
      </trkpt>
      <trkpt lat="41.590694000" lon="1.919125000">
        <ele>351.98</ele>
        <time>2014-03-23T09:17:24Z</time>
      </trkpt>
      <trkpt lat="41.590958000" lon="1.919240000">
        <ele>353.42</ele>
        <time>2014-03-23T09:17:34Z</time>
      </trkpt>
      <trkpt lat="41.591251000" lon="1.919446000">
        <ele>354.86</ele>
        <time>2014-03-23T09:17:46Z</time>
      </trkpt>
      <trkpt lat="41.591690000" lon="1.919728000">
        <ele>357.27</ele>
        <time>2014-03-23T09:18:02Z</time>
      </trkpt>
      <trkpt lat="41.592049000" lon="1.920051000">
        <ele>358.23</ele>
        <time>2014-03-23T09:18:17Z</time>
      </trkpt>
      <trkpt lat="41.592262000" lon="1.920258000">
        <ele>355.34</ele>
        <time>2014-03-23T09:18:26Z</time>
      </trkpt>
      <trkpt lat="41.592289000" lon="1.920260000">
        <ele>356.79</ele>
        <time>2014-03-23T09:18:27Z</time>
      </trkpt>
      <trkpt lat="41.592335000" lon="1.920280000">
        <ele>359.19</ele>
        <time>2014-03-23T09:18:29Z</time>
      </trkpt>
      <trkpt lat="41.592392000" lon="1.920322000">
        <ele>360.15</ele>
        <time>2014-03-23T09:18:32Z</time>
      </trkpt>
      <trkpt lat="41.592525000" lon="1.920349000">
        <ele>361.59</ele>
        <time>2014-03-23T09:18:43Z</time>
      </trkpt>
      <trkpt lat="41.592525000" lon="1.920349000">
        <ele>357.27</ele>
        <time>2014-03-23T09:18:57Z</time>
      </trkpt>
      <trkpt lat="41.592525000" lon="1.920349000">
        <ele>362.55</ele>
        <time>2014-03-23T09:18:58Z</time>
      </trkpt>
      <trkpt lat="41.592529000" lon="1.920343000">
        <ele>361.11</ele>
        <time>2014-03-23T09:19:14Z</time>
      </trkpt>
      <trkpt lat="41.592457000" lon="1.920290000">
        <ele>360.15</ele>
        <time>2014-03-23T09:19:19Z</time>
      </trkpt>
      <trkpt lat="41.592220000" lon="1.920223000">
        <ele>359.19</ele>
        <time>2014-03-23T09:19:25Z</time>
      </trkpt>
      <trkpt lat="41.591976000" lon="1.919893000">
        <ele>358.23</ele>
        <time>2014-03-23T09:19:34Z</time>
      </trkpt>
      <trkpt lat="41.591629000" lon="1.919656000">
        <ele>356.31</ele>
        <time>2014-03-23T09:19:42Z</time>
      </trkpt>
      <trkpt lat="41.591579000" lon="1.919634000">
        <ele>356.31</ele>
        <time>2014-03-23T09:19:43Z</time>
      </trkpt>
      <trkpt lat="41.591431000" lon="1.919565000">
        <ele>355.34</ele>
        <time>2014-03-23T09:19:46Z</time>
      </trkpt>
      <trkpt lat="41.591202000" lon="1.919340000">
        <ele>355.34</ele>
        <time>2014-03-23T09:19:51Z</time>
      </trkpt>
      <trkpt lat="41.590912000" lon="1.919224000">
        <ele>353.42</ele>
        <time>2014-03-23T09:19:57Z</time>
      </trkpt>
      <trkpt lat="41.590805000" lon="1.919183000">
        <ele>352.46</ele>
        <time>2014-03-23T09:19:59Z</time>
      </trkpt>
      <trkpt lat="41.590355000" lon="1.918898000">
        <ele>349.58</ele>
        <time>2014-03-23T09:20:07Z</time>
      </trkpt>
      <trkpt lat="41.590000000" lon="1.918713000">
        <ele>348.62</ele>
        <time>2014-03-23T09:20:13Z</time>
      </trkpt>
      <trkpt lat="41.589886000" lon="1.918667000">
        <ele>347.65</ele>
        <time>2014-03-23T09:20:15Z</time>
      </trkpt>
      <trkpt lat="41.589745000" lon="1.918554000">
        <ele>346.21</ele>
        <time>2014-03-23T09:20:18Z</time>
      </trkpt>
      <trkpt lat="41.589596000" lon="1.918333000">
        <ele>345.73</ele>
        <time>2014-03-23T09:20:22Z</time>
      </trkpt>
      <trkpt lat="41.589500000" lon="1.918244000">
        <ele>345.25</ele>
        <time>2014-03-23T09:20:24Z</time>
      </trkpt>
      <trkpt lat="41.589382000" lon="1.918074000">
        <ele>343.81</ele>
        <time>2014-03-23T09:20:27Z</time>
      </trkpt>
      <trkpt lat="41.589199000" lon="1.917950000">
        <ele>342.85</ele>
        <time>2014-03-23T09:20:31Z</time>
      </trkpt>
      <trkpt lat="41.589001000" lon="1.917841000">
        <ele>341.89</ele>
        <time>2014-03-23T09:20:35Z</time>
      </trkpt>
      <trkpt lat="41.588612000" lon="1.917505000">
        <ele>338.52</ele>
        <time>2014-03-23T09:20:43Z</time>
      </trkpt>
      <trkpt lat="41.588448000" lon="1.917383000">
        <ele>336.12</ele>
        <time>2014-03-23T09:20:47Z</time>
      </trkpt>
      <trkpt lat="41.588413000" lon="1.917355000">
        <ele>336.12</ele>
        <time>2014-03-23T09:20:55Z</time>
      </trkpt>
      <trkpt lat="41.588413000" lon="1.917355000">
        <ele>334.68</ele>
        <time>2014-03-23T09:21:21Z</time>
      </trkpt>
      <trkpt lat="41.588215000" lon="1.917278000">
        <ele>333.23</ele>
        <time>2014-03-23T09:21:30Z</time>
      </trkpt>
      <trkpt lat="41.588146000" lon="1.917223000">
        <ele>331.79</ele>
        <time>2014-03-23T09:21:32Z</time>
      </trkpt>
      <trkpt lat="41.588062000" lon="1.917192000">
        <ele>330.83</ele>
        <time>2014-03-23T09:21:34Z</time>
      </trkpt>
      <trkpt lat="41.587765000" lon="1.917238000">
        <ele>328.43</ele>
        <time>2014-03-23T09:21:39Z</time>
      </trkpt>
      <trkpt lat="41.587646000" lon="1.917269000">
        <ele>326.50</ele>
        <time>2014-03-23T09:21:41Z</time>
      </trkpt>
      <trkpt lat="41.587337000" lon="1.917023000">
        <ele>324.58</ele>
        <time>2014-03-23T09:21:50Z</time>
      </trkpt>
      <trkpt lat="41.587349000" lon="1.916973000">
        <ele>325.06</ele>
        <time>2014-03-23T09:21:52Z</time>
      </trkpt>
      <trkpt lat="41.587399000" lon="1.916832000">
        <ele>325.54</ele>
        <time>2014-03-23T09:22:01Z</time>
      </trkpt>
      <trkpt lat="41.587433000" lon="1.916756000">
        <ele>325.54</ele>
        <time>2014-03-23T09:22:05Z</time>
      </trkpt>
      <trkpt lat="41.587467000" lon="1.916688000">
        <ele>326.02</ele>
        <time>2014-03-23T09:22:08Z</time>
      </trkpt>
      <trkpt lat="41.587753000" lon="1.916305000">
        <ele>329.87</ele>
        <time>2014-03-23T09:22:23Z</time>
      </trkpt>
      <trkpt lat="41.587982000" lon="1.916026000">
        <ele>333.23</ele>
        <time>2014-03-23T09:22:35Z</time>
      </trkpt>
      <trkpt lat="41.588272000" lon="1.915888000">
        <ele>336.60</ele>
        <time>2014-03-23T09:22:49Z</time>
      </trkpt>
      <trkpt lat="41.588306000" lon="1.915719000">
        <ele>330.35</ele>
        <time>2014-03-23T09:22:57Z</time>
      </trkpt>
      <trkpt lat="41.588299000" lon="1.915698000">
        <ele>336.60</ele>
        <time>2014-03-23T09:22:58Z</time>
      </trkpt>
      <trkpt lat="41.588249000" lon="1.915359000">
        <ele>338.04</ele>
        <time>2014-03-23T09:23:10Z</time>
      </trkpt>
      <trkpt lat="41.588249000" lon="1.915244000">
        <ele>338.52</ele>
        <time>2014-03-23T09:23:22Z</time>
      </trkpt>
      <trkpt lat="41.588249000" lon="1.915244000">
        <ele>336.60</ele>
        <time>2014-03-23T09:23:27Z</time>
      </trkpt>
      <trkpt lat="41.588249000" lon="1.915244000">
        <ele>337.56</ele>
        <time>2014-03-23T09:23:41Z</time>
      </trkpt>
      <trkpt lat="41.588409000" lon="1.915147000">
        <ele>339.00</ele>
        <time>2014-03-23T09:23:51Z</time>
      </trkpt>
      <trkpt lat="41.588631000" lon="1.914930000">
        <ele>341.89</ele>
        <time>2014-03-23T09:24:04Z</time>
      </trkpt>
      <trkpt lat="41.588840000" lon="1.914723000">
        <ele>344.77</ele>
        <time>2014-03-23T09:24:17Z</time>
      </trkpt>
      <trkpt lat="41.588921000" lon="1.914638000">
        <ele>349.58</ele>
        <time>2014-03-23T09:24:22Z</time>
      </trkpt>
      <trkpt lat="41.588932000" lon="1.914621000">
        <ele>345.73</ele>
        <time>2014-03-23T09:24:23Z</time>
      </trkpt>
      <trkpt lat="41.588963000" lon="1.914586000">
        <ele>349.58</ele>
        <time>2014-03-23T09:24:25Z</time>
      </trkpt>
      <trkpt lat="41.588974000" lon="1.914567000">
        <ele>345.73</ele>
        <time>2014-03-23T09:24:26Z</time>
      </trkpt>
      <trkpt lat="41.589039000" lon="1.914466000">
        <ele>346.69</ele>
        <time>2014-03-23T09:24:32Z</time>
      </trkpt>
      <trkpt lat="41.589054000" lon="1.914412000">
        <ele>346.69</ele>
        <time>2014-03-23T09:24:37Z</time>
      </trkpt>
      <trkpt lat="41.589008000" lon="1.914507000">
        <ele>346.69</ele>
        <time>2014-03-23T09:24:42Z</time>
      </trkpt>
      <trkpt lat="41.588749000" lon="1.914805000">
        <ele>343.81</ele>
        <time>2014-03-23T09:24:55Z</time>
      </trkpt>
      <trkpt lat="41.588634000" lon="1.914893000">
        <ele>342.37</ele>
        <time>2014-03-23T09:24:58Z</time>
      </trkpt>
      <trkpt lat="41.588341000" lon="1.915153000">
        <ele>338.52</ele>
        <time>2014-03-23T09:25:06Z</time>
      </trkpt>
      <trkpt lat="41.588287000" lon="1.915640000">
        <ele>336.12</ele>
        <time>2014-03-23T09:25:13Z</time>
      </trkpt>
      <trkpt lat="41.588177000" lon="1.915938000">
        <ele>334.68</ele>
        <time>2014-03-23T09:25:18Z</time>
      </trkpt>
      <trkpt lat="41.588047000" lon="1.915990000">
        <ele>334.20</ele>
        <time>2014-03-23T09:25:20Z</time>
      </trkpt>
      <trkpt lat="41.587807000" lon="1.916221000">
        <ele>330.35</ele>
        <time>2014-03-23T09:25:24Z</time>
      </trkpt>
      <trkpt lat="41.587578000" lon="1.916530000">
        <ele>327.95</ele>
        <time>2014-03-23T09:25:28Z</time>
      </trkpt>
      <trkpt lat="41.587479000" lon="1.916686000">
        <ele>326.99</ele>
        <time>2014-03-23T09:25:30Z</time>
      </trkpt>
      <trkpt lat="41.587372000" lon="1.916930000">
        <ele>325.06</ele>
        <time>2014-03-23T09:25:33Z</time>
      </trkpt>
      <trkpt lat="41.587315000" lon="1.917117000">
        <ele>324.10</ele>
        <time>2014-03-23T09:25:36Z</time>
      </trkpt>
      <trkpt lat="41.587227000" lon="1.917209000">
        <ele>323.14</ele>
        <time>2014-03-23T09:25:40Z</time>
      </trkpt>
      <trkpt lat="41.587208000" lon="1.917224000">
        <ele>322.66</ele>
        <time>2014-03-23T09:25:41Z</time>
      </trkpt>
      <trkpt lat="41.587097000" lon="1.917021000">
        <ele>322.66</ele>
        <time>2014-03-23T09:25:48Z</time>
      </trkpt>
      <trkpt lat="41.587032000" lon="1.916912000">
        <ele>321.70</ele>
        <time>2014-03-23T09:26:02Z</time>
      </trkpt>
      <trkpt lat="41.587025000" lon="1.916906000">
        <ele>321.70</ele>
        <time>2014-03-23T09:26:15Z</time>
      </trkpt>
      <trkpt lat="41.586929000" lon="1.916935000">
        <ele>322.18</ele>
        <time>2014-03-23T09:26:22Z</time>
      </trkpt>
      <trkpt lat="41.586891000" lon="1.917113000">
        <ele>322.18</ele>
        <time>2014-03-23T09:26:27Z</time>
      </trkpt>
      <trkpt lat="41.586803000" lon="1.917147000">
        <ele>322.18</ele>
        <time>2014-03-23T09:26:31Z</time>
      </trkpt>
      <trkpt lat="41.586605000" lon="1.917024000">
        <ele>322.66</ele>
        <time>2014-03-23T09:26:38Z</time>
      </trkpt>
      <trkpt lat="41.586563000" lon="1.916888000">
        <ele>324.10</ele>
        <time>2014-03-23T09:26:42Z</time>
      </trkpt>
      <trkpt lat="41.586399000" lon="1.916489000">
        <ele>326.50</ele>
        <time>2014-03-23T09:26:54Z</time>
      </trkpt>
      <trkpt lat="41.586506000" lon="1.916232000">
        <ele>329.39</ele>
        <time>2014-03-23T09:27:03Z</time>
      </trkpt>
      <trkpt lat="41.586681000" lon="1.915967000">
        <ele>332.27</ele>
        <time>2014-03-23T09:27:16Z</time>
      </trkpt>
      <trkpt lat="41.586929000" lon="1.915627000">
        <ele>335.16</ele>
        <time>2014-03-23T09:27:31Z</time>
      </trkpt>
      <trkpt lat="41.587086000" lon="1.915296000">
        <ele>337.08</ele>
        <time>2014-03-23T09:27:43Z</time>
      </trkpt>
      <trkpt lat="41.587158000" lon="1.914948000">
        <ele>338.04</ele>
        <time>2014-03-23T09:27:54Z</time>
      </trkpt>
      <trkpt lat="41.587288000" lon="1.914501000">
        <ele>339.48</ele>
        <time>2014-03-23T09:28:08Z</time>
      </trkpt>
      <trkpt lat="41.587368000" lon="1.914034000">
        <ele>340.92</ele>
        <time>2014-03-23T09:28:22Z</time>
      </trkpt>
      <trkpt lat="41.587490000" lon="1.913682000">
        <ele>342.85</ele>
        <time>2014-03-23T09:28:33Z</time>
      </trkpt>
      <trkpt lat="41.587631000" lon="1.913444000">
        <ele>344.29</ele>
        <time>2014-03-23T09:28:42Z</time>
      </trkpt>
      <trkpt lat="41.587746000" lon="1.913187000">
        <ele>345.25</ele>
        <time>2014-03-23T09:28:51Z</time>
      </trkpt>
      <trkpt lat="41.587700000" lon="1.913020000">
        <ele>346.69</ele>
        <time>2014-03-23T09:28:57Z</time>
      </trkpt>
      <trkpt lat="41.587681000" lon="1.912783000">
        <ele>348.13</ele>
        <time>2014-03-23T09:29:05Z</time>
      </trkpt>
      <trkpt lat="41.587711000" lon="1.912758000">
        <ele>345.73</ele>
        <time>2014-03-23T09:29:17Z</time>
      </trkpt>
      <trkpt lat="41.587711000" lon="1.912758000">
        <ele>350.06</ele>
        <time>2014-03-23T09:29:20Z</time>
      </trkpt>
      <trkpt lat="41.587711000" lon="1.912758000">
        <ele>346.69</ele>
        <time>2014-03-23T09:29:21Z</time>
      </trkpt>
      <trkpt lat="41.587711000" lon="1.912758000">
        <ele>350.54</ele>
        <time>2014-03-23T09:29:23Z</time>
      </trkpt>
      <trkpt lat="41.587711000" lon="1.912758000">
        <ele>346.21</ele>
        <time>2014-03-23T09:29:24Z</time>
      </trkpt>
      <trkpt lat="41.587711000" lon="1.912758000">
        <ele>351.02</ele>
        <time>2014-03-23T09:29:27Z</time>
      </trkpt>
      <trkpt lat="41.587711000" lon="1.912758000">
        <ele>350.06</ele>
        <time>2014-03-23T09:29:28Z</time>
      </trkpt>
      <trkpt lat="41.587711000" lon="1.912758000">
        <ele>348.62</ele>
        <time>2014-03-23T09:29:30Z</time>
      </trkpt>
      <trkpt lat="41.587711000" lon="1.912757000">
        <ele>348.62</ele>
        <time>2014-03-23T09:29:57Z</time>
      </trkpt>
      <trkpt lat="41.587711000" lon="1.912757000">
        <ele>344.77</ele>
        <time>2014-03-23T09:30:00Z</time>
      </trkpt>
      <trkpt lat="41.587711000" lon="1.912757000">
        <ele>349.10</ele>
        <time>2014-03-23T09:30:01Z</time>
      </trkpt>
      <trkpt lat="41.587711000" lon="1.912757000">
        <ele>347.65</ele>
        <time>2014-03-23T09:30:12Z</time>
      </trkpt>
      <trkpt lat="41.587711000" lon="1.912757000">
        <ele>347.17</ele>
        <time>2014-03-23T09:30:26Z</time>
      </trkpt>
      <trkpt lat="41.587711000" lon="1.912756000">
        <ele>347.65</ele>
        <time>2014-03-23T09:31:02Z</time>
      </trkpt>
      <trkpt lat="41.587711000" lon="1.912758000">
        <ele>348.13</ele>
        <time>2014-03-23T09:31:37Z</time>
      </trkpt>
      <trkpt lat="41.587711000" lon="1.912759000">
        <ele>349.10</ele>
        <time>2014-03-23T09:32:10Z</time>
      </trkpt>
      <trkpt lat="41.587715000" lon="1.912760000">
        <ele>347.65</ele>
        <time>2014-03-23T09:32:27Z</time>
      </trkpt>
      <trkpt lat="41.587749000" lon="1.912852000">
        <ele>348.62</ele>
        <time>2014-03-23T09:32:32Z</time>
      </trkpt>
      <trkpt lat="41.587818000" lon="1.913101000">
        <ele>348.62</ele>
        <time>2014-03-23T09:32:40Z</time>
      </trkpt>
      <trkpt lat="41.588158000" lon="1.913431000">
        <ele>348.62</ele>
        <time>2014-03-23T09:32:54Z</time>
      </trkpt>
      <trkpt lat="41.588539000" lon="1.913650000">
        <ele>348.13</ele>
        <time>2014-03-23T09:33:05Z</time>
      </trkpt>
      <trkpt lat="41.588799000" lon="1.913764000">
        <ele>347.65</ele>
        <time>2014-03-23T09:33:11Z</time>
      </trkpt>
      <trkpt lat="41.589355000" lon="1.913765000">
        <ele>349.10</ele>
        <time>2014-03-23T09:33:23Z</time>
      </trkpt>
      <trkpt lat="41.589790000" lon="1.913546000">
        <ele>351.50</ele>
        <time>2014-03-23T09:33:36Z</time>
      </trkpt>
      <trkpt lat="41.590088000" lon="1.913277000">
        <ele>354.86</ele>
        <time>2014-03-23T09:33:48Z</time>
      </trkpt>
      <trkpt lat="41.590454000" lon="1.912992000">
        <ele>355.83</ele>
        <time>2014-03-23T09:34:03Z</time>
      </trkpt>
      <trkpt lat="41.590855000" lon="1.912810000">
        <ele>355.83</ele>
        <time>2014-03-23T09:34:16Z</time>
      </trkpt>
      <trkpt lat="41.591461000" lon="1.912783000">
        <ele>353.42</ele>
        <time>2014-03-23T09:34:30Z</time>
      </trkpt>
      <trkpt lat="41.591747000" lon="1.912875000">
        <ele>351.98</ele>
        <time>2014-03-23T09:34:35Z</time>
      </trkpt>
      <trkpt lat="41.591942000" lon="1.913137000">
        <ele>351.98</ele>
        <time>2014-03-23T09:34:40Z</time>
      </trkpt>
      <trkpt lat="41.592331000" lon="1.913477000">
        <ele>352.46</ele>
        <time>2014-03-23T09:34:50Z</time>
      </trkpt>
      <trkpt lat="41.592556000" lon="1.913068000">
        <ele>353.42</ele>
        <time>2014-03-23T09:34:58Z</time>
      </trkpt>
      <trkpt lat="41.592522000" lon="1.912871000">
        <ele>353.42</ele>
        <time>2014-03-23T09:35:01Z</time>
      </trkpt>
      <trkpt lat="41.592541000" lon="1.912433000">
        <ele>353.90</ele>
        <time>2014-03-23T09:35:08Z</time>
      </trkpt>
      <trkpt lat="41.592876000" lon="1.912317000">
        <ele>356.31</ele>
        <time>2014-03-23T09:35:17Z</time>
      </trkpt>
      <trkpt lat="41.593021000" lon="1.912459000">
        <ele>357.27</ele>
        <time>2014-03-23T09:35:21Z</time>
      </trkpt>
      <trkpt lat="41.593216000" lon="1.912633000">
        <ele>358.23</ele>
        <time>2014-03-23T09:35:27Z</time>
      </trkpt>
      <trkpt lat="41.593636000" lon="1.913012000">
        <ele>359.67</ele>
        <time>2014-03-23T09:35:41Z</time>
      </trkpt>
      <trkpt lat="41.593987000" lon="1.913186000">
        <ele>361.11</ele>
        <time>2014-03-23T09:35:53Z</time>
      </trkpt>
      <trkpt lat="41.594212000" lon="1.912835000">
        <ele>363.04</ele>
        <time>2014-03-23T09:36:04Z</time>
      </trkpt>
      <trkpt lat="41.594334000" lon="1.912550000">
        <ele>366.40</ele>
        <time>2014-03-23T09:36:13Z</time>
      </trkpt>
      <trkpt lat="41.594448000" lon="1.912455000">
        <ele>368.32</ele>
        <time>2014-03-23T09:36:19Z</time>
      </trkpt>
      <trkpt lat="41.594479000" lon="1.912454000">
        <ele>368.32</ele>
        <time>2014-03-23T09:36:21Z</time>
      </trkpt>
      <trkpt lat="41.594761000" lon="1.912589000">
        <ele>371.21</ele>
        <time>2014-03-23T09:36:34Z</time>
      </trkpt>
      <trkpt lat="41.595051000" lon="1.912513000">
        <ele>372.65</ele>
        <time>2014-03-23T09:36:46Z</time>
      </trkpt>
      <trkpt lat="41.595337000" lon="1.912404000">
        <ele>373.13</ele>
        <time>2014-03-23T09:36:57Z</time>
      </trkpt>
      <trkpt lat="41.595749000" lon="1.912560000">
        <ele>374.57</ele>
        <time>2014-03-23T09:37:13Z</time>
      </trkpt>
      <trkpt lat="41.596107000" lon="1.912613000">
        <ele>375.53</ele>
        <time>2014-03-23T09:37:25Z</time>
      </trkpt>
      <trkpt lat="41.596134000" lon="1.912611000">
        <ele>375.05</ele>
        <time>2014-03-23T09:37:26Z</time>
      </trkpt>
      <trkpt lat="41.596378000" lon="1.912484000">
        <ele>374.09</ele>
        <time>2014-03-23T09:37:35Z</time>
      </trkpt>
      <trkpt lat="41.596607000" lon="1.912522000">
        <ele>373.61</ele>
        <time>2014-03-23T09:37:42Z</time>
      </trkpt>
      <trkpt lat="41.596767000" lon="1.912502000">
        <ele>371.21</ele>
        <time>2014-03-23T09:37:48Z</time>
      </trkpt>
      <trkpt lat="41.596855000" lon="1.912396000">
        <ele>369.76</ele>
        <time>2014-03-23T09:37:53Z</time>
      </trkpt>
      <trkpt lat="41.596882000" lon="1.912193000">
        <ele>369.28</ele>
        <time>2014-03-23T09:37:58Z</time>
      </trkpt>
      <trkpt lat="41.596912000" lon="1.911949000">
        <ele>365.44</ele>
        <time>2014-03-23T09:38:04Z</time>
      </trkpt>
      <trkpt lat="41.596928000" lon="1.911889000">
        <ele>364.96</ele>
        <time>2014-03-23T09:38:06Z</time>
      </trkpt>
      <trkpt lat="41.597027000" lon="1.911803000">
        <ele>362.07</ele>
        <time>2014-03-23T09:38:12Z</time>
      </trkpt>
      <trkpt lat="41.597252000" lon="1.911658000">
        <ele>360.63</ele>
        <time>2014-03-23T09:38:25Z</time>
      </trkpt>
      <trkpt lat="41.597351000" lon="1.911636000">
        <ele>361.59</ele>
        <time>2014-03-23T09:38:29Z</time>
      </trkpt>
      <trkpt lat="41.597416000" lon="1.911558000">
        <ele>362.07</ele>
        <time>2014-03-23T09:38:34Z</time>
      </trkpt>
      <trkpt lat="41.597473000" lon="1.911482000">
        <ele>361.59</ele>
        <time>2014-03-23T09:38:38Z</time>
      </trkpt>
      <trkpt lat="41.597668000" lon="1.911331000">
        <ele>360.15</ele>
        <time>2014-03-23T09:38:49Z</time>
      </trkpt>
      <trkpt lat="41.597866000" lon="1.911168000">
        <ele>359.19</ele>
        <time>2014-03-23T09:38:56Z</time>
      </trkpt>
      <trkpt lat="41.597904000" lon="1.911107000">
        <ele>359.19</ele>
        <time>2014-03-23T09:38:58Z</time>
      </trkpt>
      <trkpt lat="41.598061000" lon="1.910803000">
        <ele>357.75</ele>
        <time>2014-03-23T09:39:05Z</time>
      </trkpt>
      <trkpt lat="41.598221000" lon="1.910730000">
        <ele>355.34</ele>
        <time>2014-03-23T09:39:10Z</time>
      </trkpt>
      <trkpt lat="41.598339000" lon="1.910685000">
        <ele>354.86</ele>
        <time>2014-03-23T09:39:13Z</time>
      </trkpt>
      <trkpt lat="41.598553000" lon="1.910644000">
        <ele>351.98</ele>
        <time>2014-03-23T09:39:19Z</time>
      </trkpt>
      <trkpt lat="41.598633000" lon="1.910585000">
        <ele>351.02</ele>
        <time>2014-03-23T09:39:22Z</time>
      </trkpt>
      <trkpt lat="41.598736000" lon="1.910575000">
        <ele>350.54</ele>
        <time>2014-03-23T09:39:25Z</time>
      </trkpt>
      <trkpt lat="41.598934000" lon="1.910587000">
        <ele>350.54</ele>
        <time>2014-03-23T09:39:29Z</time>
      </trkpt>
      <trkpt lat="41.599033000" lon="1.910617000">
        <ele>350.54</ele>
        <time>2014-03-23T09:39:31Z</time>
      </trkpt>
      <trkpt lat="41.599171000" lon="1.910632000">
        <ele>350.06</ele>
        <time>2014-03-23T09:39:34Z</time>
      </trkpt>
      <trkpt lat="41.599354000" lon="1.910681000">
        <ele>349.58</ele>
        <time>2014-03-23T09:39:38Z</time>
      </trkpt>
      <trkpt lat="41.599598000" lon="1.910669000">
        <ele>349.10</ele>
        <time>2014-03-23T09:39:44Z</time>
      </trkpt>
      <trkpt lat="41.599640000" lon="1.910453000">
        <ele>349.10</ele>
        <time>2014-03-23T09:39:51Z</time>
      </trkpt>
      <trkpt lat="41.599579000" lon="1.910330000">
        <ele>349.58</ele>
        <time>2014-03-23T09:39:54Z</time>
      </trkpt>
      <trkpt lat="41.599499000" lon="1.910198000">
        <ele>349.58</ele>
        <time>2014-03-23T09:39:58Z</time>
      </trkpt>
      <trkpt lat="41.599323000" lon="1.909891000">
        <ele>351.98</ele>
        <time>2014-03-23T09:40:08Z</time>
      </trkpt>
      <trkpt lat="41.599236000" lon="1.909711000">
        <ele>352.94</ele>
        <time>2014-03-23T09:40:17Z</time>
      </trkpt>
      <trkpt lat="41.599232000" lon="1.909687000">
        <ele>352.46</ele>
        <time>2014-03-23T09:40:23Z</time>
      </trkpt>
      <trkpt lat="41.599216000" lon="1.909531000">
        <ele>353.90</ele>
        <time>2014-03-23T09:40:29Z</time>
      </trkpt>
      <trkpt lat="41.599205000" lon="1.909440000">
        <ele>354.38</ele>
        <time>2014-03-23T09:40:32Z</time>
      </trkpt>
      <trkpt lat="41.599373000" lon="1.909105000">
        <ele>353.90</ele>
        <time>2014-03-23T09:40:42Z</time>
      </trkpt>
      <trkpt lat="41.599525000" lon="1.908709000">
        <ele>353.90</ele>
        <time>2014-03-23T09:40:51Z</time>
      </trkpt>
      <trkpt lat="41.599560000" lon="1.908363000">
        <ele>354.38</ele>
        <time>2014-03-23T09:40:59Z</time>
      </trkpt>
      <trkpt lat="41.599777000" lon="1.908066000">
        <ele>352.94</ele>
        <time>2014-03-23T09:41:09Z</time>
      </trkpt>
      <trkpt lat="41.599712000" lon="1.907723000">
        <ele>351.98</ele>
        <time>2014-03-23T09:41:18Z</time>
      </trkpt>
      <trkpt lat="41.599686000" lon="1.907667000">
        <ele>352.46</ele>
        <time>2014-03-23T09:41:20Z</time>
      </trkpt>
      <trkpt lat="41.599655000" lon="1.907321000">
        <ele>351.50</ele>
        <time>2014-03-23T09:41:28Z</time>
      </trkpt>
      <trkpt lat="41.599556000" lon="1.906934000">
        <ele>350.54</ele>
        <time>2014-03-23T09:41:34Z</time>
      </trkpt>
      <trkpt lat="41.599537000" lon="1.906777000">
        <ele>350.06</ele>
        <time>2014-03-23T09:41:38Z</time>
      </trkpt>
      <trkpt lat="41.599342000" lon="1.906520000">
        <ele>349.10</ele>
        <time>2014-03-23T09:41:48Z</time>
      </trkpt>
      <trkpt lat="41.599171000" lon="1.906324000">
        <ele>349.10</ele>
        <time>2014-03-23T09:41:54Z</time>
      </trkpt>
      <trkpt lat="41.598957000" lon="1.906116000">
        <ele>348.13</ele>
        <time>2014-03-23T09:42:01Z</time>
      </trkpt>
      <trkpt lat="41.598820000" lon="1.905900000">
        <ele>347.65</ele>
        <time>2014-03-23T09:42:06Z</time>
      </trkpt>
      <trkpt lat="41.598701000" lon="1.905622000">
        <ele>346.69</ele>
        <time>2014-03-23T09:42:12Z</time>
      </trkpt>
      <trkpt lat="41.598572000" lon="1.905561000">
        <ele>345.73</ele>
        <time>2014-03-23T09:42:16Z</time>
      </trkpt>
      <trkpt lat="41.598457000" lon="1.905581000">
        <ele>345.25</ele>
        <time>2014-03-23T09:42:19Z</time>
      </trkpt>
      <trkpt lat="41.598267000" lon="1.905370000">
        <ele>343.81</ele>
        <time>2014-03-23T09:42:26Z</time>
      </trkpt>
      <trkpt lat="41.597996000" lon="1.905454000">
        <ele>341.89</ele>
        <time>2014-03-23T09:42:33Z</time>
      </trkpt>
      <trkpt lat="41.597866000" lon="1.905624000">
        <ele>341.89</ele>
        <time>2014-03-23T09:42:37Z</time>
      </trkpt>
      <trkpt lat="41.597542000" lon="1.905695000">
        <ele>340.44</ele>
        <time>2014-03-23T09:42:45Z</time>
      </trkpt>
      <trkpt lat="41.597511000" lon="1.905663000">
        <ele>340.44</ele>
        <time>2014-03-23T09:42:46Z</time>
      </trkpt>
      <trkpt lat="41.597130000" lon="1.905591000">
        <ele>339.00</ele>
        <time>2014-03-23T09:42:55Z</time>
      </trkpt>
      <trkpt lat="41.596844000" lon="1.905518000">
        <ele>336.60</ele>
        <time>2014-03-23T09:43:03Z</time>
      </trkpt>
      <trkpt lat="41.596786000" lon="1.905150000">
        <ele>333.71</ele>
        <time>2014-03-23T09:43:12Z</time>
      </trkpt>
      <trkpt lat="41.596809000" lon="1.905117000">
        <ele>333.71</ele>
        <time>2014-03-23T09:43:13Z</time>
      </trkpt>
      <trkpt lat="41.596901000" lon="1.904993000">
        <ele>332.75</ele>
        <time>2014-03-23T09:43:17Z</time>
      </trkpt>
      <trkpt lat="41.596851000" lon="1.904820000">
        <ele>330.83</ele>
        <time>2014-03-23T09:43:22Z</time>
      </trkpt>
      <trkpt lat="41.596771000" lon="1.904574000">
        <ele>330.35</ele>
        <time>2014-03-23T09:43:29Z</time>
      </trkpt>
      <trkpt lat="41.596729000" lon="1.904405000">
        <ele>330.35</ele>
        <time>2014-03-23T09:43:33Z</time>
      </trkpt>
      <trkpt lat="41.596615000" lon="1.904060000">
        <ele>328.91</ele>
        <time>2014-03-23T09:43:40Z</time>
      </trkpt>
      <trkpt lat="41.596458000" lon="1.903514000">
        <ele>327.47</ele>
        <time>2014-03-23T09:43:50Z</time>
      </trkpt>
      <trkpt lat="41.596367000" lon="1.903329000">
        <ele>326.50</ele>
        <time>2014-03-23T09:43:53Z</time>
      </trkpt>
      <trkpt lat="41.596058000" lon="1.902825000">
        <ele>323.62</ele>
        <time>2014-03-23T09:44:03Z</time>
      </trkpt>
      <trkpt lat="41.595901000" lon="1.902536000">
        <ele>318.81</ele>
        <time>2014-03-23T09:44:10Z</time>
      </trkpt>
      <trkpt lat="41.595921000" lon="1.902481000">
        <ele>318.81</ele>
        <time>2014-03-23T09:44:11Z</time>
      </trkpt>
      <trkpt lat="41.595932000" lon="1.902418000">
        <ele>318.33</ele>
        <time>2014-03-23T09:44:12Z</time>
      </trkpt>
      <trkpt lat="41.595959000" lon="1.902204000">
        <ele>316.41</ele>
        <time>2014-03-23T09:44:15Z</time>
      </trkpt>
      <trkpt lat="41.596058000" lon="1.902001000">
        <ele>315.45</ele>
        <time>2014-03-23T09:44:18Z</time>
      </trkpt>
      <trkpt lat="41.596283000" lon="1.901777000">
        <ele>313.53</ele>
        <time>2014-03-23T09:44:22Z</time>
      </trkpt>
      <trkpt lat="41.596382000" lon="1.901677000">
        <ele>312.09</ele>
        <time>2014-03-23T09:44:24Z</time>
      </trkpt>
      <trkpt lat="41.596546000" lon="1.901454000">
        <ele>309.68</ele>
        <time>2014-03-23T09:44:28Z</time>
      </trkpt>
      <trkpt lat="41.596596000" lon="1.901413000">
        <ele>308.72</ele>
        <time>2014-03-23T09:44:29Z</time>
      </trkpt>
      <trkpt lat="41.596672000" lon="1.901360000">
        <ele>308.72</ele>
        <time>2014-03-23T09:44:31Z</time>
      </trkpt>
      <trkpt lat="41.596836000" lon="1.901075000">
        <ele>305.36</ele>
        <time>2014-03-23T09:44:39Z</time>
      </trkpt>
      <trkpt lat="41.597042000" lon="1.900901000">
        <ele>301.51</ele>
        <time>2014-03-23T09:44:46Z</time>
      </trkpt>
      <trkpt lat="41.597153000" lon="1.900842000">
        <ele>300.07</ele>
        <time>2014-03-23T09:44:49Z</time>
      </trkpt>
      <trkpt lat="41.597515000" lon="1.900959000">
        <ele>299.11</ele>
        <time>2014-03-23T09:45:02Z</time>
      </trkpt>
      <trkpt lat="41.597668000" lon="1.900713000">
        <ele>300.55</ele>
        <time>2014-03-23T09:45:11Z</time>
      </trkpt>
      <trkpt lat="41.597672000" lon="1.900679000">
        <ele>300.07</ele>
        <time>2014-03-23T09:45:12Z</time>
      </trkpt>
      <trkpt lat="41.597801000" lon="1.900337000">
        <ele>301.99</ele>
        <time>2014-03-23T09:45:23Z</time>
      </trkpt>
      <trkpt lat="41.597908000" lon="1.900115000">
        <ele>301.51</ele>
        <time>2014-03-23T09:45:31Z</time>
      </trkpt>
      <trkpt lat="41.598244000" lon="1.900098000">
        <ele>301.99</ele>
        <time>2014-03-23T09:45:45Z</time>
      </trkpt>
      <trkpt lat="41.598572000" lon="1.900280000">
        <ele>301.51</ele>
        <time>2014-03-23T09:45:57Z</time>
      </trkpt>
      <trkpt lat="41.598850000" lon="1.900737000">
        <ele>301.51</ele>
        <time>2014-03-23T09:46:09Z</time>
      </trkpt>
      <trkpt lat="41.599117000" lon="1.901171000">
        <ele>303.43</ele>
        <time>2014-03-23T09:46:22Z</time>
      </trkpt>
      <trkpt lat="41.599411000" lon="1.901119000">
        <ele>302.47</ele>
        <time>2014-03-23T09:46:31Z</time>
      </trkpt>
      <trkpt lat="41.599537000" lon="1.900785000">
        <ele>302.47</ele>
        <time>2014-03-23T09:46:39Z</time>
      </trkpt>
      <trkpt lat="41.599403000" lon="1.900628000">
        <ele>302.95</ele>
        <time>2014-03-23T09:46:45Z</time>
      </trkpt>
      <trkpt lat="41.599426000" lon="1.900412000">
        <ele>303.91</ele>
        <time>2014-03-23T09:46:51Z</time>
      </trkpt>
      <trkpt lat="41.599606000" lon="1.900023000">
        <ele>305.84</ele>
        <time>2014-03-23T09:47:02Z</time>
      </trkpt>
      <trkpt lat="41.599796000" lon="1.899710000">
        <ele>307.28</ele>
        <time>2014-03-23T09:47:13Z</time>
      </trkpt>
      <trkpt lat="41.599964000" lon="1.899394000">
        <ele>310.16</ele>
        <time>2014-03-23T09:47:23Z</time>
      </trkpt>
      <trkpt lat="41.600208000" lon="1.899200000">
        <ele>312.57</ele>
        <time>2014-03-23T09:47:35Z</time>
      </trkpt>
      <trkpt lat="41.600494000" lon="1.899040000">
        <ele>311.12</ele>
        <time>2014-03-23T09:47:47Z</time>
      </trkpt>
      <trkpt lat="41.600674000" lon="1.898679000">
        <ele>312.57</ele>
        <time>2014-03-23T09:47:58Z</time>
      </trkpt>
      <trkpt lat="41.600914000" lon="1.898433000">
        <ele>312.09</ele>
        <time>2014-03-23T09:48:09Z</time>
      </trkpt>
      <trkpt lat="41.601036000" lon="1.898307000">
        <ele>312.57</ele>
        <time>2014-03-23T09:48:13Z</time>
      </trkpt>
      <trkpt lat="41.601116000" lon="1.898157000">
        <ele>310.64</ele>
        <time>2014-03-23T09:48:17Z</time>
      </trkpt>
      <trkpt lat="41.601250000" lon="1.898065000">
        <ele>308.72</ele>
        <time>2014-03-23T09:48:20Z</time>
      </trkpt>
      <trkpt lat="41.601357000" lon="1.897992000">
        <ele>308.24</ele>
        <time>2014-03-23T09:48:22Z</time>
      </trkpt>
      <trkpt lat="41.601570000" lon="1.897833000">
        <ele>306.32</ele>
        <time>2014-03-23T09:48:26Z</time>
      </trkpt>
      <trkpt lat="41.601673000" lon="1.897728000">
        <ele>305.84</ele>
        <time>2014-03-23T09:48:28Z</time>
      </trkpt>
      <trkpt lat="41.601845000" lon="1.897607000">
        <ele>303.91</ele>
        <time>2014-03-23T09:48:31Z</time>
      </trkpt>
      <trkpt lat="41.602200000" lon="1.897434000">
        <ele>301.03</ele>
        <time>2014-03-23T09:48:37Z</time>
      </trkpt>
      <trkpt lat="41.602329000" lon="1.897442000">
        <ele>299.11</ele>
        <time>2014-03-23T09:48:40Z</time>
      </trkpt>
      <trkpt lat="41.602573000" lon="1.897376000">
        <ele>296.70</ele>
        <time>2014-03-23T09:48:46Z</time>
      </trkpt>
      <trkpt lat="41.602657000" lon="1.897339000">
        <ele>296.22</ele>
        <time>2014-03-23T09:48:49Z</time>
      </trkpt>
      <trkpt lat="41.603035000" lon="1.897077000">
        <ele>292.38</ele>
        <time>2014-03-23T09:49:01Z</time>
      </trkpt>
      <trkpt lat="41.603138000" lon="1.896686000">
        <ele>291.90</ele>
        <time>2014-03-23T09:49:10Z</time>
      </trkpt>
      <trkpt lat="41.603191000" lon="1.896537000">
        <ele>291.90</ele>
        <time>2014-03-23T09:49:15Z</time>
      </trkpt>
      <trkpt lat="41.603188000" lon="1.896304000">
        <ele>291.42</ele>
        <time>2014-03-23T09:49:19Z</time>
      </trkpt>
      <trkpt lat="41.602905000" lon="1.895791000">
        <ele>293.82</ele>
        <time>2014-03-23T09:49:31Z</time>
      </trkpt>
      <trkpt lat="41.602470000" lon="1.895478000">
        <ele>292.38</ele>
        <time>2014-03-23T09:49:44Z</time>
      </trkpt>
      <trkpt lat="41.602280000" lon="1.895235000">
        <ele>290.46</ele>
        <time>2014-03-23T09:49:49Z</time>
      </trkpt>
      <trkpt lat="41.602222000" lon="1.895113000">
        <ele>289.97</ele>
        <time>2014-03-23T09:49:51Z</time>
      </trkpt>
      <trkpt lat="41.602093000" lon="1.894718000">
        <ele>288.05</ele>
        <time>2014-03-23T09:49:57Z</time>
      </trkpt>
      <trkpt lat="41.601921000" lon="1.894431000">
        <ele>284.69</ele>
        <time>2014-03-23T09:50:03Z</time>
      </trkpt>
      <trkpt lat="41.601799000" lon="1.894354000">
        <ele>283.25</ele>
        <time>2014-03-23T09:50:06Z</time>
      </trkpt>
      <trkpt lat="41.601757000" lon="1.894191000">
        <ele>282.77</ele>
        <time>2014-03-23T09:50:09Z</time>
      </trkpt>
      <trkpt lat="41.601719000" lon="1.894045000">
        <ele>281.80</ele>
        <time>2014-03-23T09:50:13Z</time>
      </trkpt>
      <trkpt lat="41.601650000" lon="1.894055000">
        <ele>282.28</ele>
        <time>2014-03-23T09:50:18Z</time>
      </trkpt>
      <trkpt lat="41.601646000" lon="1.893864000">
        <ele>280.36</ele>
        <time>2014-03-23T09:50:25Z</time>
      </trkpt>
      <trkpt lat="41.601887000" lon="1.893582000">
        <ele>276.52</ele>
        <time>2014-03-23T09:50:30Z</time>
      </trkpt>
      <trkpt lat="41.602089000" lon="1.893306000">
        <ele>273.15</ele>
        <time>2014-03-23T09:50:36Z</time>
      </trkpt>
      <trkpt lat="41.602272000" lon="1.893037000">
        <ele>270.75</ele>
        <time>2014-03-23T09:50:41Z</time>
      </trkpt>
      <trkpt lat="41.602394000" lon="1.892843000">
        <ele>269.31</ele>
        <time>2014-03-23T09:50:45Z</time>
      </trkpt>
      <trkpt lat="41.602520000" lon="1.892650000">
        <ele>267.38</ele>
        <time>2014-03-23T09:50:49Z</time>
      </trkpt>
      <trkpt lat="41.602730000" lon="1.891962000">
        <ele>263.54</ele>
        <time>2014-03-23T09:50:58Z</time>
      </trkpt>
      <trkpt lat="41.602749000" lon="1.891860000">
        <ele>263.54</ele>
        <time>2014-03-23T09:50:59Z</time>
      </trkpt>
      <trkpt lat="41.602882000" lon="1.890954000">
        <ele>262.58</ele>
        <time>2014-03-23T09:51:10Z</time>
      </trkpt>
      <trkpt lat="41.602913000" lon="1.890605000">
        <ele>262.10</ele>
        <time>2014-03-23T09:51:15Z</time>
      </trkpt>
      <trkpt lat="41.603195000" lon="1.889821000">
        <ele>258.25</ele>
        <time>2014-03-23T09:51:26Z</time>
      </trkpt>
      <trkpt lat="41.603283000" lon="1.889664000">
        <ele>257.29</ele>
        <time>2014-03-23T09:51:28Z</time>
      </trkpt>
      <trkpt lat="41.603535000" lon="1.889253000">
        <ele>256.33</ele>
        <time>2014-03-23T09:51:34Z</time>
      </trkpt>
      <trkpt lat="41.604008000" lon="1.888784000">
        <ele>252.48</ele>
        <time>2014-03-23T09:51:43Z</time>
      </trkpt>
      <trkpt lat="41.604069000" lon="1.888726000">
        <ele>252.00</ele>
        <time>2014-03-23T09:51:44Z</time>
      </trkpt>
      <trkpt lat="41.604210000" lon="1.888128000">
        <ele>249.60</ele>
        <time>2014-03-23T09:51:52Z</time>
      </trkpt>
      <trkpt lat="41.604256000" lon="1.887488000">
        <ele>249.60</ele>
        <time>2014-03-23T09:52:00Z</time>
      </trkpt>
      <trkpt lat="41.604351000" lon="1.886613000">
        <ele>249.12</ele>
        <time>2014-03-23T09:52:14Z</time>
      </trkpt>
      <trkpt lat="41.604340000" lon="1.886117000">
        <ele>248.16</ele>
        <time>2014-03-23T09:52:25Z</time>
      </trkpt>
      <trkpt lat="41.604416000" lon="1.885934000">
        <ele>248.64</ele>
        <time>2014-03-23T09:52:29Z</time>
      </trkpt>
      <trkpt lat="41.604420000" lon="1.885558000">
        <ele>248.16</ele>
        <time>2014-03-23T09:52:36Z</time>
      </trkpt>
      <trkpt lat="41.604385000" lon="1.885397000">
        <ele>247.20</ele>
        <time>2014-03-23T09:52:39Z</time>
      </trkpt>
      <trkpt lat="41.604233000" lon="1.885130000">
        <ele>246.72</ele>
        <time>2014-03-23T09:52:45Z</time>
      </trkpt>
      <trkpt lat="41.604187000" lon="1.884672000">
        <ele>242.87</ele>
        <time>2014-03-23T09:52:53Z</time>
      </trkpt>
      <trkpt lat="41.604298000" lon="1.884485000">
        <ele>241.43</ele>
        <time>2014-03-23T09:52:56Z</time>
      </trkpt>
      <trkpt lat="41.604477000" lon="1.884143000">
        <ele>238.54</ele>
        <time>2014-03-23T09:53:01Z</time>
      </trkpt>
      <trkpt lat="41.604607000" lon="1.883566000">
        <ele>233.74</ele>
        <time>2014-03-23T09:53:06Z</time>
      </trkpt>
      <trkpt lat="41.604645000" lon="1.883318000">
        <ele>232.78</ele>
        <time>2014-03-23T09:53:08Z</time>
      </trkpt>
      <trkpt lat="41.604656000" lon="1.882696000">
        <ele>230.37</ele>
        <time>2014-03-23T09:53:14Z</time>
      </trkpt>
      <trkpt lat="41.604576000" lon="1.882264000">
        <ele>226.05</ele>
        <time>2014-03-23T09:53:19Z</time>
      </trkpt>
      <trkpt lat="41.604527000" lon="1.881870000">
        <ele>227.01</ele>
        <time>2014-03-23T09:53:24Z</time>
      </trkpt>
      <trkpt lat="41.604465000" lon="1.881516000">
        <ele>220.28</ele>
        <time>2014-03-23T09:53:30Z</time>
      </trkpt>
      <trkpt lat="41.604454000" lon="1.881464000">
        <ele>226.53</ele>
        <time>2014-03-23T09:53:31Z</time>
      </trkpt>
      <trkpt lat="41.604389000" lon="1.881234000">
        <ele>226.53</ele>
        <time>2014-03-23T09:53:36Z</time>
      </trkpt>
      <trkpt lat="41.604351000" lon="1.881131000">
        <ele>225.57</ele>
        <time>2014-03-23T09:53:38Z</time>
      </trkpt>
      <trkpt lat="41.604198000" lon="1.880447000">
        <ele>226.53</ele>
        <time>2014-03-23T09:53:52Z</time>
      </trkpt>
      <trkpt lat="41.604126000" lon="1.879778000">
        <ele>227.49</ele>
        <time>2014-03-23T09:54:07Z</time>
      </trkpt>
      <trkpt lat="41.604134000" lon="1.879257000">
        <ele>227.01</ele>
        <time>2014-03-23T09:54:18Z</time>
      </trkpt>
      <trkpt lat="41.604145000" lon="1.879203000">
        <ele>227.01</ele>
        <time>2014-03-23T09:54:19Z</time>
      </trkpt>
      <trkpt lat="41.604061000" lon="1.878902000">
        <ele>227.01</ele>
        <time>2014-03-23T09:54:25Z</time>
      </trkpt>
      <trkpt lat="41.603935000" lon="1.878374000">
        <ele>226.53</ele>
        <time>2014-03-23T09:54:37Z</time>
      </trkpt>
      <trkpt lat="41.603874000" lon="1.877897000">
        <ele>225.09</ele>
        <time>2014-03-23T09:54:46Z</time>
      </trkpt>
      <trkpt lat="41.603664000" lon="1.877385000">
        <ele>224.12</ele>
        <time>2014-03-23T09:54:55Z</time>
      </trkpt>
      <trkpt lat="41.603413000" lon="1.876734000">
        <ele>222.68</ele>
        <time>2014-03-23T09:55:06Z</time>
      </trkpt>
      <trkpt lat="41.603378000" lon="1.876537000">
        <ele>222.20</ele>
        <time>2014-03-23T09:55:09Z</time>
      </trkpt>
      <trkpt lat="41.603397000" lon="1.876015000">
        <ele>220.28</ele>
        <time>2014-03-23T09:55:16Z</time>
      </trkpt>
      <trkpt lat="41.603352000" lon="1.875850000">
        <ele>220.28</ele>
        <time>2014-03-23T09:55:18Z</time>
      </trkpt>
      <trkpt lat="41.603291000" lon="1.875400000">
        <ele>220.76</ele>
        <time>2014-03-23T09:55:24Z</time>
      </trkpt>
      <trkpt lat="41.603527000" lon="1.874729000">
        <ele>219.80</ele>
        <time>2014-03-23T09:55:35Z</time>
      </trkpt>
      <trkpt lat="41.603554000" lon="1.874664000">
        <ele>219.32</ele>
        <time>2014-03-23T09:55:36Z</time>
      </trkpt>
      <trkpt lat="41.603844000" lon="1.874279000">
        <ele>216.43</ele>
        <time>2014-03-23T09:55:42Z</time>
      </trkpt>
      <trkpt lat="41.604065000" lon="1.874095000">
        <ele>213.55</ele>
        <time>2014-03-23T09:55:46Z</time>
      </trkpt>
      <trkpt lat="41.604214000" lon="1.874052000">
        <ele>213.07</ele>
        <time>2014-03-23T09:55:48Z</time>
      </trkpt>
      <trkpt lat="41.604458000" lon="1.873879000">
        <ele>213.07</ele>
        <time>2014-03-23T09:55:52Z</time>
      </trkpt>
      <trkpt lat="41.604610000" lon="1.873692000">
        <ele>210.67</ele>
        <time>2014-03-23T09:55:55Z</time>
      </trkpt>
      <trkpt lat="41.604763000" lon="1.873532000">
        <ele>209.22</ele>
        <time>2014-03-23T09:55:58Z</time>
      </trkpt>
      <trkpt lat="41.604832000" lon="1.873465000">
        <ele>208.26</ele>
        <time>2014-03-23T09:56:00Z</time>
      </trkpt>
      <trkpt lat="41.604786000" lon="1.873265000">
        <ele>205.38</ele>
        <time>2014-03-23T09:56:05Z</time>
      </trkpt>
      <trkpt lat="41.604828000" lon="1.872979000">
        <ele>200.57</ele>
        <time>2014-03-23T09:56:12Z</time>
      </trkpt>
      <trkpt lat="41.604855000" lon="1.872950000">
        <ele>200.09</ele>
        <time>2014-03-23T09:56:13Z</time>
      </trkpt>
      <trkpt lat="41.604954000" lon="1.872645000">
        <ele>198.17</ele>
        <time>2014-03-23T09:56:24Z</time>
      </trkpt>
      <trkpt lat="41.605030000" lon="1.872400000">
        <ele>197.69</ele>
        <time>2014-03-23T09:56:33Z</time>
      </trkpt>
      <trkpt lat="41.605103000" lon="1.872317000">
        <ele>197.69</ele>
        <time>2014-03-23T09:56:36Z</time>
      </trkpt>
      <trkpt lat="41.605190000" lon="1.872105000">
        <ele>197.21</ele>
        <time>2014-03-23T09:56:41Z</time>
      </trkpt>
      <trkpt lat="41.605022000" lon="1.871900000">
        <ele>196.73</ele>
        <time>2014-03-23T09:56:48Z</time>
      </trkpt>
      <trkpt lat="41.604816000" lon="1.871474000">
        <ele>200.09</ele>
        <time>2014-03-23T09:57:00Z</time>
      </trkpt>
      <trkpt lat="41.604801000" lon="1.871465000">
        <ele>200.09</ele>
        <time>2014-03-23T09:57:01Z</time>
      </trkpt>
      <trkpt lat="41.604694000" lon="1.871274000">
        <ele>202.01</ele>
        <time>2014-03-23T09:57:08Z</time>
      </trkpt>
      <trkpt lat="41.604671000" lon="1.871229000">
        <ele>202.49</ele>
        <time>2014-03-23T09:57:10Z</time>
      </trkpt>
      <trkpt lat="41.604630000" lon="1.871157000">
        <ele>202.49</ele>
        <time>2014-03-23T09:57:13Z</time>
      </trkpt>
      <trkpt lat="41.604679000" lon="1.871003000">
        <ele>201.53</ele>
        <time>2014-03-23T09:57:19Z</time>
      </trkpt>
      <trkpt lat="41.604969000" lon="1.871046000">
        <ele>203.94</ele>
        <time>2014-03-23T09:57:33Z</time>
      </trkpt>
      <trkpt lat="41.605251000" lon="1.870981000">
        <ele>206.82</ele>
        <time>2014-03-23T09:57:46Z</time>
      </trkpt>
      <trkpt lat="41.605537000" lon="1.870682000">
        <ele>208.74</ele>
        <time>2014-03-23T09:58:01Z</time>
      </trkpt>
      <trkpt lat="41.605766000" lon="1.870347000">
        <ele>204.90</ele>
        <time>2014-03-23T09:58:11Z</time>
      </trkpt>
      <trkpt lat="41.605892000" lon="1.870197000">
        <ele>204.90</ele>
        <time>2014-03-23T09:58:16Z</time>
      </trkpt>
      <trkpt lat="41.605907000" lon="1.870051000">
        <ele>205.86</ele>
        <time>2014-03-23T09:58:20Z</time>
      </trkpt>
      <trkpt lat="41.605968000" lon="1.869660000">
        <ele>208.74</ele>
        <time>2014-03-23T09:58:32Z</time>
      </trkpt>
      <trkpt lat="41.606010000" lon="1.869227000">
        <ele>210.19</ele>
        <time>2014-03-23T09:58:43Z</time>
      </trkpt>
      <trkpt lat="41.606071000" lon="1.868735000">
        <ele>212.59</ele>
        <time>2014-03-23T09:58:56Z</time>
      </trkpt>
      <trkpt lat="41.606068000" lon="1.868664000">
        <ele>213.55</ele>
        <time>2014-03-23T09:58:58Z</time>
      </trkpt>
      <trkpt lat="41.606003000" lon="1.868140000">
        <ele>215.47</ele>
        <time>2014-03-23T09:59:11Z</time>
      </trkpt>
      <trkpt lat="41.605976000" lon="1.868020000">
        <ele>215.47</ele>
        <time>2014-03-23T09:59:14Z</time>
      </trkpt>
      <trkpt lat="41.605942000" lon="1.867916000">
        <ele>216.43</ele>
        <time>2014-03-23T09:59:18Z</time>
      </trkpt>
      <trkpt lat="41.605927000" lon="1.867808000">
        <ele>218.84</ele>
        <time>2014-03-23T09:59:22Z</time>
      </trkpt>
      <trkpt lat="41.605885000" lon="1.867542000">
        <ele>222.20</ele>
        <time>2014-03-23T09:59:32Z</time>
      </trkpt>
      <trkpt lat="41.605881000" lon="1.867514000">
        <ele>222.20</ele>
        <time>2014-03-23T09:59:33Z</time>
      </trkpt>
      <trkpt lat="41.605904000" lon="1.867403000">
        <ele>223.16</ele>
        <time>2014-03-23T09:59:37Z</time>
      </trkpt>
      <trkpt lat="41.605923000" lon="1.867348000">
        <ele>224.12</ele>
        <time>2014-03-23T09:59:39Z</time>
      </trkpt>
      <trkpt lat="41.606186000" lon="1.866958000">
        <ele>225.09</ele>
        <time>2014-03-23T09:59:54Z</time>
      </trkpt>
      <trkpt lat="41.606380000" lon="1.866626000">
        <ele>227.49</ele>
        <time>2014-03-23T10:00:06Z</time>
      </trkpt>
      <trkpt lat="41.606541000" lon="1.866245000">
        <ele>230.37</ele>
        <time>2014-03-23T10:00:20Z</time>
      </trkpt>
      <trkpt lat="41.606670000" lon="1.866099000">
        <ele>233.74</ele>
        <time>2014-03-23T10:00:28Z</time>
      </trkpt>
      <trkpt lat="41.606731000" lon="1.866016000">
        <ele>233.74</ele>
        <time>2014-03-23T10:00:32Z</time>
      </trkpt>
      <trkpt lat="41.606773000" lon="1.865671000">
        <ele>237.58</ele>
        <time>2014-03-23T10:00:45Z</time>
      </trkpt>
      <trkpt lat="41.606834000" lon="1.865320000">
        <ele>238.54</ele>
        <time>2014-03-23T10:00:56Z</time>
      </trkpt>
      <trkpt lat="41.607002000" lon="1.864839000">
        <ele>239.51</ele>
        <time>2014-03-23T10:01:10Z</time>
      </trkpt>
      <trkpt lat="41.607059000" lon="1.864830000">
        <ele>240.47</ele>
        <time>2014-03-23T10:01:12Z</time>
      </trkpt>
      <trkpt lat="41.607300000" lon="1.865122000">
        <ele>242.87</ele>
        <time>2014-03-23T10:01:23Z</time>
      </trkpt>
      <trkpt lat="41.607548000" lon="1.864958000">
        <ele>245.75</ele>
        <time>2014-03-23T10:01:33Z</time>
      </trkpt>
      <trkpt lat="41.607780000" lon="1.864796000">
        <ele>248.64</ele>
        <time>2014-03-23T10:01:43Z</time>
      </trkpt>
      <trkpt lat="41.608028000" lon="1.864529000">
        <ele>249.60</ele>
        <time>2014-03-23T10:01:54Z</time>
      </trkpt>
      <trkpt lat="41.608284000" lon="1.864350000">
        <ele>249.12</ele>
        <time>2014-03-23T10:02:02Z</time>
      </trkpt>
      <trkpt lat="41.608566000" lon="1.864552000">
        <ele>250.08</ele>
        <time>2014-03-23T10:02:12Z</time>
      </trkpt>
      <trkpt lat="41.608624000" lon="1.864771000">
        <ele>252.48</ele>
        <time>2014-03-23T10:02:18Z</time>
      </trkpt>
      <trkpt lat="41.608719000" lon="1.865015000">
        <ele>252.48</ele>
        <time>2014-03-23T10:02:25Z</time>
      </trkpt>
      <trkpt lat="41.608608000" lon="1.865360000">
        <ele>251.04</ele>
        <time>2014-03-23T10:02:31Z</time>
      </trkpt>
      <trkpt lat="41.608280000" lon="1.865892000">
        <ele>252.48</ele>
        <time>2014-03-23T10:02:44Z</time>
      </trkpt>
      <trkpt lat="41.608051000" lon="1.866129000">
        <ele>255.37</ele>
        <time>2014-03-23T10:02:55Z</time>
      </trkpt>
      <trkpt lat="41.608101000" lon="1.866311000">
        <ele>256.81</ele>
        <time>2014-03-23T10:03:01Z</time>
      </trkpt>
      <trkpt lat="41.608387000" lon="1.866437000">
        <ele>258.73</ele>
        <time>2014-03-23T10:03:14Z</time>
      </trkpt>
      <trkpt lat="41.608456000" lon="1.866077000">
        <ele>262.58</ele>
        <time>2014-03-23T10:03:25Z</time>
      </trkpt>
      <trkpt lat="41.608658000" lon="1.865831000">
        <ele>263.54</ele>
        <time>2014-03-23T10:03:37Z</time>
      </trkpt>
      <trkpt lat="41.608833000" lon="1.865766000">
        <ele>264.02</ele>
        <time>2014-03-23T10:03:43Z</time>
      </trkpt>
      <trkpt lat="41.609081000" lon="1.865565000">
        <ele>263.06</ele>
        <time>2014-03-23T10:03:53Z</time>
      </trkpt>
      <trkpt lat="41.609108000" lon="1.864994000">
        <ele>263.06</ele>
        <time>2014-03-23T10:04:05Z</time>
      </trkpt>
      <trkpt lat="41.609077000" lon="1.864517000">
        <ele>265.46</ele>
        <time>2014-03-23T10:04:19Z</time>
      </trkpt>
      <trkpt lat="41.609138000" lon="1.864215000">
        <ele>265.46</ele>
        <time>2014-03-23T10:04:29Z</time>
      </trkpt>
      <trkpt lat="41.609306000" lon="1.863896000">
        <ele>265.94</ele>
        <time>2014-03-23T10:04:40Z</time>
      </trkpt>
      <trkpt lat="41.609367000" lon="1.863575000">
        <ele>265.94</ele>
        <time>2014-03-23T10:04:50Z</time>
      </trkpt>
      <trkpt lat="41.609348000" lon="1.863071000">
        <ele>266.42</ele>
        <time>2014-03-23T10:05:02Z</time>
      </trkpt>
      <trkpt lat="41.609283000" lon="1.862628000">
        <ele>265.94</ele>
        <time>2014-03-23T10:05:12Z</time>
      </trkpt>
      <trkpt lat="41.609184000" lon="1.862224000">
        <ele>266.90</ele>
        <time>2014-03-23T10:05:23Z</time>
      </trkpt>
      <trkpt lat="41.609245000" lon="1.861862000">
        <ele>267.86</ele>
        <time>2014-03-23T10:05:32Z</time>
      </trkpt>
      <trkpt lat="41.609337000" lon="1.861224000">
        <ele>268.83</ele>
        <time>2014-03-23T10:05:46Z</time>
      </trkpt>
      <trkpt lat="41.609344000" lon="1.861158000">
        <ele>269.79</ele>
        <time>2014-03-23T10:05:48Z</time>
      </trkpt>
      <trkpt lat="41.609383000" lon="1.860767000">
        <ele>268.35</ele>
        <time>2014-03-23T10:05:59Z</time>
      </trkpt>
      <trkpt lat="41.609497000" lon="1.860487000">
        <ele>267.38</ele>
        <time>2014-03-23T10:06:07Z</time>
      </trkpt>
      <trkpt lat="41.609604000" lon="1.860442000">
        <ele>265.46</ele>
        <time>2014-03-23T10:06:10Z</time>
      </trkpt>
      <trkpt lat="41.609646000" lon="1.860436000">
        <ele>265.46</ele>
        <time>2014-03-23T10:06:11Z</time>
      </trkpt>
      <trkpt lat="41.609852000" lon="1.860285000">
        <ele>263.06</ele>
        <time>2014-03-23T10:06:17Z</time>
      </trkpt>
      <trkpt lat="41.610027000" lon="1.860298000">
        <ele>262.58</ele>
        <time>2014-03-23T10:06:22Z</time>
      </trkpt>
      <trkpt lat="41.610126000" lon="1.860238000">
        <ele>261.14</ele>
        <time>2014-03-23T10:06:25Z</time>
      </trkpt>
      <trkpt lat="41.610149000" lon="1.860134000">
        <ele>259.69</ele>
        <time>2014-03-23T10:06:28Z</time>
      </trkpt>
      <trkpt lat="41.609982000" lon="1.860126000">
        <ele>259.69</ele>
        <time>2014-03-23T10:06:36Z</time>
      </trkpt>
      <trkpt lat="41.609890000" lon="1.860107000">
        <ele>259.69</ele>
        <time>2014-03-23T10:06:50Z</time>
      </trkpt>
      <trkpt lat="41.609890000" lon="1.860107000">
        <ele>259.69</ele>
        <time>2014-03-23T10:07:10Z</time>
      </trkpt>
      <trkpt lat="41.609886000" lon="1.860121000">
        <ele>260.17</ele>
        <time>2014-03-23T10:07:35Z</time>
      </trkpt>
      <trkpt lat="41.609886000" lon="1.860120000">
        <ele>260.17</ele>
        <time>2014-03-23T10:07:53Z</time>
      </trkpt>
      <trkpt lat="41.609886000" lon="1.860120000">
        <ele>260.65</ele>
        <time>2014-03-23T10:07:56Z</time>
      </trkpt>
      <trkpt lat="41.610096000" lon="1.860109000">
        <ele>259.69</ele>
        <time>2014-03-23T10:08:05Z</time>
      </trkpt>
      <trkpt lat="41.610222000" lon="1.860141000">
        <ele>260.17</ele>
        <time>2014-03-23T10:08:10Z</time>
      </trkpt>
      <trkpt lat="41.610291000" lon="1.860159000">
        <ele>260.17</ele>
        <time>2014-03-23T10:08:13Z</time>
      </trkpt>
      <trkpt lat="41.610439000" lon="1.860109000">
        <ele>258.73</ele>
        <time>2014-03-23T10:08:19Z</time>
      </trkpt>
      <trkpt lat="41.610691000" lon="1.860080000">
        <ele>257.29</ele>
        <time>2014-03-23T10:08:26Z</time>
      </trkpt>
      <trkpt lat="41.610813000" lon="1.859987000">
        <ele>256.81</ele>
        <time>2014-03-23T10:08:30Z</time>
      </trkpt>
      <trkpt lat="41.611294000" lon="1.859524000">
        <ele>256.33</ele>
        <time>2014-03-23T10:08:45Z</time>
      </trkpt>
      <trkpt lat="41.611374000" lon="1.859473000">
        <ele>255.37</ele>
        <time>2014-03-23T10:08:47Z</time>
      </trkpt>
      <trkpt lat="41.611588000" lon="1.859318000">
        <ele>254.89</ele>
        <time>2014-03-23T10:08:52Z</time>
      </trkpt>
      <trkpt lat="41.612087000" lon="1.859313000">
        <ele>255.37</ele>
        <time>2014-03-23T10:09:04Z</time>
      </trkpt>
      <trkpt lat="41.612209000" lon="1.859328000">
        <ele>255.37</ele>
        <time>2014-03-23T10:09:07Z</time>
      </trkpt>
      <trkpt lat="41.612362000" lon="1.859331000">
        <ele>255.85</ele>
        <time>2014-03-23T10:09:11Z</time>
      </trkpt>
      <trkpt lat="41.612782000" lon="1.859140000">
        <ele>252.48</ele>
        <time>2014-03-23T10:09:19Z</time>
      </trkpt>
      <trkpt lat="41.613010000" lon="1.859029000">
        <ele>248.64</ele>
        <time>2014-03-23T10:09:22Z</time>
      </trkpt>
      <trkpt lat="41.613243000" lon="1.858900000">
        <ele>245.27</ele>
        <time>2014-03-23T10:09:25Z</time>
      </trkpt>
      <trkpt lat="41.613430000" lon="1.858858000">
        <ele>243.35</ele>
        <time>2014-03-23T10:09:28Z</time>
      </trkpt>
      <trkpt lat="41.613754000" lon="1.858854000">
        <ele>239.99</ele>
        <time>2014-03-23T10:09:33Z</time>
      </trkpt>
      <trkpt lat="41.613914000" lon="1.858811000">
        <ele>238.06</ele>
        <time>2014-03-23T10:09:35Z</time>
      </trkpt>
      <trkpt lat="41.614258000" lon="1.858776000">
        <ele>235.18</ele>
        <time>2014-03-23T10:09:39Z</time>
      </trkpt>
      <trkpt lat="41.614555000" lon="1.858652000">
        <ele>233.74</ele>
        <time>2014-03-23T10:09:43Z</time>
      </trkpt>
      <trkpt lat="41.614941000" lon="1.858560000">
        <ele>229.89</ele>
        <time>2014-03-23T10:09:48Z</time>
      </trkpt>
      <trkpt lat="41.615246000" lon="1.858336000">
        <ele>226.05</ele>
        <time>2014-03-23T10:09:54Z</time>
      </trkpt>
      <trkpt lat="41.615353000" lon="1.858430000">
        <ele>222.20</ele>
        <time>2014-03-23T10:09:59Z</time>
      </trkpt>
      <trkpt lat="41.615353000" lon="1.858562000">
        <ele>221.24</ele>
        <time>2014-03-23T10:10:01Z</time>
      </trkpt>
      <trkpt lat="41.615402000" lon="1.858806000">
        <ele>218.36</ele>
        <time>2014-03-23T10:10:05Z</time>
      </trkpt>
      <trkpt lat="41.615459000" lon="1.858764000">
        <ele>216.91</ele>
        <time>2014-03-23T10:10:12Z</time>
      </trkpt>
      <trkpt lat="41.615623000" lon="1.858551000">
        <ele>213.55</ele>
        <time>2014-03-23T10:10:18Z</time>
      </trkpt>
      <trkpt lat="41.615772000" lon="1.858388000">
        <ele>212.59</ele>
        <time>2014-03-23T10:10:22Z</time>
      </trkpt>
      <trkpt lat="41.615837000" lon="1.858297000">
        <ele>211.63</ele>
        <time>2014-03-23T10:10:24Z</time>
      </trkpt>
      <trkpt lat="41.615871000" lon="1.858247000">
        <ele>211.15</ele>
        <time>2014-03-23T10:10:25Z</time>
      </trkpt>
      <trkpt lat="41.615997000" lon="1.857975000">
        <ele>209.70</ele>
        <time>2014-03-23T10:10:30Z</time>
      </trkpt>
      <trkpt lat="41.616028000" lon="1.857867000">
        <ele>208.26</ele>
        <time>2014-03-23T10:10:32Z</time>
      </trkpt>
      <trkpt lat="41.616039000" lon="1.857709000">
        <ele>206.82</ele>
        <time>2014-03-23T10:10:35Z</time>
      </trkpt>
      <trkpt lat="41.615993000" lon="1.857610000">
        <ele>205.86</ele>
        <time>2014-03-23T10:10:37Z</time>
      </trkpt>
      <trkpt lat="41.615936000" lon="1.857377000">
        <ele>204.42</ele>
        <time>2014-03-23T10:10:41Z</time>
      </trkpt>
      <trkpt lat="41.615925000" lon="1.857302000">
        <ele>203.94</ele>
        <time>2014-03-23T10:10:42Z</time>
      </trkpt>
      <trkpt lat="41.616169000" lon="1.856827000">
        <ele>202.01</ele>
        <time>2014-03-23T10:10:51Z</time>
      </trkpt>
      <trkpt lat="41.616222000" lon="1.856800000">
        <ele>201.53</ele>
        <time>2014-03-23T10:10:52Z</time>
      </trkpt>
      <trkpt lat="41.616585000" lon="1.856664000">
        <ele>200.09</ele>
        <time>2014-03-23T10:10:59Z</time>
      </trkpt>
      <trkpt lat="41.616749000" lon="1.856644000">
        <ele>198.17</ele>
        <time>2014-03-23T10:11:02Z</time>
      </trkpt>
      <trkpt lat="41.616863000" lon="1.856614000">
        <ele>197.21</ele>
        <time>2014-03-23T10:11:04Z</time>
      </trkpt>
      <trkpt lat="41.617023000" lon="1.856409000">
        <ele>196.73</ele>
        <time>2014-03-23T10:11:10Z</time>
      </trkpt>
      <trkpt lat="41.617111000" lon="1.856309000">
        <ele>193.36</ele>
        <time>2014-03-23T10:11:15Z</time>
      </trkpt>
      <trkpt lat="41.617111000" lon="1.856251000">
        <ele>191.44</ele>
        <time>2014-03-23T10:11:17Z</time>
      </trkpt>
      <trkpt lat="41.617039000" lon="1.856156000">
        <ele>190.96</ele>
        <time>2014-03-23T10:11:21Z</time>
      </trkpt>
      <trkpt lat="41.616875000" lon="1.855777000">
        <ele>190.96</ele>
        <time>2014-03-23T10:11:32Z</time>
      </trkpt>
      <trkpt lat="41.616779000" lon="1.855621000">
        <ele>190.00</ele>
        <time>2014-03-23T10:11:36Z</time>
      </trkpt>
      <trkpt lat="41.616726000" lon="1.855523000">
        <ele>189.52</ele>
        <time>2014-03-23T10:11:38Z</time>
      </trkpt>
      <trkpt lat="41.616653000" lon="1.855220000">
        <ele>188.56</ele>
        <time>2014-03-23T10:11:43Z</time>
      </trkpt>
      <trkpt lat="41.616581000" lon="1.854997000">
        <ele>187.11</ele>
        <time>2014-03-23T10:11:47Z</time>
      </trkpt>
      <trkpt lat="41.616520000" lon="1.854832000">
        <ele>186.63</ele>
        <time>2014-03-23T10:11:50Z</time>
      </trkpt>
      <trkpt lat="41.616405000" lon="1.854622000">
        <ele>186.63</ele>
        <time>2014-03-23T10:11:54Z</time>
      </trkpt>
      <trkpt lat="41.616257000" lon="1.854442000">
        <ele>186.63</ele>
        <time>2014-03-23T10:11:58Z</time>
      </trkpt>
      <trkpt lat="41.615891000" lon="1.854064000">
        <ele>186.15</ele>
        <time>2014-03-23T10:12:08Z</time>
      </trkpt>
      <trkpt lat="41.615829000" lon="1.853955000">
        <ele>186.15</ele>
        <time>2014-03-23T10:12:10Z</time>
      </trkpt>
      <trkpt lat="41.615768000" lon="1.853862000">
        <ele>186.15</ele>
        <time>2014-03-23T10:12:12Z</time>
      </trkpt>
      <trkpt lat="41.615532000" lon="1.853713000">
        <ele>186.15</ele>
        <time>2014-03-23T10:12:18Z</time>
      </trkpt>
      <trkpt lat="41.615318000" lon="1.853501000">
        <ele>185.67</ele>
        <time>2014-03-23T10:12:24Z</time>
      </trkpt>
      <trkpt lat="41.615192000" lon="1.853326000">
        <ele>184.71</ele>
        <time>2014-03-23T10:12:28Z</time>
      </trkpt>
      <trkpt lat="41.615078000" lon="1.853195000">
        <ele>184.71</ele>
        <time>2014-03-23T10:12:31Z</time>
      </trkpt>
      <trkpt lat="41.614883000" lon="1.852977000">
        <ele>184.23</ele>
        <time>2014-03-23T10:12:41Z</time>
      </trkpt>
      <trkpt lat="41.614681000" lon="1.852744000">
        <ele>183.75</ele>
        <time>2014-03-23T10:12:50Z</time>
      </trkpt>
      <trkpt lat="41.614582000" lon="1.852689000">
        <ele>184.23</ele>
        <time>2014-03-23T10:12:53Z</time>
      </trkpt>
      <trkpt lat="41.614471000" lon="1.852430000">
        <ele>183.27</ele>
        <time>2014-03-23T10:13:00Z</time>
      </trkpt>
      <trkpt lat="41.614231000" lon="1.852043000">
        <ele>182.79</ele>
        <time>2014-03-23T10:13:11Z</time>
      </trkpt>
      <trkpt lat="41.614044000" lon="1.851839000">
        <ele>182.31</ele>
        <time>2014-03-23T10:13:19Z</time>
      </trkpt>
      <trkpt lat="41.613972000" lon="1.851449000">
        <ele>180.38</ele>
        <time>2014-03-23T10:13:29Z</time>
      </trkpt>
      <trkpt lat="41.613834000" lon="1.850955000">
        <ele>177.98</ele>
        <time>2014-03-23T10:13:39Z</time>
      </trkpt>
      <trkpt lat="41.613724000" lon="1.850664000">
        <ele>176.06</ele>
        <time>2014-03-23T10:13:45Z</time>
      </trkpt>
      <trkpt lat="41.613586000" lon="1.850389000">
        <ele>174.62</ele>
        <time>2014-03-23T10:13:51Z</time>
      </trkpt>
      <trkpt lat="41.613132000" lon="1.849831000">
        <ele>171.25</ele>
        <time>2014-03-23T10:14:05Z</time>
      </trkpt>
      <trkpt lat="41.613060000" lon="1.849756000">
        <ele>170.29</ele>
        <time>2014-03-23T10:14:07Z</time>
      </trkpt>
      <trkpt lat="41.612858000" lon="1.849566000">
        <ele>167.89</ele>
        <time>2014-03-23T10:14:12Z</time>
      </trkpt>
      <trkpt lat="41.612625000" lon="1.849391000">
        <ele>165.96</ele>
        <time>2014-03-23T10:14:17Z</time>
      </trkpt>
      <trkpt lat="41.612354000" lon="1.849231000">
        <ele>163.08</ele>
        <time>2014-03-23T10:14:22Z</time>
      </trkpt>
      <trkpt lat="41.611904000" lon="1.849026000">
        <ele>159.72</ele>
        <time>2014-03-23T10:14:31Z</time>
      </trkpt>
      <trkpt lat="41.611687000" lon="1.848939000">
        <ele>159.72</ele>
        <time>2014-03-23T10:14:35Z</time>
      </trkpt>
      <trkpt lat="41.611526000" lon="1.848816000">
        <ele>160.20</ele>
        <time>2014-03-23T10:14:39Z</time>
      </trkpt>
      <trkpt lat="41.611401000" lon="1.848611000">
        <ele>159.24</ele>
        <time>2014-03-23T10:14:43Z</time>
      </trkpt>
      <trkpt lat="41.611145000" lon="1.848486000">
        <ele>158.27</ele>
        <time>2014-03-23T10:14:49Z</time>
      </trkpt>
      <trkpt lat="41.610840000" lon="1.848706000">
        <ele>154.43</ele>
        <time>2014-03-23T10:14:56Z</time>
      </trkpt>
      <trkpt lat="41.610722000" lon="1.848729000">
        <ele>151.06</ele>
        <time>2014-03-23T10:15:03Z</time>
      </trkpt>
      <trkpt lat="41.610714000" lon="1.848623000">
        <ele>149.62</ele>
        <time>2014-03-23T10:15:06Z</time>
      </trkpt>
      <trkpt lat="41.610729000" lon="1.848490000">
        <ele>147.70</ele>
        <time>2014-03-23T10:15:10Z</time>
      </trkpt>
      <trkpt lat="41.610813000" lon="1.848376000">
        <ele>145.30</ele>
        <time>2014-03-23T10:15:14Z</time>
      </trkpt>
      <trkpt lat="41.610897000" lon="1.848267000">
        <ele>143.37</ele>
        <time>2014-03-23T10:15:17Z</time>
      </trkpt>
      <trkpt lat="41.610966000" lon="1.848066000">
        <ele>140.01</ele>
        <time>2014-03-23T10:15:21Z</time>
      </trkpt>
      <trkpt lat="41.610958000" lon="1.847893000">
        <ele>138.09</ele>
        <time>2014-03-23T10:15:24Z</time>
      </trkpt>
      <trkpt lat="41.610916000" lon="1.847719000">
        <ele>138.09</ele>
        <time>2014-03-23T10:15:27Z</time>
      </trkpt>
      <trkpt lat="41.610634000" lon="1.846772000">
        <ele>139.53</ele>
        <time>2014-03-23T10:15:44Z</time>
      </trkpt>
      <trkpt lat="41.610462000" lon="1.846169000">
        <ele>138.09</ele>
        <time>2014-03-23T10:15:55Z</time>
      </trkpt>
      <trkpt lat="41.610455000" lon="1.846112000">
        <ele>138.57</ele>
        <time>2014-03-23T10:16:00Z</time>
      </trkpt>
      <trkpt lat="41.610424000" lon="1.846069000">
        <ele>138.09</ele>
        <time>2014-03-23T10:16:02Z</time>
      </trkpt>
      <trkpt lat="41.610100000" lon="1.846088000">
        <ele>138.09</ele>
        <time>2014-03-23T10:16:11Z</time>
      </trkpt>
      <trkpt lat="41.609913000" lon="1.846181000">
        <ele>138.57</ele>
        <time>2014-03-23T10:16:16Z</time>
      </trkpt>
      <trkpt lat="41.609680000" lon="1.846319000">
        <ele>139.05</ele>
        <time>2014-03-23T10:16:22Z</time>
      </trkpt>
      <trkpt lat="41.609432000" lon="1.846457000">
        <ele>139.53</ele>
        <time>2014-03-23T10:16:28Z</time>
      </trkpt>
      <trkpt lat="41.609234000" lon="1.846573000">
        <ele>140.01</ele>
        <time>2014-03-23T10:16:33Z</time>
      </trkpt>
      <trkpt lat="41.608963000" lon="1.846692000">
        <ele>141.93</ele>
        <time>2014-03-23T10:16:40Z</time>
      </trkpt>
      <trkpt lat="41.608959000" lon="1.846576000">
        <ele>142.89</ele>
        <time>2014-03-23T10:16:45Z</time>
      </trkpt>
      <trkpt lat="41.609341000" lon="1.846455000">
        <ele>143.85</ele>
        <time>2014-03-23T10:16:58Z</time>
      </trkpt>
      <trkpt lat="41.609627000" lon="1.846225000">
        <ele>146.74</ele>
        <time>2014-03-23T10:17:10Z</time>
      </trkpt>
      <trkpt lat="41.609901000" lon="1.845805000">
        <ele>149.62</ele>
        <time>2014-03-23T10:17:24Z</time>
      </trkpt>
      <trkpt lat="41.610023000" lon="1.845246000">
        <ele>152.51</ele>
        <time>2014-03-23T10:17:38Z</time>
      </trkpt>
      <trkpt lat="41.609913000" lon="1.844895000">
        <ele>154.43</ele>
        <time>2014-03-23T10:17:48Z</time>
      </trkpt>
      <trkpt lat="41.609638000" lon="1.844414000">
        <ele>156.35</ele>
        <time>2014-03-23T10:18:02Z</time>
      </trkpt>
      <trkpt lat="41.609352000" lon="1.843948000">
        <ele>158.27</ele>
        <time>2014-03-23T10:18:17Z</time>
      </trkpt>
      <trkpt lat="41.609112000" lon="1.843472000">
        <ele>160.20</ele>
        <time>2014-03-23T10:18:32Z</time>
      </trkpt>
      <trkpt lat="41.609306000" lon="1.843121000">
        <ele>163.56</ele>
        <time>2014-03-23T10:18:44Z</time>
      </trkpt>
      <trkpt lat="41.609360000" lon="1.842787000">
        <ele>165.96</ele>
        <time>2014-03-23T10:18:55Z</time>
      </trkpt>
      <trkpt lat="41.609047000" lon="1.842486000">
        <ele>167.89</ele>
        <time>2014-03-23T10:19:08Z</time>
      </trkpt>
      <trkpt lat="41.609024000" lon="1.842464000">
        <ele>168.37</ele>
        <time>2014-03-23T10:19:09Z</time>
      </trkpt>
      <trkpt lat="41.609001000" lon="1.842198000">
        <ele>169.81</ele>
        <time>2014-03-23T10:19:16Z</time>
      </trkpt>
      <trkpt lat="41.609150000" lon="1.841817000">
        <ele>173.17</ele>
        <time>2014-03-23T10:19:28Z</time>
      </trkpt>
      <trkpt lat="41.609169000" lon="1.841434000">
        <ele>175.58</ele>
        <time>2014-03-23T10:19:39Z</time>
      </trkpt>
      <trkpt lat="41.609089000" lon="1.841253000">
        <ele>177.02</ele>
        <time>2014-03-23T10:19:45Z</time>
      </trkpt>
      <trkpt lat="41.608829000" lon="1.841074000">
        <ele>179.90</ele>
        <time>2014-03-23T10:19:56Z</time>
      </trkpt>
      <trkpt lat="41.608753000" lon="1.840867000">
        <ele>182.31</ele>
        <time>2014-03-23T10:20:03Z</time>
      </trkpt>
      <trkpt lat="41.608952000" lon="1.840671000">
        <ele>185.67</ele>
        <time>2014-03-23T10:20:15Z</time>
      </trkpt>
      <trkpt lat="41.609226000" lon="1.840502000">
        <ele>187.59</ele>
        <time>2014-03-23T10:20:28Z</time>
      </trkpt>
      <trkpt lat="41.609299000" lon="1.840054000">
        <ele>190.00</ele>
        <time>2014-03-23T10:20:42Z</time>
      </trkpt>
      <trkpt lat="41.609184000" lon="1.839693000">
        <ele>192.88</ele>
        <time>2014-03-23T10:20:54Z</time>
      </trkpt>
      <trkpt lat="41.608932000" lon="1.839373000">
        <ele>195.28</ele>
        <time>2014-03-23T10:21:07Z</time>
      </trkpt>
      <trkpt lat="41.608696000" lon="1.839048000">
        <ele>197.69</ele>
        <time>2014-03-23T10:21:20Z</time>
      </trkpt>
      <trkpt lat="41.608509000" lon="1.838720000">
        <ele>199.61</ele>
        <time>2014-03-23T10:21:32Z</time>
      </trkpt>
      <trkpt lat="41.608353000" lon="1.838440000">
        <ele>202.98</ele>
        <time>2014-03-23T10:21:42Z</time>
      </trkpt>
      <trkpt lat="41.608337000" lon="1.838409000">
        <ele>202.98</ele>
        <time>2014-03-23T10:21:43Z</time>
      </trkpt>
      <trkpt lat="41.608181000" lon="1.838112000">
        <ele>202.49</ele>
        <time>2014-03-23T10:21:54Z</time>
      </trkpt>
      <trkpt lat="41.607975000" lon="1.837729000">
        <ele>204.90</ele>
        <time>2014-03-23T10:22:08Z</time>
      </trkpt>
      <trkpt lat="41.607986000" lon="1.837307000">
        <ele>206.82</ele>
        <time>2014-03-23T10:22:20Z</time>
      </trkpt>
      <trkpt lat="41.608257000" lon="1.837292000">
        <ele>209.70</ele>
        <time>2014-03-23T10:22:29Z</time>
      </trkpt>
      <trkpt lat="41.608528000" lon="1.837103000">
        <ele>213.07</ele>
        <time>2014-03-23T10:22:40Z</time>
      </trkpt>
      <trkpt lat="41.608482000" lon="1.836628000">
        <ele>214.51</ele>
        <time>2014-03-23T10:22:52Z</time>
      </trkpt>
      <trkpt lat="41.608543000" lon="1.836281000">
        <ele>217.88</ele>
        <time>2014-03-23T10:23:02Z</time>
      </trkpt>
      <trkpt lat="41.608604000" lon="1.836138000">
        <ele>219.80</ele>
        <time>2014-03-23T10:23:07Z</time>
      </trkpt>
      <trkpt lat="41.608566000" lon="1.835737000">
        <ele>222.20</ele>
        <time>2014-03-23T10:23:19Z</time>
      </trkpt>
      <trkpt lat="41.608418000" lon="1.835304000">
        <ele>224.61</ele>
        <time>2014-03-23T10:23:32Z</time>
      </trkpt>
      <trkpt lat="41.608372000" lon="1.835134000">
        <ele>226.53</ele>
        <time>2014-03-23T10:23:37Z</time>
      </trkpt>
      <trkpt lat="41.608288000" lon="1.834588000">
        <ele>229.41</ele>
        <time>2014-03-23T10:23:53Z</time>
      </trkpt>
      <trkpt lat="41.608322000" lon="1.834137000">
        <ele>232.78</ele>
        <time>2014-03-23T10:24:06Z</time>
      </trkpt>
      <trkpt lat="41.608429000" lon="1.833748000">
        <ele>234.70</ele>
        <time>2014-03-23T10:24:18Z</time>
      </trkpt>
      <trkpt lat="41.608730000" lon="1.833397000">
        <ele>237.58</ele>
        <time>2014-03-23T10:24:33Z</time>
      </trkpt>
      <trkpt lat="41.608929000" lon="1.833644000">
        <ele>239.02</ele>
        <time>2014-03-23T10:24:43Z</time>
      </trkpt>
      <trkpt lat="41.608955000" lon="1.834063000">
        <ele>242.39</ele>
        <time>2014-03-23T10:24:55Z</time>
      </trkpt>
      <trkpt lat="41.609161000" lon="1.834363000">
        <ele>244.79</ele>
        <time>2014-03-23T10:25:08Z</time>
      </trkpt>
      <trkpt lat="41.609447000" lon="1.834472000">
        <ele>245.75</ele>
        <time>2014-03-23T10:25:20Z</time>
      </trkpt>
      <trkpt lat="41.609577000" lon="1.834688000">
        <ele>247.68</ele>
        <time>2014-03-23T10:25:28Z</time>
      </trkpt>
      <trkpt lat="41.609814000" lon="1.835043000">
        <ele>250.56</ele>
        <time>2014-03-23T10:25:42Z</time>
      </trkpt>
      <trkpt lat="41.610168000" lon="1.835414000">
        <ele>253.93</ele>
        <time>2014-03-23T10:25:59Z</time>
      </trkpt>
      <trkpt lat="41.610474000" lon="1.835438000">
        <ele>256.81</ele>
        <time>2014-03-23T10:26:12Z</time>
      </trkpt>
      <trkpt lat="41.610516000" lon="1.835425000">
        <ele>257.29</ele>
        <time>2014-03-23T10:26:14Z</time>
      </trkpt>
      <trkpt lat="41.610771000" lon="1.835361000">
        <ele>260.17</ele>
        <time>2014-03-23T10:26:27Z</time>
      </trkpt>
      <trkpt lat="41.611012000" lon="1.835309000">
        <ele>262.58</ele>
        <time>2014-03-23T10:26:39Z</time>
      </trkpt>
      <trkpt lat="41.611248000" lon="1.835296000">
        <ele>265.46</ele>
        <time>2014-03-23T10:26:51Z</time>
      </trkpt>
      <trkpt lat="41.611504000" lon="1.835442000">
        <ele>267.38</ele>
        <time>2014-03-23T10:27:05Z</time>
      </trkpt>
      <trkpt lat="41.611748000" lon="1.835738000">
        <ele>269.31</ele>
        <time>2014-03-23T10:27:20Z</time>
      </trkpt>
      <trkpt lat="41.611950000" lon="1.835999000">
        <ele>272.19</ele>
        <time>2014-03-23T10:27:33Z</time>
      </trkpt>
      <trkpt lat="41.612129000" lon="1.836322000">
        <ele>274.11</ele>
        <time>2014-03-23T10:27:46Z</time>
      </trkpt>
      <trkpt lat="41.612301000" lon="1.836687000">
        <ele>277.48</ele>
        <time>2014-03-23T10:27:59Z</time>
      </trkpt>
      <trkpt lat="41.612354000" lon="1.836846000">
        <ele>278.92</ele>
        <time>2014-03-23T10:28:04Z</time>
      </trkpt>
      <trkpt lat="41.612465000" lon="1.837207000">
        <ele>282.28</ele>
        <time>2014-03-23T10:28:15Z</time>
      </trkpt>
      <trkpt lat="41.612610000" lon="1.837556000">
        <ele>285.65</ele>
        <time>2014-03-23T10:28:27Z</time>
      </trkpt>
      <trkpt lat="41.612949000" lon="1.837602000">
        <ele>284.21</ele>
        <time>2014-03-23T10:28:40Z</time>
      </trkpt>
      <trkpt lat="41.613182000" lon="1.837879000">
        <ele>288.05</ele>
        <time>2014-03-23T10:28:52Z</time>
      </trkpt>
      <trkpt lat="41.613194000" lon="1.837909000">
        <ele>288.05</ele>
        <time>2014-03-23T10:28:53Z</time>
      </trkpt>
      <trkpt lat="41.613232000" lon="1.838040000">
        <ele>289.49</ele>
        <time>2014-03-23T10:28:57Z</time>
      </trkpt>
      <trkpt lat="41.613468000" lon="1.838274000">
        <ele>292.86</ele>
        <time>2014-03-23T10:29:10Z</time>
      </trkpt>
      <trkpt lat="41.613758000" lon="1.837956000">
        <ele>293.82</ele>
        <time>2014-03-23T10:29:24Z</time>
      </trkpt>
      <trkpt lat="41.613983000" lon="1.837618000">
        <ele>296.70</ele>
        <time>2014-03-23T10:29:37Z</time>
      </trkpt>
      <trkpt lat="41.614204000" lon="1.837371000">
        <ele>299.59</ele>
        <time>2014-03-23T10:29:48Z</time>
      </trkpt>
      <trkpt lat="41.614536000" lon="1.837339000">
        <ele>301.51</ele>
        <time>2014-03-23T10:30:01Z</time>
      </trkpt>
      <trkpt lat="41.614784000" lon="1.837339000">
        <ele>304.39</ele>
        <time>2014-03-23T10:30:11Z</time>
      </trkpt>
      <trkpt lat="41.615101000" lon="1.837468000">
        <ele>306.80</ele>
        <time>2014-03-23T10:30:26Z</time>
      </trkpt>
      <trkpt lat="41.615349000" lon="1.837657000">
        <ele>310.16</ele>
        <time>2014-03-23T10:30:39Z</time>
      </trkpt>
      <trkpt lat="41.615601000" lon="1.837831000">
        <ele>311.60</ele>
        <time>2014-03-23T10:30:52Z</time>
      </trkpt>
      <trkpt lat="41.615868000" lon="1.837990000">
        <ele>314.49</ele>
        <time>2014-03-23T10:31:05Z</time>
      </trkpt>
      <trkpt lat="41.616142000" lon="1.837852000">
        <ele>316.89</ele>
        <time>2014-03-23T10:31:19Z</time>
      </trkpt>
      <trkpt lat="41.616047000" lon="1.837408000">
        <ele>318.81</ele>
        <time>2014-03-23T10:31:32Z</time>
      </trkpt>
      <trkpt lat="41.615788000" lon="1.836998000">
        <ele>321.22</ele>
        <time>2014-03-23T10:31:47Z</time>
      </trkpt>
      <trkpt lat="41.615623000" lon="1.836489000">
        <ele>324.58</ele>
        <time>2014-03-23T10:32:02Z</time>
      </trkpt>
      <trkpt lat="41.615715000" lon="1.836038000">
        <ele>327.95</ele>
        <time>2014-03-23T10:32:15Z</time>
      </trkpt>
      <trkpt lat="41.615990000" lon="1.835732000">
        <ele>330.83</ele>
        <time>2014-03-23T10:32:28Z</time>
      </trkpt>
      <trkpt lat="41.616013000" lon="1.835710000">
        <ele>331.31</ele>
        <time>2014-03-23T10:32:29Z</time>
      </trkpt>
      <trkpt lat="41.616081000" lon="1.835378000">
        <ele>332.75</ele>
        <time>2014-03-23T10:32:39Z</time>
      </trkpt>
      <trkpt lat="41.615879000" lon="1.834946000">
        <ele>335.16</ele>
        <time>2014-03-23T10:32:52Z</time>
      </trkpt>
      <trkpt lat="41.615711000" lon="1.834592000">
        <ele>338.04</ele>
        <time>2014-03-23T10:33:03Z</time>
      </trkpt>
      <trkpt lat="41.615463000" lon="1.834128000">
        <ele>341.41</ele>
        <time>2014-03-23T10:33:18Z</time>
      </trkpt>
      <trkpt lat="41.615181000" lon="1.833751000">
        <ele>344.29</ele>
        <time>2014-03-23T10:33:32Z</time>
      </trkpt>
      <trkpt lat="41.614799000" lon="1.833399000">
        <ele>347.17</ele>
        <time>2014-03-23T10:33:48Z</time>
      </trkpt>
      <trkpt lat="41.614567000" lon="1.833119000">
        <ele>351.02</ele>
        <time>2014-03-23T10:34:00Z</time>
      </trkpt>
      <trkpt lat="41.614391000" lon="1.832729000">
        <ele>354.38</ele>
        <time>2014-03-23T10:34:13Z</time>
      </trkpt>
      <trkpt lat="41.614113000" lon="1.832341000">
        <ele>357.27</ele>
        <time>2014-03-23T10:34:28Z</time>
      </trkpt>
      <trkpt lat="41.613907000" lon="1.831957000">
        <ele>359.19</ele>
        <time>2014-03-23T10:34:41Z</time>
      </trkpt>
      <trkpt lat="41.614086000" lon="1.831636000">
        <ele>361.11</ele>
        <time>2014-03-23T10:34:52Z</time>
      </trkpt>
      <trkpt lat="41.614391000" lon="1.831513000">
        <ele>364.00</ele>
        <time>2014-03-23T10:35:03Z</time>
      </trkpt>
      <trkpt lat="41.614536000" lon="1.831465000">
        <ele>365.44</ele>
        <time>2014-03-23T10:35:08Z</time>
      </trkpt>
      <trkpt lat="41.614990000" lon="1.831358000">
        <ele>368.80</ele>
        <time>2014-03-23T10:35:24Z</time>
      </trkpt>
      <trkpt lat="41.615421000" lon="1.831465000">
        <ele>372.17</ele>
        <time>2014-03-23T10:35:39Z</time>
      </trkpt>
      <trkpt lat="41.615788000" lon="1.831325000">
        <ele>374.09</ele>
        <time>2014-03-23T10:35:52Z</time>
      </trkpt>
      <trkpt lat="41.616131000" lon="1.831112000">
        <ele>376.97</ele>
        <time>2014-03-23T10:36:06Z</time>
      </trkpt>
      <trkpt lat="41.616116000" lon="1.830796000">
        <ele>378.90</ele>
        <time>2014-03-23T10:36:16Z</time>
      </trkpt>
      <trkpt lat="41.615799000" lon="1.830514000">
        <ele>381.78</ele>
        <time>2014-03-23T10:36:30Z</time>
      </trkpt>
      <trkpt lat="41.615570000" lon="1.830357000">
        <ele>383.70</ele>
        <time>2014-03-23T10:36:41Z</time>
      </trkpt>
      <trkpt lat="41.615463000" lon="1.830253000">
        <ele>384.66</ele>
        <time>2014-03-23T10:36:47Z</time>
      </trkpt>
      <trkpt lat="41.615250000" lon="1.830063000">
        <ele>387.55</ele>
        <time>2014-03-23T10:37:00Z</time>
      </trkpt>
      <trkpt lat="41.615231000" lon="1.830052000">
        <ele>387.55</ele>
        <time>2014-03-23T10:37:01Z</time>
      </trkpt>
      <trkpt lat="41.614906000" lon="1.829896000">
        <ele>391.39</ele>
        <time>2014-03-23T10:37:16Z</time>
      </trkpt>
      <trkpt lat="41.614578000" lon="1.829665000">
        <ele>393.80</ele>
        <time>2014-03-23T10:37:30Z</time>
      </trkpt>
      <trkpt lat="41.614296000" lon="1.829272000">
        <ele>396.68</ele>
        <time>2014-03-23T10:37:44Z</time>
      </trkpt>
      <trkpt lat="41.614105000" lon="1.829024000">
        <ele>399.08</ele>
        <time>2014-03-23T10:37:53Z</time>
      </trkpt>
      <trkpt lat="41.613796000" lon="1.828661000">
        <ele>401.97</ele>
        <time>2014-03-23T10:38:07Z</time>
      </trkpt>
      <trkpt lat="41.613773000" lon="1.828639000">
        <ele>405.33</ele>
        <time>2014-03-23T10:38:08Z</time>
      </trkpt>
      <trkpt lat="41.613747000" lon="1.828617000">
        <ele>402.45</ele>
        <time>2014-03-23T10:38:09Z</time>
      </trkpt>
      <trkpt lat="41.613441000" lon="1.828321000">
        <ele>404.85</ele>
        <time>2014-03-23T10:38:23Z</time>
      </trkpt>
      <trkpt lat="41.613083000" lon="1.828059000">
        <ele>407.26</ele>
        <time>2014-03-23T10:38:38Z</time>
      </trkpt>
      <trkpt lat="41.612736000" lon="1.827765000">
        <ele>409.66</ele>
        <time>2014-03-23T10:38:53Z</time>
      </trkpt>
      <trkpt lat="41.612537000" lon="1.827326000">
        <ele>411.10</ele>
        <time>2014-03-23T10:39:07Z</time>
      </trkpt>
      <trkpt lat="41.612446000" lon="1.827091000">
        <ele>414.47</ele>
        <time>2014-03-23T10:39:14Z</time>
      </trkpt>
      <trkpt lat="41.612247000" lon="1.826618000">
        <ele>416.87</ele>
        <time>2014-03-23T10:39:29Z</time>
      </trkpt>
      <trkpt lat="41.612030000" lon="1.826282000">
        <ele>419.75</ele>
        <time>2014-03-23T10:39:42Z</time>
      </trkpt>
      <trkpt lat="41.611980000" lon="1.826192000">
        <ele>420.23</ele>
        <time>2014-03-23T10:39:46Z</time>
      </trkpt>
      <trkpt lat="41.611870000" lon="1.826023000">
        <ele>414.47</ele>
        <time>2014-03-23T10:39:54Z</time>
      </trkpt>
      <trkpt lat="41.611855000" lon="1.825999000">
        <ele>421.19</ele>
        <time>2014-03-23T10:39:55Z</time>
      </trkpt>
      <trkpt lat="41.611813000" lon="1.825927000">
        <ele>423.60</ele>
        <time>2014-03-23T10:39:58Z</time>
      </trkpt>
      <trkpt lat="41.611626000" lon="1.825584000">
        <ele>426.00</ele>
        <time>2014-03-23T10:40:13Z</time>
      </trkpt>
      <trkpt lat="41.611523000" lon="1.825289000">
        <ele>428.89</ele>
        <time>2014-03-23T10:40:24Z</time>
      </trkpt>
      <trkpt lat="41.611511000" lon="1.825225000">
        <ele>429.37</ele>
        <time>2014-03-23T10:40:26Z</time>
      </trkpt>
      <trkpt lat="41.611404000" lon="1.824883000">
        <ele>430.33</ele>
        <time>2014-03-23T10:40:37Z</time>
      </trkpt>
      <trkpt lat="41.611263000" lon="1.824588000">
        <ele>432.25</ele>
        <time>2014-03-23T10:40:48Z</time>
      </trkpt>
      <trkpt lat="41.610996000" lon="1.824424000">
        <ele>433.69</ele>
        <time>2014-03-23T10:41:00Z</time>
      </trkpt>
      <trkpt lat="41.610973000" lon="1.824415000">
        <ele>434.17</ele>
        <time>2014-03-23T10:41:01Z</time>
      </trkpt>
      <trkpt lat="41.610874000" lon="1.824413000">
        <ele>434.17</ele>
        <time>2014-03-23T10:41:05Z</time>
      </trkpt>
      <trkpt lat="41.610561000" lon="1.824248000">
        <ele>436.10</ele>
        <time>2014-03-23T10:41:19Z</time>
      </trkpt>
      <trkpt lat="41.610344000" lon="1.823920000">
        <ele>438.98</ele>
        <time>2014-03-23T10:41:33Z</time>
      </trkpt>
      <trkpt lat="41.610199000" lon="1.823600000">
        <ele>442.34</ele>
        <time>2014-03-23T10:41:44Z</time>
      </trkpt>
      <trkpt lat="41.610096000" lon="1.823152000">
        <ele>443.79</ele>
        <time>2014-03-23T10:41:58Z</time>
      </trkpt>
      <trkpt lat="41.610149000" lon="1.823007000">
        <ele>446.67</ele>
        <time>2014-03-23T10:42:03Z</time>
      </trkpt>
      <trkpt lat="41.610340000" lon="1.822896000">
        <ele>445.23</ele>
        <time>2014-03-23T10:42:13Z</time>
      </trkpt>
      <trkpt lat="41.610355000" lon="1.822903000">
        <ele>449.55</ele>
        <time>2014-03-23T10:42:14Z</time>
      </trkpt>
      <trkpt lat="41.610378000" lon="1.822914000">
        <ele>448.11</ele>
        <time>2014-03-23T10:42:15Z</time>
      </trkpt>
      <trkpt lat="41.610790000" lon="1.823123000">
        <ele>450.52</ele>
        <time>2014-03-23T10:42:31Z</time>
      </trkpt>
      <trkpt lat="41.611099000" lon="1.823065000">
        <ele>452.92</ele>
        <time>2014-03-23T10:42:42Z</time>
      </trkpt>
      <trkpt lat="41.611462000" lon="1.822985000">
        <ele>455.80</ele>
        <time>2014-03-23T10:42:55Z</time>
      </trkpt>
      <trkpt lat="41.611721000" lon="1.823057000">
        <ele>458.21</ele>
        <time>2014-03-23T10:43:04Z</time>
      </trkpt>
      <trkpt lat="41.611977000" lon="1.823244000">
        <ele>460.61</ele>
        <time>2014-03-23T10:43:14Z</time>
      </trkpt>
      <trkpt lat="41.612297000" lon="1.823529000">
        <ele>461.57</ele>
        <time>2014-03-23T10:43:28Z</time>
      </trkpt>
      <trkpt lat="41.612453000" lon="1.823603000">
        <ele>464.45</ele>
        <time>2014-03-23T10:43:34Z</time>
      </trkpt>
      <trkpt lat="41.612907000" lon="1.823736000">
        <ele>464.45</ele>
        <time>2014-03-23T10:43:50Z</time>
      </trkpt>
      <trkpt lat="41.613159000" lon="1.823795000">
        <ele>468.78</ele>
        <time>2014-03-23T10:43:59Z</time>
      </trkpt>
      <trkpt lat="41.613190000" lon="1.823801000">
        <ele>467.34</ele>
        <time>2014-03-23T10:44:00Z</time>
      </trkpt>
      <trkpt lat="41.613392000" lon="1.823660000">
        <ele>469.74</ele>
        <time>2014-03-23T10:44:10Z</time>
      </trkpt>
      <trkpt lat="41.613415000" lon="1.823627000">
        <ele>470.22</ele>
        <time>2014-03-23T10:44:12Z</time>
      </trkpt>
      <trkpt lat="41.613377000" lon="1.823466000">
        <ele>470.22</ele>
        <time>2014-03-23T10:44:21Z</time>
      </trkpt>
      <trkpt lat="41.613346000" lon="1.823444000">
        <ele>470.22</ele>
        <time>2014-03-23T10:44:23Z</time>
      </trkpt>
      <trkpt lat="41.613289000" lon="1.823340000">
        <ele>471.18</ele>
        <time>2014-03-23T10:44:28Z</time>
      </trkpt>
      <trkpt lat="41.613132000" lon="1.823229000">
        <ele>472.63</ele>
        <time>2014-03-23T10:44:37Z</time>
      </trkpt>
      <trkpt lat="41.613094000" lon="1.823150000">
        <ele>472.63</ele>
        <time>2014-03-23T10:44:42Z</time>
      </trkpt>
      <trkpt lat="41.613125000" lon="1.823070000">
        <ele>472.14</ele>
        <time>2014-03-23T10:44:47Z</time>
      </trkpt>
      <trkpt lat="41.613125000" lon="1.823008000">
        <ele>472.14</ele>
        <time>2014-03-23T10:44:50Z</time>
      </trkpt>
      <trkpt lat="41.613247000" lon="1.822750000">
        <ele>470.70</ele>
        <time>2014-03-23T10:45:00Z</time>
      </trkpt>
      <trkpt lat="41.613380000" lon="1.822474000">
        <ele>468.30</ele>
        <time>2014-03-23T10:45:07Z</time>
      </trkpt>
      <trkpt lat="41.613411000" lon="1.822040000">
        <ele>464.45</ele>
        <time>2014-03-23T10:45:16Z</time>
      </trkpt>
      <trkpt lat="41.613396000" lon="1.821829000">
        <ele>461.57</ele>
        <time>2014-03-23T10:45:19Z</time>
      </trkpt>
      <trkpt lat="41.613361000" lon="1.821618000">
        <ele>462.05</ele>
        <time>2014-03-23T10:45:22Z</time>
      </trkpt>
      <trkpt lat="41.613445000" lon="1.821303000">
        <ele>463.01</ele>
        <time>2014-03-23T10:45:29Z</time>
      </trkpt>
      <trkpt lat="41.613853000" lon="1.821354000">
        <ele>463.01</ele>
        <time>2014-03-23T10:45:41Z</time>
      </trkpt>
      <trkpt lat="41.613922000" lon="1.821371000">
        <ele>462.53</ele>
        <time>2014-03-23T10:45:43Z</time>
      </trkpt>
      <trkpt lat="41.614197000" lon="1.821424000">
        <ele>459.17</ele>
        <time>2014-03-23T10:45:50Z</time>
      </trkpt>
      <trkpt lat="41.614246000" lon="1.821440000">
        <ele>458.69</ele>
        <time>2014-03-23T10:45:51Z</time>
      </trkpt>
      <trkpt lat="41.614437000" lon="1.821577000">
        <ele>456.76</ele>
        <time>2014-03-23T10:45:55Z</time>
      </trkpt>
      <trkpt lat="41.614471000" lon="1.821632000">
        <ele>455.80</ele>
        <time>2014-03-23T10:45:56Z</time>
      </trkpt>
      <trkpt lat="41.614567000" lon="1.821779000">
        <ele>455.32</ele>
        <time>2014-03-23T10:45:59Z</time>
      </trkpt>
      <trkpt lat="41.614964000" lon="1.821995000">
        <ele>455.32</ele>
        <time>2014-03-23T10:46:11Z</time>
      </trkpt>
      <trkpt lat="41.615280000" lon="1.821680000">
        <ele>452.44</ele>
        <time>2014-03-23T10:46:21Z</time>
      </trkpt>
      <trkpt lat="41.615353000" lon="1.821609000">
        <ele>451.96</ele>
        <time>2014-03-23T10:46:23Z</time>
      </trkpt>
      <trkpt lat="41.615391000" lon="1.821576000">
        <ele>451.48</ele>
        <time>2014-03-23T10:46:24Z</time>
      </trkpt>
      <trkpt lat="41.615768000" lon="1.821309000">
        <ele>449.55</ele>
        <time>2014-03-23T10:46:33Z</time>
      </trkpt>
      <trkpt lat="41.615948000" lon="1.821396000">
        <ele>447.15</ele>
        <time>2014-03-23T10:46:37Z</time>
      </trkpt>
      <trkpt lat="41.616093000" lon="1.821463000">
        <ele>445.23</ele>
        <time>2014-03-23T10:46:40Z</time>
      </trkpt>
      <trkpt lat="41.616287000" lon="1.821290000">
        <ele>443.31</ele>
        <time>2014-03-23T10:46:45Z</time>
      </trkpt>
      <trkpt lat="41.616276000" lon="1.820840000">
        <ele>439.46</ele>
        <time>2014-03-23T10:46:50Z</time>
      </trkpt>
      <trkpt lat="41.616379000" lon="1.820551000">
        <ele>436.10</ele>
        <time>2014-03-23T10:46:53Z</time>
      </trkpt>
      <trkpt lat="41.616600000" lon="1.820402000">
        <ele>434.65</ele>
        <time>2014-03-23T10:46:56Z</time>
      </trkpt>
      <trkpt lat="41.616951000" lon="1.820205000">
        <ele>430.81</ele>
        <time>2014-03-23T10:47:00Z</time>
      </trkpt>
      <trkpt lat="41.617043000" lon="1.820165000">
        <ele>429.85</ele>
        <time>2014-03-23T10:47:01Z</time>
      </trkpt>
      <trkpt lat="41.617348000" lon="1.819799000">
        <ele>425.04</ele>
        <time>2014-03-23T10:47:06Z</time>
      </trkpt>
      <trkpt lat="41.617393000" lon="1.819541000">
        <ele>421.68</ele>
        <time>2014-03-23T10:47:09Z</time>
      </trkpt>
      <trkpt lat="41.617336000" lon="1.819414000">
        <ele>420.71</ele>
        <time>2014-03-23T10:47:11Z</time>
      </trkpt>
      <trkpt lat="41.617153000" lon="1.818644000">
        <ele>417.35</ele>
        <time>2014-03-23T10:47:20Z</time>
      </trkpt>
      <trkpt lat="41.617081000" lon="1.818355000">
        <ele>413.98</ele>
        <time>2014-03-23T10:47:23Z</time>
      </trkpt>
      <trkpt lat="41.617035000" lon="1.818275000">
        <ele>413.98</ele>
        <time>2014-03-23T10:47:24Z</time>
      </trkpt>
      <trkpt lat="41.616898000" lon="1.817739000">
        <ele>409.66</ele>
        <time>2014-03-23T10:47:30Z</time>
      </trkpt>
      <trkpt lat="41.616928000" lon="1.817644000">
        <ele>409.66</ele>
        <time>2014-03-23T10:47:31Z</time>
      </trkpt>
      <trkpt lat="41.616974000" lon="1.817562000">
        <ele>408.70</ele>
        <time>2014-03-23T10:47:32Z</time>
      </trkpt>
      <trkpt lat="41.617149000" lon="1.817238000">
        <ele>407.26</ele>
        <time>2014-03-23T10:47:36Z</time>
      </trkpt>
      <trkpt lat="41.617168000" lon="1.817141000">
        <ele>406.29</ele>
        <time>2014-03-23T10:47:37Z</time>
      </trkpt>
      <trkpt lat="41.617191000" lon="1.816967000">
        <ele>405.81</ele>
        <time>2014-03-23T10:47:39Z</time>
      </trkpt>
      <trkpt lat="41.617397000" lon="1.816823000">
        <ele>405.81</ele>
        <time>2014-03-23T10:47:45Z</time>
      </trkpt>
      <trkpt lat="41.617634000" lon="1.817212000">
        <ele>404.85</ele>
        <time>2014-03-23T10:47:54Z</time>
      </trkpt>
      <trkpt lat="41.617756000" lon="1.817495000">
        <ele>404.37</ele>
        <time>2014-03-23T10:47:58Z</time>
      </trkpt>
      <trkpt lat="41.618172000" lon="1.817817000">
        <ele>403.89</ele>
        <time>2014-03-23T10:48:07Z</time>
      </trkpt>
      <trkpt lat="41.618412000" lon="1.817893000">
        <ele>402.93</ele>
        <time>2014-03-23T10:48:11Z</time>
      </trkpt>
      <trkpt lat="41.618683000" lon="1.818084000">
        <ele>404.85</ele>
        <time>2014-03-23T10:48:17Z</time>
      </trkpt>
      <trkpt lat="41.618916000" lon="1.818663000">
        <ele>406.77</ele>
        <time>2014-03-23T10:48:30Z</time>
      </trkpt>
      <trkpt lat="41.618961000" lon="1.818748000">
        <ele>406.77</ele>
        <time>2014-03-23T10:48:32Z</time>
      </trkpt>
      <trkpt lat="41.619156000" lon="1.819351000">
        <ele>409.66</ele>
        <time>2014-03-23T10:48:47Z</time>
      </trkpt>
      <trkpt lat="41.619297000" lon="1.819809000">
        <ele>412.54</ele>
        <time>2014-03-23T10:49:01Z</time>
      </trkpt>
      <trkpt lat="41.619389000" lon="1.820275000">
        <ele>414.47</ele>
        <time>2014-03-23T10:49:14Z</time>
      </trkpt>
      <trkpt lat="41.619503000" lon="1.820765000">
        <ele>416.87</ele>
        <time>2014-03-23T10:49:27Z</time>
      </trkpt>
      <trkpt lat="41.619652000" lon="1.821066000">
        <ele>416.87</ele>
        <time>2014-03-23T10:49:40Z</time>
      </trkpt>
      <trkpt lat="41.619640000" lon="1.821131000">
        <ele>416.87</ele>
        <time>2014-03-23T10:49:52Z</time>
      </trkpt>
      <trkpt lat="41.619644000" lon="1.821116000">
        <ele>416.87</ele>
        <time>2014-03-23T10:50:04Z</time>
      </trkpt>
      <trkpt lat="41.619648000" lon="1.821105000">
        <ele>417.35</ele>
        <time>2014-03-23T10:50:19Z</time>
      </trkpt>
      <trkpt lat="41.619652000" lon="1.821104000">
        <ele>416.87</ele>
        <time>2014-03-23T10:51:03Z</time>
      </trkpt>
      <trkpt lat="41.619652000" lon="1.821100000">
        <ele>417.35</ele>
        <time>2014-03-23T10:51:41Z</time>
      </trkpt>
      <trkpt lat="41.619644000" lon="1.821077000">
        <ele>417.35</ele>
        <time>2014-03-23T10:52:16Z</time>
      </trkpt>
      <trkpt lat="41.619659000" lon="1.821058000">
        <ele>417.35</ele>
        <time>2014-03-23T10:52:26Z</time>
      </trkpt>
      <trkpt lat="41.619663000" lon="1.821055000">
        <ele>417.35</ele>
        <time>2014-03-23T10:52:35Z</time>
      </trkpt>
      <trkpt lat="41.619789000" lon="1.821039000">
        <ele>415.43</ele>
        <time>2014-03-23T10:52:41Z</time>
      </trkpt>
      <trkpt lat="41.619934000" lon="1.820842000">
        <ele>412.06</ele>
        <time>2014-03-23T10:52:46Z</time>
      </trkpt>
      <trkpt lat="41.620075000" lon="1.820580000">
        <ele>407.74</ele>
        <time>2014-03-23T10:52:50Z</time>
      </trkpt>
      <trkpt lat="41.620113000" lon="1.820517000">
        <ele>406.77</ele>
        <time>2014-03-23T10:52:51Z</time>
      </trkpt>
      <trkpt lat="41.620193000" lon="1.820412000">
        <ele>405.81</ele>
        <time>2014-03-23T10:52:53Z</time>
      </trkpt>
      <trkpt lat="41.620262000" lon="1.820362000">
        <ele>404.37</ele>
        <time>2014-03-23T10:52:55Z</time>
      </trkpt>
      <trkpt lat="41.620304000" lon="1.820359000">
        <ele>403.89</ele>
        <time>2014-03-23T10:53:01Z</time>
      </trkpt>
      <trkpt lat="41.620327000" lon="1.820435000">
        <ele>402.93</ele>
        <time>2014-03-23T10:53:05Z</time>
      </trkpt>
      <trkpt lat="41.620300000" lon="1.820779000">
        <ele>399.57</ele>
        <time>2014-03-23T10:53:14Z</time>
      </trkpt>
      <trkpt lat="41.620243000" lon="1.820990000">
        <ele>396.20</ele>
        <time>2014-03-23T10:53:20Z</time>
      </trkpt>
      <trkpt lat="41.620152000" lon="1.821219000">
        <ele>392.84</ele>
        <time>2014-03-23T10:53:25Z</time>
      </trkpt>
      <trkpt lat="41.620106000" lon="1.821315000">
        <ele>391.87</ele>
        <time>2014-03-23T10:53:27Z</time>
      </trkpt>
      <trkpt lat="41.620007000" lon="1.821573000">
        <ele>388.99</ele>
        <time>2014-03-23T10:53:33Z</time>
      </trkpt>
      <trkpt lat="41.619934000" lon="1.821845000">
        <ele>385.63</ele>
        <time>2014-03-23T10:53:39Z</time>
      </trkpt>
      <trkpt lat="41.619904000" lon="1.822039000">
        <ele>381.78</ele>
        <time>2014-03-23T10:53:43Z</time>
      </trkpt>
      <trkpt lat="41.619896000" lon="1.822082000">
        <ele>381.30</ele>
        <time>2014-03-23T10:53:44Z</time>
      </trkpt>
      <trkpt lat="41.619839000" lon="1.822291000">
        <ele>378.90</ele>
        <time>2014-03-23T10:53:49Z</time>
      </trkpt>
      <trkpt lat="41.619747000" lon="1.822338000">
        <ele>377.45</ele>
        <time>2014-03-23T10:53:52Z</time>
      </trkpt>
      <trkpt lat="41.619499000" lon="1.822159000">
        <ele>374.57</ele>
        <time>2014-03-23T10:53:58Z</time>
      </trkpt>
      <trkpt lat="41.619381000" lon="1.822017000">
        <ele>374.09</ele>
        <time>2014-03-23T10:54:01Z</time>
      </trkpt>
      <trkpt lat="41.619240000" lon="1.821903000">
        <ele>371.69</ele>
        <time>2014-03-23T10:54:04Z</time>
      </trkpt>
      <trkpt lat="41.618946000" lon="1.821504000">
        <ele>367.84</ele>
        <time>2014-03-23T10:54:12Z</time>
      </trkpt>
      <trkpt lat="41.618904000" lon="1.821348000">
        <ele>366.40</ele>
        <time>2014-03-23T10:54:15Z</time>
      </trkpt>
      <trkpt lat="41.618881000" lon="1.821298000">
        <ele>365.44</ele>
        <time>2014-03-23T10:54:16Z</time>
      </trkpt>
      <trkpt lat="41.618828000" lon="1.821202000">
        <ele>364.48</ele>
        <time>2014-03-23T10:54:18Z</time>
      </trkpt>
      <trkpt lat="41.618774000" lon="1.821031000">
        <ele>363.04</ele>
        <time>2014-03-23T10:54:21Z</time>
      </trkpt>
      <trkpt lat="41.618698000" lon="1.820675000">
        <ele>361.11</ele>
        <time>2014-03-23T10:54:27Z</time>
      </trkpt>
      <trkpt lat="41.618580000" lon="1.820245000">
        <ele>357.75</ele>
        <time>2014-03-23T10:54:35Z</time>
      </trkpt>
      <trkpt lat="41.618488000" lon="1.820046000">
        <ele>355.83</ele>
        <time>2014-03-23T10:54:39Z</time>
      </trkpt>
      <trkpt lat="41.618443000" lon="1.819851000">
        <ele>353.90</ele>
        <time>2014-03-23T10:54:42Z</time>
      </trkpt>
      <trkpt lat="41.618412000" lon="1.819587000">
        <ele>352.94</ele>
        <time>2014-03-23T10:54:46Z</time>
      </trkpt>
      <trkpt lat="41.618233000" lon="1.819602000">
        <ele>351.98</ele>
        <time>2014-03-23T10:54:53Z</time>
      </trkpt>
      <trkpt lat="41.618217000" lon="1.819799000">
        <ele>351.50</ele>
        <time>2014-03-23T10:54:57Z</time>
      </trkpt>
      <trkpt lat="41.618187000" lon="1.820120000">
        <ele>348.62</ele>
        <time>2014-03-23T10:55:02Z</time>
      </trkpt>
      <trkpt lat="41.618172000" lon="1.820343000">
        <ele>347.17</ele>
        <time>2014-03-23T10:55:05Z</time>
      </trkpt>
      <trkpt lat="41.618107000" lon="1.820838000">
        <ele>346.69</ele>
        <time>2014-03-23T10:55:15Z</time>
      </trkpt>
      <trkpt lat="41.618065000" lon="1.821088000">
        <ele>344.77</ele>
        <time>2014-03-23T10:55:19Z</time>
      </trkpt>
      <trkpt lat="41.618000000" lon="1.821275000">
        <ele>343.81</ele>
        <time>2014-03-23T10:55:22Z</time>
      </trkpt>
      <trkpt lat="41.617935000" lon="1.821392000">
        <ele>342.37</ele>
        <time>2014-03-23T10:55:24Z</time>
      </trkpt>
      <trkpt lat="41.617939000" lon="1.821584000">
        <ele>340.92</ele>
        <time>2014-03-23T10:55:27Z</time>
      </trkpt>
      <trkpt lat="41.618076000" lon="1.821946000">
        <ele>335.64</ele>
        <time>2014-03-23T10:55:32Z</time>
      </trkpt>
      <trkpt lat="41.618099000" lon="1.822011000">
        <ele>335.16</ele>
        <time>2014-03-23T10:55:33Z</time>
      </trkpt>
      <trkpt lat="41.618137000" lon="1.822307000">
        <ele>329.87</ele>
        <time>2014-03-23T10:55:38Z</time>
      </trkpt>
      <trkpt lat="41.618145000" lon="1.822429000">
        <ele>326.50</ele>
        <time>2014-03-23T10:55:40Z</time>
      </trkpt>
      <trkpt lat="41.618153000" lon="1.822491000">
        <ele>326.02</ele>
        <time>2014-03-23T10:55:41Z</time>
      </trkpt>
      <trkpt lat="41.618217000" lon="1.822711000">
        <ele>321.70</ele>
        <time>2014-03-23T10:55:45Z</time>
      </trkpt>
      <trkpt lat="41.618275000" lon="1.822795000">
        <ele>320.74</ele>
        <time>2014-03-23T10:55:47Z</time>
      </trkpt>
      <trkpt lat="41.618351000" lon="1.822945000">
        <ele>319.78</ele>
        <time>2014-03-23T10:55:51Z</time>
      </trkpt>
      <trkpt lat="41.618359000" lon="1.823324000">
        <ele>315.93</ele>
        <time>2014-03-23T10:56:00Z</time>
      </trkpt>
      <trkpt lat="41.618359000" lon="1.823393000">
        <ele>315.45</ele>
        <time>2014-03-23T10:56:01Z</time>
      </trkpt>
      <trkpt lat="41.618374000" lon="1.823562000">
        <ele>314.49</ele>
        <time>2014-03-23T10:56:04Z</time>
      </trkpt>
      <trkpt lat="41.618507000" lon="1.823891000">
        <ele>314.49</ele>
        <time>2014-03-23T10:56:12Z</time>
      </trkpt>
      <trkpt lat="41.618694000" lon="1.823993000">
        <ele>310.64</ele>
        <time>2014-03-23T10:56:17Z</time>
      </trkpt>
      <trkpt lat="41.618763000" lon="1.824010000">
        <ele>310.16</ele>
        <time>2014-03-23T10:56:26Z</time>
      </trkpt>
      <trkpt lat="41.618763000" lon="1.824010000">
        <ele>313.53</ele>
        <time>2014-03-23T10:56:31Z</time>
      </trkpt>
      <trkpt lat="41.618763000" lon="1.824010000">
        <ele>310.16</ele>
        <time>2014-03-23T10:56:33Z</time>
      </trkpt>
      <trkpt lat="41.618797000" lon="1.824029000">
        <ele>309.20</ele>
        <time>2014-03-23T10:56:41Z</time>
      </trkpt>
      <trkpt lat="41.618904000" lon="1.824130000">
        <ele>306.80</ele>
        <time>2014-03-23T10:56:45Z</time>
      </trkpt>
      <trkpt lat="41.619179000" lon="1.824635000">
        <ele>305.36</ele>
        <time>2014-03-23T10:56:58Z</time>
      </trkpt>
      <trkpt lat="41.619576000" lon="1.825100000">
        <ele>303.91</ele>
        <time>2014-03-23T10:57:11Z</time>
      </trkpt>
      <trkpt lat="41.619610000" lon="1.825135000">
        <ele>303.43</ele>
        <time>2014-03-23T10:57:12Z</time>
      </trkpt>
      <trkpt lat="41.619854000" lon="1.825467000">
        <ele>301.51</ele>
        <time>2014-03-23T10:57:19Z</time>
      </trkpt>
      <trkpt lat="41.619892000" lon="1.825513000">
        <ele>301.51</ele>
        <time>2014-03-23T10:57:20Z</time>
      </trkpt>
      <trkpt lat="41.620014000" lon="1.825638000">
        <ele>301.03</ele>
        <time>2014-03-23T10:57:23Z</time>
      </trkpt>
      <trkpt lat="41.620274000" lon="1.825810000">
        <ele>299.59</ele>
        <time>2014-03-23T10:57:28Z</time>
      </trkpt>
      <trkpt lat="41.620327000" lon="1.825836000">
        <ele>299.59</ele>
        <time>2014-03-23T10:57:29Z</time>
      </trkpt>
      <trkpt lat="41.620468000" lon="1.825954000">
        <ele>297.67</ele>
        <time>2014-03-23T10:57:32Z</time>
      </trkpt>
      <trkpt lat="41.620636000" lon="1.826163000">
        <ele>295.74</ele>
        <time>2014-03-23T10:57:36Z</time>
      </trkpt>
      <trkpt lat="41.620720000" lon="1.826231000">
        <ele>294.78</ele>
        <time>2014-03-23T10:57:38Z</time>
      </trkpt>
      <trkpt lat="41.620846000" lon="1.826370000">
        <ele>292.38</ele>
        <time>2014-03-23T10:57:41Z</time>
      </trkpt>
      <trkpt lat="41.620998000" lon="1.826607000">
        <ele>289.49</ele>
        <time>2014-03-23T10:57:45Z</time>
      </trkpt>
      <trkpt lat="41.621067000" lon="1.826714000">
        <ele>288.53</ele>
        <time>2014-03-23T10:57:47Z</time>
      </trkpt>
      <trkpt lat="41.621143000" lon="1.826943000">
        <ele>288.53</ele>
        <time>2014-03-23T10:57:51Z</time>
      </trkpt>
      <trkpt lat="41.621201000" lon="1.827526000">
        <ele>290.46</ele>
        <time>2014-03-23T10:58:05Z</time>
      </trkpt>
      <trkpt lat="41.621288000" lon="1.828011000">
        <ele>292.38</ele>
        <time>2014-03-23T10:58:18Z</time>
      </trkpt>
      <trkpt lat="41.621399000" lon="1.828369000">
        <ele>295.26</ele>
        <time>2014-03-23T10:58:30Z</time>
      </trkpt>
      <trkpt lat="41.621475000" lon="1.828728000">
        <ele>297.18</ele>
        <time>2014-03-23T10:58:42Z</time>
      </trkpt>
      <trkpt lat="41.621548000" lon="1.829040000">
        <ele>297.67</ele>
        <time>2014-03-23T10:58:53Z</time>
      </trkpt>
      <trkpt lat="41.621605000" lon="1.829539000">
        <ele>300.55</ele>
        <time>2014-03-23T10:59:09Z</time>
      </trkpt>
      <trkpt lat="41.621609000" lon="1.829597000">
        <ele>300.07</ele>
        <time>2014-03-23T10:59:11Z</time>
      </trkpt>
      <trkpt lat="41.621601000" lon="1.829794000">
        <ele>301.51</ele>
        <time>2014-03-23T10:59:19Z</time>
      </trkpt>
      <trkpt lat="41.621586000" lon="1.830030000">
        <ele>304.88</ele>
        <time>2014-03-23T10:59:28Z</time>
      </trkpt>
      <trkpt lat="41.621567000" lon="1.830168000">
        <ele>305.36</ele>
        <time>2014-03-23T10:59:33Z</time>
      </trkpt>
      <trkpt lat="41.621574000" lon="1.830243000">
        <ele>304.88</ele>
        <time>2014-03-23T10:59:36Z</time>
      </trkpt>
      <trkpt lat="41.621662000" lon="1.830620000">
        <ele>302.47</ele>
        <time>2014-03-23T10:59:48Z</time>
      </trkpt>
      <trkpt lat="41.621643000" lon="1.830658000">
        <ele>302.47</ele>
        <time>2014-03-23T10:59:49Z</time>
      </trkpt>
      <trkpt lat="41.621624000" lon="1.830915000">
        <ele>300.55</ele>
        <time>2014-03-23T10:59:54Z</time>
      </trkpt>
      <trkpt lat="41.621597000" lon="1.831069000">
        <ele>298.15</ele>
        <time>2014-03-23T10:59:57Z</time>
      </trkpt>
      <trkpt lat="41.621506000" lon="1.831099000">
        <ele>295.26</ele>
        <time>2014-03-23T11:00:02Z</time>
      </trkpt>
      <trkpt lat="41.621407000" lon="1.830896000">
        <ele>291.90</ele>
        <time>2014-03-23T11:00:08Z</time>
      </trkpt>
      <trkpt lat="41.621349000" lon="1.830981000">
        <ele>290.46</ele>
        <time>2014-03-23T11:00:10Z</time>
      </trkpt>
      <trkpt lat="41.621197000" lon="1.831364000">
        <ele>288.53</ele>
        <time>2014-03-23T11:00:17Z</time>
      </trkpt>
      <trkpt lat="41.621140000" lon="1.831385000">
        <ele>288.53</ele>
        <time>2014-03-23T11:00:21Z</time>
      </trkpt>
      <trkpt lat="41.620953000" lon="1.831297000">
        <ele>285.17</ele>
        <time>2014-03-23T11:00:31Z</time>
      </trkpt>
      <trkpt lat="41.620880000" lon="1.831404000">
        <ele>283.73</ele>
        <time>2014-03-23T11:00:36Z</time>
      </trkpt>
      <trkpt lat="41.620861000" lon="1.831512000">
        <ele>283.25</ele>
        <time>2014-03-23T11:00:39Z</time>
      </trkpt>
      <trkpt lat="41.620865000" lon="1.831664000">
        <ele>281.32</ele>
        <time>2014-03-23T11:00:44Z</time>
      </trkpt>
      <trkpt lat="41.620808000" lon="1.831619000">
        <ele>279.40</ele>
        <time>2014-03-23T11:00:51Z</time>
      </trkpt>
      <trkpt lat="41.620796000" lon="1.831457000">
        <ele>277.96</ele>
        <time>2014-03-23T11:00:57Z</time>
      </trkpt>
      <trkpt lat="41.620773000" lon="1.831440000">
        <ele>276.52</ele>
        <time>2014-03-23T11:01:06Z</time>
      </trkpt>
      <trkpt lat="41.620770000" lon="1.831483000">
        <ele>276.04</ele>
        <time>2014-03-23T11:01:16Z</time>
      </trkpt>
      <trkpt lat="41.620766000" lon="1.831635000">
        <ele>275.07</ele>
        <time>2014-03-23T11:01:31Z</time>
      </trkpt>
      <trkpt lat="41.620758000" lon="1.831721000">
        <ele>274.59</ele>
        <time>2014-03-23T11:01:43Z</time>
      </trkpt>
      <trkpt lat="41.620739000" lon="1.831752000">
        <ele>274.59</ele>
        <time>2014-03-23T11:01:56Z</time>
      </trkpt>
      <trkpt lat="41.620743000" lon="1.831745000">
        <ele>273.15</ele>
        <time>2014-03-23T11:02:06Z</time>
      </trkpt>
      <trkpt lat="41.620743000" lon="1.831745000">
        <ele>274.11</ele>
        <time>2014-03-23T11:02:10Z</time>
      </trkpt>
      <trkpt lat="41.620731000" lon="1.831682000">
        <ele>274.11</ele>
        <time>2014-03-23T11:02:14Z</time>
      </trkpt>
      <trkpt lat="41.620670000" lon="1.831303000">
        <ele>270.75</ele>
        <time>2014-03-23T11:02:23Z</time>
      </trkpt>
      <trkpt lat="41.620655000" lon="1.831209000">
        <ele>270.27</ele>
        <time>2014-03-23T11:02:25Z</time>
      </trkpt>
      <trkpt lat="41.620583000" lon="1.831121000">
        <ele>270.27</ele>
        <time>2014-03-23T11:02:28Z</time>
      </trkpt>
      <trkpt lat="41.620274000" lon="1.831054000">
        <ele>267.86</ele>
        <time>2014-03-23T11:02:37Z</time>
      </trkpt>
      <trkpt lat="41.620201000" lon="1.830823000">
        <ele>265.46</ele>
        <time>2014-03-23T11:02:43Z</time>
      </trkpt>
      <trkpt lat="41.620182000" lon="1.830763000">
        <ele>265.94</ele>
        <time>2014-03-23T11:02:45Z</time>
      </trkpt>
      <trkpt lat="41.620140000" lon="1.830630000">
        <ele>265.46</ele>
        <time>2014-03-23T11:02:49Z</time>
      </trkpt>
      <trkpt lat="41.619919000" lon="1.830346000">
        <ele>261.14</ele>
        <time>2014-03-23T11:02:56Z</time>
      </trkpt>
      <trkpt lat="41.619850000" lon="1.830288000">
        <ele>259.21</ele>
        <time>2014-03-23T11:02:58Z</time>
      </trkpt>
      <trkpt lat="41.619839000" lon="1.830537000">
        <ele>256.81</ele>
        <time>2014-03-23T11:03:06Z</time>
      </trkpt>
      <trkpt lat="41.619831000" lon="1.830597000">
        <ele>256.33</ele>
        <time>2014-03-23T11:03:07Z</time>
      </trkpt>
      <trkpt lat="41.619801000" lon="1.831032000">
        <ele>252.96</ele>
        <time>2014-03-23T11:03:13Z</time>
      </trkpt>
      <trkpt lat="41.619812000" lon="1.831165000">
        <ele>252.00</ele>
        <time>2014-03-23T11:03:15Z</time>
      </trkpt>
      <trkpt lat="41.619865000" lon="1.831441000">
        <ele>251.04</ele>
        <time>2014-03-23T11:03:19Z</time>
      </trkpt>
      <trkpt lat="41.619968000" lon="1.831673000">
        <ele>250.56</ele>
        <time>2014-03-23T11:03:23Z</time>
      </trkpt>
      <trkpt lat="41.620056000" lon="1.832125000">
        <ele>248.16</ele>
        <time>2014-03-23T11:03:29Z</time>
      </trkpt>
      <trkpt lat="41.620090000" lon="1.832299000">
        <ele>248.64</ele>
        <time>2014-03-23T11:03:31Z</time>
      </trkpt>
      <trkpt lat="41.619995000" lon="1.832656000">
        <ele>247.68</ele>
        <time>2014-03-23T11:03:36Z</time>
      </trkpt>
      <trkpt lat="41.619930000" lon="1.833035000">
        <ele>248.16</ele>
        <time>2014-03-23T11:03:41Z</time>
      </trkpt>
      <trkpt lat="41.619934000" lon="1.833370000">
        <ele>243.83</ele>
        <time>2014-03-23T11:03:45Z</time>
      </trkpt>
      <trkpt lat="41.619934000" lon="1.833466000">
        <ele>242.39</ele>
        <time>2014-03-23T11:03:46Z</time>
      </trkpt>
      <trkpt lat="41.620159000" lon="1.834385000">
        <ele>241.43</ele>
        <time>2014-03-23T11:03:56Z</time>
      </trkpt>
      <trkpt lat="41.620354000" lon="1.835019000">
        <ele>238.54</ele>
        <time>2014-03-23T11:04:04Z</time>
      </trkpt>
      <trkpt lat="41.620392000" lon="1.835185000">
        <ele>235.66</ele>
        <time>2014-03-23T11:04:06Z</time>
      </trkpt>
      <trkpt lat="41.620403000" lon="1.835389000">
        <ele>234.22</ele>
        <time>2014-03-23T11:04:09Z</time>
      </trkpt>
      <trkpt lat="41.620338000" lon="1.835573000">
        <ele>230.85</ele>
        <time>2014-03-23T11:04:12Z</time>
      </trkpt>
      <trkpt lat="41.620243000" lon="1.835686000">
        <ele>228.45</ele>
        <time>2014-03-23T11:04:14Z</time>
      </trkpt>
      <trkpt lat="41.620113000" lon="1.835898000">
        <ele>227.01</ele>
        <time>2014-03-23T11:04:17Z</time>
      </trkpt>
      <trkpt lat="41.619999000" lon="1.836239000">
        <ele>224.12</ele>
        <time>2014-03-23T11:04:21Z</time>
      </trkpt>
      <trkpt lat="41.619972000" lon="1.836331000">
        <ele>223.16</ele>
        <time>2014-03-23T11:04:22Z</time>
      </trkpt>
      <trkpt lat="41.619877000" lon="1.836615000">
        <ele>221.72</ele>
        <time>2014-03-23T11:04:25Z</time>
      </trkpt>
      <trkpt lat="41.619678000" lon="1.837157000">
        <ele>218.84</ele>
        <time>2014-03-23T11:04:31Z</time>
      </trkpt>
      <trkpt lat="41.619591000" lon="1.837462000">
        <ele>216.43</ele>
        <time>2014-03-23T11:04:34Z</time>
      </trkpt>
      <trkpt lat="41.619572000" lon="1.837929000">
        <ele>214.51</ele>
        <time>2014-03-23T11:04:39Z</time>
      </trkpt>
      <trkpt lat="41.619637000" lon="1.838120000">
        <ele>212.59</ele>
        <time>2014-03-23T11:04:41Z</time>
      </trkpt>
      <trkpt lat="41.619499000" lon="1.838750000">
        <ele>211.63</ele>
        <time>2014-03-23T11:04:49Z</time>
      </trkpt>
      <trkpt lat="41.619255000" lon="1.838959000">
        <ele>210.19</ele>
        <time>2014-03-23T11:04:54Z</time>
      </trkpt>
      <trkpt lat="41.618942000" lon="1.839030000">
        <ele>206.34</ele>
        <time>2014-03-23T11:05:00Z</time>
      </trkpt>
      <trkpt lat="41.618710000" lon="1.838748000">
        <ele>202.98</ele>
        <time>2014-03-23T11:05:06Z</time>
      </trkpt>
      <trkpt lat="41.618523000" lon="1.838901000">
        <ele>201.53</ele>
        <time>2014-03-23T11:05:11Z</time>
      </trkpt>
      <trkpt lat="41.618374000" lon="1.839245000">
        <ele>202.49</ele>
        <time>2014-03-23T11:05:19Z</time>
      </trkpt>
      <trkpt lat="41.618343000" lon="1.839268000">
        <ele>202.01</ele>
        <time>2014-03-23T11:05:20Z</time>
      </trkpt>
      <trkpt lat="41.618210000" lon="1.839368000">
        <ele>202.98</ele>
        <time>2014-03-23T11:05:24Z</time>
      </trkpt>
      <trkpt lat="41.618050000" lon="1.839610000">
        <ele>201.05</ele>
        <time>2014-03-23T11:05:29Z</time>
      </trkpt>
      <trkpt lat="41.617931000" lon="1.839821000">
        <ele>200.09</ele>
        <time>2014-03-23T11:05:32Z</time>
      </trkpt>
      <trkpt lat="41.617657000" lon="1.840155000">
        <ele>202.49</ele>
        <time>2014-03-23T11:05:41Z</time>
      </trkpt>
      <trkpt lat="41.617508000" lon="1.840586000">
        <ele>204.90</ele>
        <time>2014-03-23T11:05:53Z</time>
      </trkpt>
      <trkpt lat="41.617344000" lon="1.840961000">
        <ele>205.86</ele>
        <time>2014-03-23T11:06:05Z</time>
      </trkpt>
      <trkpt lat="41.617214000" lon="1.841107000">
        <ele>204.90</ele>
        <time>2014-03-23T11:06:10Z</time>
      </trkpt>
      <trkpt lat="41.617184000" lon="1.841139000">
        <ele>203.94</ele>
        <time>2014-03-23T11:06:11Z</time>
      </trkpt>
      <trkpt lat="41.617073000" lon="1.841402000">
        <ele>202.49</ele>
        <time>2014-03-23T11:06:16Z</time>
      </trkpt>
      <trkpt lat="41.617039000" lon="1.841635000">
        <ele>203.46</ele>
        <time>2014-03-23T11:06:20Z</time>
      </trkpt>
      <trkpt lat="41.616951000" lon="1.841895000">
        <ele>202.49</ele>
        <time>2014-03-23T11:06:25Z</time>
      </trkpt>
      <trkpt lat="41.616890000" lon="1.841993000">
        <ele>202.49</ele>
        <time>2014-03-23T11:06:27Z</time>
      </trkpt>
      <trkpt lat="41.616795000" lon="1.842569000">
        <ele>201.53</ele>
        <time>2014-03-23T11:06:36Z</time>
      </trkpt>
      <trkpt lat="41.616768000" lon="1.842784000">
        <ele>200.09</ele>
        <time>2014-03-23T11:06:39Z</time>
      </trkpt>
      <trkpt lat="41.616718000" lon="1.843074000">
        <ele>196.73</ele>
        <time>2014-03-23T11:06:44Z</time>
      </trkpt>
      <trkpt lat="41.616638000" lon="1.843256000">
        <ele>194.80</ele>
        <time>2014-03-23T11:06:47Z</time>
      </trkpt>
      <trkpt lat="41.616558000" lon="1.843367000">
        <ele>193.84</ele>
        <time>2014-03-23T11:06:49Z</time>
      </trkpt>
      <trkpt lat="41.616364000" lon="1.843461000">
        <ele>190.96</ele>
        <time>2014-03-23T11:06:53Z</time>
      </trkpt>
      <trkpt lat="41.616280000" lon="1.843514000">
        <ele>190.00</ele>
        <time>2014-03-23T11:06:55Z</time>
      </trkpt>
      <trkpt lat="41.616241000" lon="1.843739000">
        <ele>185.67</ele>
        <time>2014-03-23T11:06:59Z</time>
      </trkpt>
      <trkpt lat="41.616318000" lon="1.843920000">
        <ele>184.23</ele>
        <time>2014-03-23T11:07:02Z</time>
      </trkpt>
      <trkpt lat="41.616375000" lon="1.844276000">
        <ele>181.35</ele>
        <time>2014-03-23T11:07:07Z</time>
      </trkpt>
      <trkpt lat="41.616161000" lon="1.844410000">
        <ele>177.98</ele>
        <time>2014-03-23T11:07:13Z</time>
      </trkpt>
      <trkpt lat="41.616104000" lon="1.844297000">
        <ele>176.06</ele>
        <time>2014-03-23T11:07:15Z</time>
      </trkpt>
      <trkpt lat="41.616035000" lon="1.844066000">
        <ele>174.62</ele>
        <time>2014-03-23T11:07:18Z</time>
      </trkpt>
      <trkpt lat="41.615971000" lon="1.843910000">
        <ele>174.14</ele>
        <time>2014-03-23T11:07:20Z</time>
      </trkpt>
      <trkpt lat="41.615845000" lon="1.843783000">
        <ele>173.17</ele>
        <time>2014-03-23T11:07:23Z</time>
      </trkpt>
      <trkpt lat="41.615669000" lon="1.843470000">
        <ele>173.17</ele>
        <time>2014-03-23T11:07:35Z</time>
      </trkpt>
      <trkpt lat="41.615524000" lon="1.843028000">
        <ele>170.77</ele>
        <time>2014-03-23T11:07:43Z</time>
      </trkpt>
      <trkpt lat="41.615456000" lon="1.842898000">
        <ele>170.29</ele>
        <time>2014-03-23T11:07:48Z</time>
      </trkpt>
      <trkpt lat="41.615192000" lon="1.842998000">
        <ele>169.81</ele>
        <time>2014-03-23T11:07:55Z</time>
      </trkpt>
      <trkpt lat="41.614876000" lon="1.843326000">
        <ele>169.33</ele>
        <time>2014-03-23T11:08:04Z</time>
      </trkpt>
      <trkpt lat="41.614792000" lon="1.843444000">
        <ele>170.29</ele>
        <time>2014-03-23T11:08:08Z</time>
      </trkpt>
      <trkpt lat="41.614704000" lon="1.843471000">
        <ele>170.29</ele>
        <time>2014-03-23T11:08:11Z</time>
      </trkpt>
      <trkpt lat="41.614628000" lon="1.843514000">
        <ele>169.81</ele>
        <time>2014-03-23T11:08:13Z</time>
      </trkpt>
      <trkpt lat="41.614494000" lon="1.843739000">
        <ele>166.45</ele>
        <time>2014-03-23T11:08:17Z</time>
      </trkpt>
      <trkpt lat="41.614407000" lon="1.843987000">
        <ele>165.00</ele>
        <time>2014-03-23T11:08:22Z</time>
      </trkpt>
      <trkpt lat="41.614338000" lon="1.844016000">
        <ele>164.52</ele>
        <time>2014-03-23T11:08:25Z</time>
      </trkpt>
      <trkpt lat="41.614033000" lon="1.843836000">
        <ele>164.04</ele>
        <time>2014-03-23T11:08:36Z</time>
      </trkpt>
      <trkpt lat="41.613762000" lon="1.843635000">
        <ele>162.60</ele>
        <time>2014-03-23T11:08:47Z</time>
      </trkpt>
      <trkpt lat="41.613544000" lon="1.843439000">
        <ele>163.56</ele>
        <time>2014-03-23T11:08:57Z</time>
      </trkpt>
      <trkpt lat="41.613113000" lon="1.843315000">
        <ele>165.00</ele>
        <time>2014-03-23T11:09:11Z</time>
      </trkpt>
      <trkpt lat="41.612881000" lon="1.843149000">
        <ele>164.04</ele>
        <time>2014-03-23T11:09:19Z</time>
      </trkpt>
      <trkpt lat="41.612560000" lon="1.842952000">
        <ele>162.12</ele>
        <time>2014-03-23T11:09:27Z</time>
      </trkpt>
      <trkpt lat="41.612461000" lon="1.843063000">
        <ele>162.12</ele>
        <time>2014-03-23T11:09:30Z</time>
      </trkpt>
      <trkpt lat="41.612114000" lon="1.843302000">
        <ele>162.60</ele>
        <time>2014-03-23T11:09:41Z</time>
      </trkpt>
      <trkpt lat="41.612080000" lon="1.843303000">
        <ele>157.79</ele>
        <time>2014-03-23T11:09:42Z</time>
      </trkpt>
      <trkpt lat="41.612049000" lon="1.843310000">
        <ele>162.60</ele>
        <time>2014-03-23T11:09:43Z</time>
      </trkpt>
      <trkpt lat="41.612000000" lon="1.843350000">
        <ele>162.60</ele>
        <time>2014-03-23T11:09:45Z</time>
      </trkpt>
      <trkpt lat="41.611698000" lon="1.843596000">
        <ele>160.68</ele>
        <time>2014-03-23T11:09:54Z</time>
      </trkpt>
      <trkpt lat="41.611572000" lon="1.843721000">
        <ele>159.72</ele>
        <time>2014-03-23T11:09:57Z</time>
      </trkpt>
      <trkpt lat="41.611309000" lon="1.843989000">
        <ele>158.75</ele>
        <time>2014-03-23T11:10:03Z</time>
      </trkpt>
      <trkpt lat="41.611149000" lon="1.844129000">
        <ele>159.24</ele>
        <time>2014-03-23T11:10:07Z</time>
      </trkpt>
      <trkpt lat="41.610836000" lon="1.844382000">
        <ele>158.27</ele>
        <time>2014-03-23T11:10:14Z</time>
      </trkpt>
      <trkpt lat="41.610737000" lon="1.844405000">
        <ele>158.27</ele>
        <time>2014-03-23T11:10:16Z</time>
      </trkpt>
      <trkpt lat="41.610634000" lon="1.844496000">
        <ele>156.35</ele>
        <time>2014-03-23T11:10:20Z</time>
      </trkpt>
      <trkpt lat="41.610615000" lon="1.844528000">
        <ele>155.87</ele>
        <time>2014-03-23T11:10:29Z</time>
      </trkpt>
      <trkpt lat="41.610607000" lon="1.844545000">
        <ele>153.95</ele>
        <time>2014-03-23T11:10:43Z</time>
      </trkpt>
      <trkpt lat="41.610611000" lon="1.844550000">
        <ele>153.47</ele>
        <time>2014-03-23T11:10:50Z</time>
      </trkpt>
      <trkpt lat="41.610634000" lon="1.844711000">
        <ele>149.62</ele>
        <time>2014-03-23T11:10:55Z</time>
      </trkpt>
      <trkpt lat="41.610630000" lon="1.844769000">
        <ele>149.62</ele>
        <time>2014-03-23T11:10:56Z</time>
      </trkpt>
      <trkpt lat="41.610611000" lon="1.844807000">
        <ele>149.62</ele>
        <time>2014-03-23T11:10:57Z</time>
      </trkpt>
      <trkpt lat="41.610474000" lon="1.844772000">
        <ele>146.26</ele>
        <time>2014-03-23T11:11:03Z</time>
      </trkpt>
      <trkpt lat="41.610352000" lon="1.844781000">
        <ele>144.34</ele>
        <time>2014-03-23T11:11:06Z</time>
      </trkpt>
      <trkpt lat="41.610336000" lon="1.844785000">
        <ele>143.37</ele>
        <time>2014-03-23T11:11:08Z</time>
      </trkpt>
      <trkpt lat="41.610348000" lon="1.844767000">
        <ele>143.37</ele>
        <time>2014-03-23T11:11:11Z</time>
      </trkpt>
      <trkpt lat="41.610313000" lon="1.844835000">
        <ele>142.41</ele>
        <time>2014-03-23T11:11:19Z</time>
      </trkpt>
      <trkpt lat="41.610226000" lon="1.844804000">
        <ele>143.37</ele>
        <time>2014-03-23T11:11:25Z</time>
      </trkpt>
      <trkpt lat="41.610222000" lon="1.844765000">
        <ele>142.89</ele>
        <time>2014-03-23T11:11:29Z</time>
      </trkpt>
      <trkpt lat="41.610210000" lon="1.844788000">
        <ele>142.41</ele>
        <time>2014-03-23T11:11:33Z</time>
      </trkpt>
      <trkpt lat="41.610210000" lon="1.844756000">
        <ele>143.37</ele>
        <time>2014-03-23T11:11:36Z</time>
      </trkpt>
      <trkpt lat="41.610249000" lon="1.844875000">
        <ele>141.93</ele>
        <time>2014-03-23T11:11:41Z</time>
      </trkpt>
      <trkpt lat="41.610321000" lon="1.845225000">
        <ele>140.97</ele>
        <time>2014-03-23T11:11:47Z</time>
      </trkpt>
      <trkpt lat="41.610306000" lon="1.845587000">
        <ele>139.53</ele>
        <time>2014-03-23T11:11:53Z</time>
      </trkpt>
      <trkpt lat="41.610302000" lon="1.845935000">
        <ele>139.05</ele>
        <time>2014-03-23T11:11:59Z</time>
      </trkpt>
      <trkpt lat="41.610291000" lon="1.845990000">
        <ele>139.53</ele>
        <time>2014-03-23T11:12:01Z</time>
      </trkpt>
      <trkpt lat="41.610012000" lon="1.846120000">
        <ele>140.49</ele>
        <time>2014-03-23T11:12:12Z</time>
      </trkpt>
      <trkpt lat="41.609741000" lon="1.846282000">
        <ele>141.45</ele>
        <time>2014-03-23T11:12:24Z</time>
      </trkpt>
      <trkpt lat="41.609379000" lon="1.846536000">
        <ele>141.93</ele>
        <time>2014-03-23T11:12:38Z</time>
      </trkpt>
      <trkpt lat="41.609268000" lon="1.846605000">
        <ele>142.89</ele>
        <time>2014-03-23T11:12:46Z</time>
      </trkpt>
      <trkpt lat="41.609272000" lon="1.846645000">
        <ele>142.89</ele>
        <time>2014-03-23T11:12:49Z</time>
      </trkpt>
      <trkpt lat="41.609451000" lon="1.846602000">
        <ele>141.93</ele>
        <time>2014-03-23T11:12:56Z</time>
      </trkpt>
      <trkpt lat="41.610138000" lon="1.846202000">
        <ele>140.01</ele>
        <time>2014-03-23T11:13:10Z</time>
      </trkpt>
      <trkpt lat="41.610195000" lon="1.846182000">
        <ele>140.01</ele>
        <time>2014-03-23T11:13:11Z</time>
      </trkpt>
      <trkpt lat="41.610355000" lon="1.846154000">
        <ele>139.53</ele>
        <time>2014-03-23T11:13:14Z</time>
      </trkpt>
      <trkpt lat="41.610481000" lon="1.846362000">
        <ele>140.97</ele>
        <time>2014-03-23T11:13:20Z</time>
      </trkpt>
      <trkpt lat="41.610645000" lon="1.846894000">
        <ele>147.22</ele>
        <time>2014-03-23T11:13:29Z</time>
      </trkpt>
      <trkpt lat="41.610664000" lon="1.846955000">
        <ele>141.93</ele>
        <time>2014-03-23T11:13:30Z</time>
      </trkpt>
      <trkpt lat="41.610943000" lon="1.847884000">
        <ele>141.45</ele>
        <time>2014-03-23T11:13:45Z</time>
      </trkpt>
      <trkpt lat="41.610817000" lon="1.848057000">
        <ele>140.49</ele>
        <time>2014-03-23T11:13:50Z</time>
      </trkpt>
      <trkpt lat="41.610748000" lon="1.848142000">
        <ele>140.97</ele>
        <time>2014-03-23T11:13:59Z</time>
      </trkpt>
      <trkpt lat="41.610748000" lon="1.848142000">
        <ele>140.97</ele>
        <time>2014-03-23T11:14:21Z</time>
      </trkpt>
      <trkpt lat="41.610603000" lon="1.848316000">
        <ele>141.45</ele>
        <time>2014-03-23T11:14:32Z</time>
      </trkpt>
      <trkpt lat="41.610332000" lon="1.848588000">
        <ele>141.45</ele>
        <time>2014-03-23T11:14:42Z</time>
      </trkpt>
      <trkpt lat="41.609814000" lon="1.849110000">
        <ele>142.89</ele>
        <time>2014-03-23T11:14:58Z</time>
      </trkpt>
      <trkpt lat="41.609783000" lon="1.849147000">
        <ele>143.37</ele>
        <time>2014-03-23T11:14:59Z</time>
      </trkpt>
      <trkpt lat="41.609344000" lon="1.849489000">
        <ele>145.30</ele>
        <time>2014-03-23T11:15:12Z</time>
      </trkpt>
      <trkpt lat="41.609215000" lon="1.849506000">
        <ele>144.82</ele>
        <time>2014-03-23T11:15:17Z</time>
      </trkpt>
      <trkpt lat="41.609051000" lon="1.849576000">
        <ele>140.01</ele>
        <time>2014-03-23T11:15:23Z</time>
      </trkpt>
      <trkpt lat="41.609035000" lon="1.849586000">
        <ele>140.01</ele>
        <time>2014-03-23T11:15:24Z</time>
      </trkpt>
      <trkpt lat="41.609009000" lon="1.849607000">
        <ele>138.57</ele>
        <time>2014-03-23T11:15:27Z</time>
      </trkpt>
      <trkpt lat="41.609070000" lon="1.849407000">
        <ele>135.68</ele>
        <time>2014-03-23T11:15:34Z</time>
      </trkpt>
      <trkpt lat="41.609249000" lon="1.849079000">
        <ele>129.43</ele>
        <time>2014-03-23T11:15:39Z</time>
      </trkpt>
      <trkpt lat="41.609291000" lon="1.848976000">
        <ele>128.47</ele>
        <time>2014-03-23T11:15:41Z</time>
      </trkpt>
      <trkpt lat="41.609253000" lon="1.848927000">
        <ele>127.51</ele>
        <time>2014-03-23T11:15:43Z</time>
      </trkpt>
      <trkpt lat="41.609108000" lon="1.849053000">
        <ele>124.15</ele>
        <time>2014-03-23T11:15:47Z</time>
      </trkpt>
      <trkpt lat="41.608906000" lon="1.848962000">
        <ele>120.30</ele>
        <time>2014-03-23T11:15:52Z</time>
      </trkpt>
      <trkpt lat="41.608826000" lon="1.848985000">
        <ele>120.30</ele>
        <time>2014-03-23T11:15:54Z</time>
      </trkpt>
      <trkpt lat="41.608295000" lon="1.849603000">
        <ele>118.86</ele>
        <time>2014-03-23T11:16:09Z</time>
      </trkpt>
      <trkpt lat="41.608147000" lon="1.849774000">
        <ele>118.38</ele>
        <time>2014-03-23T11:16:14Z</time>
      </trkpt>
      <trkpt lat="41.607773000" lon="1.850062000">
        <ele>118.38</ele>
        <time>2014-03-23T11:16:25Z</time>
      </trkpt>
      <trkpt lat="41.607651000" lon="1.850109000">
        <ele>118.38</ele>
        <time>2014-03-23T11:16:28Z</time>
      </trkpt>
      <trkpt lat="41.607334000" lon="1.850203000">
        <ele>117.42</ele>
        <time>2014-03-23T11:16:35Z</time>
      </trkpt>
      <trkpt lat="41.607178000" lon="1.850259000">
        <ele>118.38</ele>
        <time>2014-03-23T11:16:39Z</time>
      </trkpt>
      <trkpt lat="41.607010000" lon="1.850349000">
        <ele>118.38</ele>
        <time>2014-03-23T11:16:43Z</time>
      </trkpt>
      <trkpt lat="41.606930000" lon="1.850413000">
        <ele>118.86</ele>
        <time>2014-03-23T11:16:45Z</time>
      </trkpt>
      <trkpt lat="41.606827000" lon="1.850538000">
        <ele>118.38</ele>
        <time>2014-03-23T11:16:48Z</time>
      </trkpt>
      <trkpt lat="41.606396000" lon="1.851174000">
        <ele>116.46</ele>
        <time>2014-03-23T11:17:03Z</time>
      </trkpt>
      <trkpt lat="41.606335000" lon="1.851255000">
        <ele>116.46</ele>
        <time>2014-03-23T11:17:05Z</time>
      </trkpt>
      <trkpt lat="41.605865000" lon="1.851714000">
        <ele>117.42</ele>
        <time>2014-03-23T11:17:19Z</time>
      </trkpt>
      <trkpt lat="41.605762000" lon="1.851817000">
        <ele>117.42</ele>
        <time>2014-03-23T11:17:22Z</time>
      </trkpt>
      <trkpt lat="41.605442000" lon="1.852168000">
        <ele>117.42</ele>
        <time>2014-03-23T11:17:32Z</time>
      </trkpt>
      <trkpt lat="41.605286000" lon="1.852350000">
        <ele>117.42</ele>
        <time>2014-03-23T11:17:37Z</time>
      </trkpt>
      <trkpt lat="41.605049000" lon="1.852600000">
        <ele>117.90</ele>
        <time>2014-03-23T11:17:44Z</time>
      </trkpt>
      <trkpt lat="41.604630000" lon="1.853020000">
        <ele>118.38</ele>
        <time>2014-03-23T11:17:57Z</time>
      </trkpt>
      <trkpt lat="41.604149000" lon="1.853359000">
        <ele>117.42</ele>
        <time>2014-03-23T11:18:11Z</time>
      </trkpt>
      <trkpt lat="41.604115000" lon="1.853382000">
        <ele>117.42</ele>
        <time>2014-03-23T11:18:12Z</time>
      </trkpt>
      <trkpt lat="41.603825000" lon="1.853574000">
        <ele>117.42</ele>
        <time>2014-03-23T11:18:19Z</time>
      </trkpt>
      <trkpt lat="41.603657000" lon="1.853692000">
        <ele>117.90</ele>
        <time>2014-03-23T11:18:23Z</time>
      </trkpt>
      <trkpt lat="41.603352000" lon="1.853861000">
        <ele>118.86</ele>
        <time>2014-03-23T11:18:30Z</time>
      </trkpt>
      <trkpt lat="41.603275000" lon="1.853897000">
        <ele>119.34</ele>
        <time>2014-03-23T11:18:32Z</time>
      </trkpt>
      <trkpt lat="41.603111000" lon="1.853967000">
        <ele>118.86</ele>
        <time>2014-03-23T11:18:36Z</time>
      </trkpt>
      <trkpt lat="41.602680000" lon="1.853965000">
        <ele>119.34</ele>
        <time>2014-03-23T11:18:46Z</time>
      </trkpt>
      <trkpt lat="41.602589000" lon="1.853976000">
        <ele>118.38</ele>
        <time>2014-03-23T11:18:48Z</time>
      </trkpt>
      <trkpt lat="41.602333000" lon="1.853945000">
        <ele>116.94</ele>
        <time>2014-03-23T11:18:53Z</time>
      </trkpt>
      <trkpt lat="41.601871000" lon="1.853640000">
        <ele>117.42</ele>
        <time>2014-03-23T11:19:02Z</time>
      </trkpt>
      <trkpt lat="41.601555000" lon="1.853348000">
        <ele>117.42</ele>
        <time>2014-03-23T11:19:09Z</time>
      </trkpt>
      <trkpt lat="41.601025000" lon="1.852651000">
        <ele>118.38</ele>
        <time>2014-03-23T11:19:23Z</time>
      </trkpt>
      <trkpt lat="41.600853000" lon="1.852470000">
        <ele>117.42</ele>
        <time>2014-03-23T11:19:27Z</time>
      </trkpt>
      <trkpt lat="41.600628000" lon="1.852258000">
        <ele>118.86</ele>
        <time>2014-03-23T11:19:32Z</time>
      </trkpt>
      <trkpt lat="41.600540000" lon="1.852191000">
        <ele>119.34</ele>
        <time>2014-03-23T11:19:34Z</time>
      </trkpt>
      <trkpt lat="41.600407000" lon="1.852125000">
        <ele>119.82</ele>
        <time>2014-03-23T11:19:37Z</time>
      </trkpt>
      <trkpt lat="41.600231000" lon="1.852026000">
        <ele>122.22</ele>
        <time>2014-03-23T11:19:42Z</time>
      </trkpt>
      <trkpt lat="41.600052000" lon="1.851969000">
        <ele>124.63</ele>
        <time>2014-03-23T11:19:47Z</time>
      </trkpt>
      <trkpt lat="41.599609000" lon="1.851894000">
        <ele>126.55</ele>
        <time>2014-03-23T11:19:59Z</time>
      </trkpt>
      <trkpt lat="41.599304000" lon="1.851980000">
        <ele>127.03</ele>
        <time>2014-03-23T11:20:07Z</time>
      </trkpt>
      <trkpt lat="41.599167000" lon="1.852017000">
        <ele>126.55</ele>
        <time>2014-03-23T11:20:10Z</time>
      </trkpt>
      <trkpt lat="41.598808000" lon="1.852316000">
        <ele>127.03</ele>
        <time>2014-03-23T11:20:19Z</time>
      </trkpt>
      <trkpt lat="41.598671000" lon="1.852505000">
        <ele>125.59</ele>
        <time>2014-03-23T11:20:23Z</time>
      </trkpt>
      <trkpt lat="41.598618000" lon="1.852627000">
        <ele>125.11</ele>
        <time>2014-03-23T11:20:25Z</time>
      </trkpt>
      <trkpt lat="41.598282000" lon="1.853126000">
        <ele>122.71</ele>
        <time>2014-03-23T11:20:33Z</time>
      </trkpt>
      <trkpt lat="41.598179000" lon="1.853253000">
        <ele>121.26</ele>
        <time>2014-03-23T11:20:35Z</time>
      </trkpt>
      <trkpt lat="41.598091000" lon="1.853410000">
        <ele>119.82</ele>
        <time>2014-03-23T11:20:37Z</time>
      </trkpt>
      <trkpt lat="41.598022000" lon="1.853573000">
        <ele>118.86</ele>
        <time>2014-03-23T11:20:39Z</time>
      </trkpt>
      <trkpt lat="41.597885000" lon="1.853758000">
        <ele>118.86</ele>
        <time>2014-03-23T11:20:42Z</time>
      </trkpt>
      <trkpt lat="41.597740000" lon="1.854039000">
        <ele>118.38</ele>
        <time>2014-03-23T11:20:46Z</time>
      </trkpt>
      <trkpt lat="41.597637000" lon="1.854284000">
        <ele>117.90</ele>
        <time>2014-03-23T11:20:49Z</time>
      </trkpt>
      <trkpt lat="41.597233000" lon="1.854870000">
        <ele>117.90</ele>
        <time>2014-03-23T11:20:59Z</time>
      </trkpt>
      <trkpt lat="41.597065000" lon="1.855009000">
        <ele>117.42</ele>
        <time>2014-03-23T11:21:03Z</time>
      </trkpt>
      <trkpt lat="41.596992000" lon="1.855094000">
        <ele>117.90</ele>
        <time>2014-03-23T11:21:05Z</time>
      </trkpt>
      <trkpt lat="41.596569000" lon="1.855291000">
        <ele>118.86</ele>
        <time>2014-03-23T11:21:14Z</time>
      </trkpt>
      <trkpt lat="41.596401000" lon="1.855339000">
        <ele>119.34</ele>
        <time>2014-03-23T11:21:18Z</time>
      </trkpt>
      <trkpt lat="41.596184000" lon="1.855410000">
        <ele>116.94</ele>
        <time>2014-03-23T11:21:22Z</time>
      </trkpt>
      <trkpt lat="41.596123000" lon="1.855434000">
        <ele>116.94</ele>
        <time>2014-03-23T11:21:23Z</time>
      </trkpt>
      <trkpt lat="41.595325000" lon="1.855740000">
        <ele>117.90</ele>
        <time>2014-03-23T11:21:38Z</time>
      </trkpt>
      <trkpt lat="41.595169000" lon="1.855806000">
        <ele>118.86</ele>
        <time>2014-03-23T11:21:41Z</time>
      </trkpt>
      <trkpt lat="41.594978000" lon="1.855857000">
        <ele>118.86</ele>
        <time>2014-03-23T11:21:45Z</time>
      </trkpt>
      <trkpt lat="41.594795000" lon="1.855880000">
        <ele>118.86</ele>
        <time>2014-03-23T11:21:49Z</time>
      </trkpt>
      <trkpt lat="41.594601000" lon="1.855837000">
        <ele>118.86</ele>
        <time>2014-03-23T11:21:53Z</time>
      </trkpt>
      <trkpt lat="41.593979000" lon="1.855651000">
        <ele>118.86</ele>
        <time>2014-03-23T11:22:06Z</time>
      </trkpt>
      <trkpt lat="41.593739000" lon="1.855389000">
        <ele>119.82</ele>
        <time>2014-03-23T11:22:13Z</time>
      </trkpt>
      <trkpt lat="41.593494000" lon="1.855095000">
        <ele>118.38</ele>
        <time>2014-03-23T11:22:19Z</time>
      </trkpt>
      <trkpt lat="41.593346000" lon="1.854937000">
        <ele>117.90</ele>
        <time>2014-03-23T11:22:22Z</time>
      </trkpt>
      <trkpt lat="41.593033000" lon="1.854560000">
        <ele>117.42</ele>
        <time>2014-03-23T11:22:29Z</time>
      </trkpt>
      <trkpt lat="41.592945000" lon="1.854455000">
        <ele>117.42</ele>
        <time>2014-03-23T11:22:31Z</time>
      </trkpt>
      <trkpt lat="41.592781000" lon="1.854169000">
        <ele>116.94</ele>
        <time>2014-03-23T11:22:36Z</time>
      </trkpt>
      <trkpt lat="41.592663000" lon="1.853763000">
        <ele>115.98</ele>
        <time>2014-03-23T11:22:41Z</time>
      </trkpt>
      <trkpt lat="41.592510000" lon="1.853435000">
        <ele>115.98</ele>
        <time>2014-03-23T11:22:45Z</time>
      </trkpt>
      <trkpt lat="41.592377000" lon="1.853163000">
        <ele>115.98</ele>
        <time>2014-03-23T11:22:49Z</time>
      </trkpt>
      <trkpt lat="41.591915000" lon="1.852612000">
        <ele>115.01</ele>
        <time>2014-03-23T11:22:59Z</time>
      </trkpt>
      <trkpt lat="41.591717000" lon="1.852495000">
        <ele>115.98</ele>
        <time>2014-03-23T11:23:03Z</time>
      </trkpt>
      <trkpt lat="41.591438000" lon="1.852397000">
        <ele>116.94</ele>
        <time>2014-03-23T11:23:09Z</time>
      </trkpt>
      <trkpt lat="41.591278000" lon="1.852365000">
        <ele>116.94</ele>
        <time>2014-03-23T11:23:13Z</time>
      </trkpt>
      <trkpt lat="41.591209000" lon="1.852405000">
        <ele>117.42</ele>
        <time>2014-03-23T11:23:23Z</time>
      </trkpt>
      <trkpt lat="41.591236000" lon="1.852432000">
        <ele>119.82</ele>
        <time>2014-03-23T11:23:34Z</time>
      </trkpt>
      <trkpt lat="41.591270000" lon="1.852460000">
        <ele>120.78</ele>
        <time>2014-03-23T11:23:41Z</time>
      </trkpt>
      <trkpt lat="41.591286000" lon="1.852477000">
        <ele>121.74</ele>
        <time>2014-03-23T11:23:43Z</time>
      </trkpt>
      <trkpt lat="41.591351000" lon="1.852477000">
        <ele>122.22</ele>
        <time>2014-03-23T11:23:48Z</time>
      </trkpt>
      <trkpt lat="41.591434000" lon="1.852551000">
        <ele>124.15</ele>
        <time>2014-03-23T11:23:59Z</time>
      </trkpt>
      <trkpt lat="41.591442000" lon="1.852578000">
        <ele>124.63</ele>
        <time>2014-03-23T11:24:01Z</time>
      </trkpt>
      <trkpt lat="41.591473000" lon="1.852646000">
        <ele>126.07</ele>
        <time>2014-03-23T11:24:09Z</time>
      </trkpt>
      <trkpt lat="41.591480000" lon="1.852687000">
        <ele>127.99</ele>
        <time>2014-03-23T11:24:21Z</time>
      </trkpt>
      <trkpt lat="41.591450000" lon="1.852703000">
        <ele>130.40</ele>
        <time>2014-03-23T11:24:34Z</time>
      </trkpt>
      <trkpt lat="41.591480000" lon="1.852751000">
        <ele>132.32</ele>
        <time>2014-03-23T11:24:48Z</time>
      </trkpt>
      <trkpt lat="41.591503000" lon="1.852776000">
        <ele>134.24</ele>
        <time>2014-03-23T11:25:00Z</time>
      </trkpt>
      <trkpt lat="41.591534000" lon="1.852844000">
        <ele>136.64</ele>
        <time>2014-03-23T11:25:11Z</time>
      </trkpt>
      <trkpt lat="41.591511000" lon="1.852883000">
        <ele>139.05</ele>
        <time>2014-03-23T11:25:23Z</time>
      </trkpt>
      <trkpt lat="41.591511000" lon="1.852883000">
        <ele>139.05</ele>
        <time>2014-03-23T11:25:28Z</time>
      </trkpt>
      <trkpt lat="41.591496000" lon="1.852960000">
        <ele>140.01</ele>
        <time>2014-03-23T11:25:40Z</time>
      </trkpt>
      <trkpt lat="41.591496000" lon="1.852960000">
        <ele>139.53</ele>
        <time>2014-03-23T11:26:01Z</time>
      </trkpt>
      <trkpt lat="41.591492000" lon="1.852958000">
        <ele>140.01</ele>
        <time>2014-03-23T11:26:25Z</time>
      </trkpt>
      <trkpt lat="41.591496000" lon="1.852964000">
        <ele>139.53</ele>
        <time>2014-03-23T11:26:41Z</time>
      </trkpt>
      <trkpt lat="41.591503000" lon="1.852963000">
        <ele>139.05</ele>
        <time>2014-03-23T11:27:03Z</time>
      </trkpt>
      <trkpt lat="41.591503000" lon="1.852968000">
        <ele>139.05</ele>
        <time>2014-03-23T11:27:20Z</time>
      </trkpt>
      <trkpt lat="41.591450000" lon="1.853039000">
        <ele>138.57</ele>
        <time>2014-03-23T11:27:28Z</time>
      </trkpt>
      <trkpt lat="41.591408000" lon="1.853175000">
        <ele>139.53</ele>
        <time>2014-03-23T11:27:35Z</time>
      </trkpt>
      <trkpt lat="41.591351000" lon="1.853168000">
        <ele>140.01</ele>
        <time>2014-03-23T11:27:39Z</time>
      </trkpt>
      <trkpt lat="41.591080000" lon="1.853220000">
        <ele>141.93</ele>
        <time>2014-03-23T11:27:51Z</time>
      </trkpt>
      <trkpt lat="41.591057000" lon="1.853223000">
        <ele>142.41</ele>
        <time>2014-03-23T11:27:52Z</time>
      </trkpt>
      <trkpt lat="41.591015000" lon="1.853307000">
        <ele>142.41</ele>
        <time>2014-03-23T11:27:56Z</time>
      </trkpt>
      <trkpt lat="41.591030000" lon="1.853466000">
        <ele>142.89</ele>
        <time>2014-03-23T11:28:03Z</time>
      </trkpt>
      <trkpt lat="41.590820000" lon="1.853570000">
        <ele>144.34</ele>
        <time>2014-03-23T11:28:15Z</time>
      </trkpt>
      <trkpt lat="41.591019000" lon="1.853487000">
        <ele>145.78</ele>
        <time>2014-03-23T11:28:25Z</time>
      </trkpt>
      <trkpt lat="41.591019000" lon="1.853455000">
        <ele>146.74</ele>
        <time>2014-03-23T11:28:33Z</time>
      </trkpt>
      <trkpt lat="41.590851000" lon="1.853519000">
        <ele>146.26</ele>
        <time>2014-03-23T11:28:38Z</time>
      </trkpt>
      <trkpt lat="41.590725000" lon="1.853606000">
        <ele>146.26</ele>
        <time>2014-03-23T11:28:42Z</time>
      </trkpt>
      <trkpt lat="41.590645000" lon="1.853652000">
        <ele>145.30</ele>
        <time>2014-03-23T11:28:44Z</time>
      </trkpt>
      <trkpt lat="41.590225000" lon="1.854014000">
        <ele>145.78</ele>
        <time>2014-03-23T11:28:57Z</time>
      </trkpt>
      <trkpt lat="41.590202000" lon="1.854041000">
        <ele>146.26</ele>
        <time>2014-03-23T11:28:58Z</time>
      </trkpt>
      <trkpt lat="41.590187000" lon="1.854075000">
        <ele>147.22</ele>
        <time>2014-03-23T11:29:00Z</time>
      </trkpt>
      <trkpt lat="41.590134000" lon="1.854196000">
        <ele>149.14</ele>
        <time>2014-03-23T11:29:06Z</time>
      </trkpt>
      <trkpt lat="41.590130000" lon="1.854300000">
        <ele>149.14</ele>
        <time>2014-03-23T11:29:09Z</time>
      </trkpt>
      <trkpt lat="41.590073000" lon="1.854409000">
        <ele>149.62</ele>
        <time>2014-03-23T11:29:13Z</time>
      </trkpt>
      <trkpt lat="41.590000000" lon="1.854444000">
        <ele>149.14</ele>
        <time>2014-03-23T11:29:16Z</time>
      </trkpt>
      <trkpt lat="41.589931000" lon="1.854544000">
        <ele>149.62</ele>
        <time>2014-03-23T11:29:20Z</time>
      </trkpt>
      <trkpt lat="41.589893000" lon="1.854694000">
        <ele>151.06</ele>
        <time>2014-03-23T11:29:25Z</time>
      </trkpt>
      <trkpt lat="41.589775000" lon="1.854991000">
        <ele>152.51</ele>
        <time>2014-03-23T11:29:35Z</time>
      </trkpt>
      <trkpt lat="41.589695000" lon="1.854994000">
        <ele>152.99</ele>
        <time>2014-03-23T11:29:39Z</time>
      </trkpt>
      <trkpt lat="41.589485000" lon="1.854704000">
        <ele>152.51</ele>
        <time>2014-03-23T11:29:49Z</time>
      </trkpt>
      <trkpt lat="41.589462000" lon="1.854689000">
        <ele>152.99</ele>
        <time>2014-03-23T11:29:50Z</time>
      </trkpt>
      <trkpt lat="41.589386000" lon="1.854659000">
        <ele>152.99</ele>
        <time>2014-03-23T11:29:53Z</time>
      </trkpt>
      <trkpt lat="41.589283000" lon="1.854658000">
        <ele>153.47</ele>
        <time>2014-03-23T11:29:57Z</time>
      </trkpt>
      <trkpt lat="41.589222000" lon="1.854704000">
        <ele>154.91</ele>
        <time>2014-03-23T11:30:02Z</time>
      </trkpt>
      <trkpt lat="41.589130000" lon="1.854737000">
        <ele>155.87</ele>
        <time>2014-03-23T11:30:08Z</time>
      </trkpt>
      <trkpt lat="41.588840000" lon="1.854872000">
        <ele>156.83</ele>
        <time>2014-03-23T11:30:20Z</time>
      </trkpt>
      <trkpt lat="41.588657000" lon="1.855032000">
        <ele>158.75</ele>
        <time>2014-03-23T11:30:30Z</time>
      </trkpt>
      <trkpt lat="41.588390000" lon="1.855176000">
        <ele>160.68</ele>
        <time>2014-03-23T11:30:43Z</time>
      </trkpt>
      <trkpt lat="41.588150000" lon="1.855347000">
        <ele>163.56</ele>
        <time>2014-03-23T11:30:56Z</time>
      </trkpt>
      <trkpt lat="41.588070000" lon="1.855385000">
        <ele>163.56</ele>
        <time>2014-03-23T11:31:00Z</time>
      </trkpt>
      <trkpt lat="41.587948000" lon="1.855576000">
        <ele>164.52</ele>
        <time>2014-03-23T11:31:09Z</time>
      </trkpt>
      <trkpt lat="41.587948000" lon="1.855785000">
        <ele>165.48</ele>
        <time>2014-03-23T11:31:16Z</time>
      </trkpt>
      <trkpt lat="41.587769000" lon="1.855846000">
        <ele>166.93</ele>
        <time>2014-03-23T11:31:25Z</time>
      </trkpt>
      <trkpt lat="41.587723000" lon="1.855859000">
        <ele>167.41</ele>
        <time>2014-03-23T11:31:27Z</time>
      </trkpt>
      <trkpt lat="41.587677000" lon="1.855866000">
        <ele>167.89</ele>
        <time>2014-03-23T11:31:29Z</time>
      </trkpt>
      <trkpt lat="41.587593000" lon="1.855858000">
        <ele>167.89</ele>
        <time>2014-03-23T11:31:33Z</time>
      </trkpt>
      <trkpt lat="41.587418000" lon="1.855868000">
        <ele>169.33</ele>
        <time>2014-03-23T11:31:41Z</time>
      </trkpt>
      <trkpt lat="41.587307000" lon="1.855868000">
        <ele>170.77</ele>
        <time>2014-03-23T11:31:47Z</time>
      </trkpt>
      <trkpt lat="41.587231000" lon="1.855925000">
        <ele>171.73</ele>
        <time>2014-03-23T11:31:51Z</time>
      </trkpt>
      <trkpt lat="41.587189000" lon="1.855994000">
        <ele>172.21</ele>
        <time>2014-03-23T11:31:54Z</time>
      </trkpt>
      <trkpt lat="41.587132000" lon="1.856078000">
        <ele>171.25</ele>
        <time>2014-03-23T11:31:58Z</time>
      </trkpt>
      <trkpt lat="41.587135000" lon="1.856276000">
        <ele>170.29</ele>
        <time>2014-03-23T11:32:05Z</time>
      </trkpt>
      <trkpt lat="41.587177000" lon="1.856386000">
        <ele>169.33</ele>
        <time>2014-03-23T11:32:08Z</time>
      </trkpt>
      <trkpt lat="41.587196000" lon="1.856417000">
        <ele>168.37</ele>
        <time>2014-03-23T11:32:10Z</time>
      </trkpt>
      <trkpt lat="41.587196000" lon="1.856451000">
        <ele>166.93</ele>
        <time>2014-03-23T11:32:20Z</time>
      </trkpt>
      <trkpt lat="41.587196000" lon="1.856451000">
        <ele>166.93</ele>
        <time>2014-03-23T11:32:28Z</time>
      </trkpt>
      <trkpt lat="41.587063000" lon="1.856561000">
        <ele>168.85</ele>
        <time>2014-03-23T11:32:36Z</time>
      </trkpt>
      <trkpt lat="41.587013000" lon="1.856585000">
        <ele>168.37</ele>
        <time>2014-03-23T11:32:38Z</time>
      </trkpt>
      <trkpt lat="41.586708000" lon="1.856628000">
        <ele>169.33</ele>
        <time>2014-03-23T11:32:50Z</time>
      </trkpt>
      <trkpt lat="41.586689000" lon="1.856633000">
        <ele>169.33</ele>
        <time>2014-03-23T11:32:51Z</time>
      </trkpt>
      <trkpt lat="41.586494000" lon="1.856601000">
        <ele>167.89</ele>
        <time>2014-03-23T11:32:59Z</time>
      </trkpt>
      <trkpt lat="41.586391000" lon="1.856613000">
        <ele>165.48</ele>
        <time>2014-03-23T11:33:03Z</time>
      </trkpt>
      <trkpt lat="41.586311000" lon="1.856743000">
        <ele>164.04</ele>
        <time>2014-03-23T11:33:07Z</time>
      </trkpt>
      <trkpt lat="41.586327000" lon="1.856831000">
        <ele>161.64</ele>
        <time>2014-03-23T11:33:10Z</time>
      </trkpt>
      <trkpt lat="41.586479000" lon="1.857221000">
        <ele>157.79</ele>
        <time>2014-03-23T11:33:18Z</time>
      </trkpt>
      <trkpt lat="41.586491000" lon="1.857483000">
        <ele>156.35</ele>
        <time>2014-03-23T11:33:24Z</time>
      </trkpt>
      <trkpt lat="41.586533000" lon="1.857666000">
        <ele>153.95</ele>
        <time>2014-03-23T11:33:29Z</time>
      </trkpt>
      <trkpt lat="41.586536000" lon="1.857705000">
        <ele>153.47</ele>
        <time>2014-03-23T11:33:30Z</time>
      </trkpt>
      <trkpt lat="41.586483000" lon="1.857941000">
        <ele>150.58</ele>
        <time>2014-03-23T11:33:36Z</time>
      </trkpt>
      <trkpt lat="41.586472000" lon="1.857987000">
        <ele>150.58</ele>
        <time>2014-03-23T11:33:37Z</time>
      </trkpt>
      <trkpt lat="41.586231000" lon="1.858094000">
        <ele>149.14</ele>
        <time>2014-03-23T11:33:45Z</time>
      </trkpt>
      <trkpt lat="41.586197000" lon="1.858085000">
        <ele>148.66</ele>
        <time>2014-03-23T11:33:46Z</time>
      </trkpt>
      <trkpt lat="41.586071000" lon="1.858026000">
        <ele>148.18</ele>
        <time>2014-03-23T11:33:50Z</time>
      </trkpt>
      <trkpt lat="41.585907000" lon="1.857786000">
        <ele>147.22</ele>
        <time>2014-03-23T11:33:58Z</time>
      </trkpt>
      <trkpt lat="41.585789000" lon="1.857711000">
        <ele>147.22</ele>
        <time>2014-03-23T11:34:03Z</time>
      </trkpt>
      <trkpt lat="41.585484000" lon="1.857745000">
        <ele>145.78</ele>
        <time>2014-03-23T11:34:13Z</time>
      </trkpt>
      <trkpt lat="41.585201000" lon="1.857834000">
        <ele>144.34</ele>
        <time>2014-03-23T11:34:21Z</time>
      </trkpt>
      <trkpt lat="41.584965000" lon="1.858102000">
        <ele>147.70</ele>
        <time>2014-03-23T11:34:34Z</time>
      </trkpt>
      <trkpt lat="41.584946000" lon="1.858125000">
        <ele>147.22</ele>
        <time>2014-03-23T11:34:35Z</time>
      </trkpt>
      <trkpt lat="41.584896000" lon="1.858268000">
        <ele>146.26</ele>
        <time>2014-03-23T11:34:38Z</time>
      </trkpt>
      <trkpt lat="41.584698000" lon="1.858546000">
        <ele>147.70</ele>
        <time>2014-03-23T11:34:47Z</time>
      </trkpt>
      <trkpt lat="41.584599000" lon="1.858776000">
        <ele>148.18</ele>
        <time>2014-03-23T11:34:56Z</time>
      </trkpt>
      <trkpt lat="41.584751000" lon="1.859362000">
        <ele>149.62</ele>
        <time>2014-03-23T11:35:11Z</time>
      </trkpt>
      <trkpt lat="41.584881000" lon="1.859745000">
        <ele>149.14</ele>
        <time>2014-03-23T11:35:22Z</time>
      </trkpt>
      <trkpt lat="41.584877000" lon="1.860138000">
        <ele>149.14</ele>
        <time>2014-03-23T11:35:31Z</time>
      </trkpt>
      <trkpt lat="41.584763000" lon="1.860615000">
        <ele>151.06</ele>
        <time>2014-03-23T11:35:42Z</time>
      </trkpt>
      <trkpt lat="41.584740000" lon="1.860647000">
        <ele>150.58</ele>
        <time>2014-03-23T11:35:43Z</time>
      </trkpt>
      <trkpt lat="41.584511000" lon="1.860498000">
        <ele>152.51</ele>
        <time>2014-03-23T11:35:51Z</time>
      </trkpt>
      <trkpt lat="41.584156000" lon="1.860150000">
        <ele>154.43</ele>
        <time>2014-03-23T11:36:04Z</time>
      </trkpt>
      <trkpt lat="41.583858000" lon="1.859874000">
        <ele>155.87</ele>
        <time>2014-03-23T11:36:15Z</time>
      </trkpt>
      <trkpt lat="41.583603000" lon="1.860173000">
        <ele>153.95</ele>
        <time>2014-03-23T11:36:25Z</time>
      </trkpt>
      <trkpt lat="41.583332000" lon="1.860255000">
        <ele>154.91</ele>
        <time>2014-03-23T11:36:33Z</time>
      </trkpt>
      <trkpt lat="41.582977000" lon="1.860379000">
        <ele>157.31</ele>
        <time>2014-03-23T11:36:43Z</time>
      </trkpt>
      <trkpt lat="41.582752000" lon="1.860662000">
        <ele>156.35</ele>
        <time>2014-03-23T11:36:52Z</time>
      </trkpt>
      <trkpt lat="41.582462000" lon="1.860676000">
        <ele>157.31</ele>
        <time>2014-03-23T11:37:00Z</time>
      </trkpt>
      <trkpt lat="41.582222000" lon="1.860948000">
        <ele>157.79</ele>
        <time>2014-03-23T11:37:09Z</time>
      </trkpt>
      <trkpt lat="41.582176000" lon="1.861029000">
        <ele>157.79</ele>
        <time>2014-03-23T11:37:11Z</time>
      </trkpt>
      <trkpt lat="41.581997000" lon="1.861178000">
        <ele>156.83</ele>
        <time>2014-03-23T11:37:16Z</time>
      </trkpt>
      <trkpt lat="41.581905000" lon="1.861362000">
        <ele>156.83</ele>
        <time>2014-03-23T11:37:20Z</time>
      </trkpt>
      <trkpt lat="41.581890000" lon="1.861477000">
        <ele>159.72</ele>
        <time>2014-03-23T11:37:22Z</time>
      </trkpt>
      <trkpt lat="41.581882000" lon="1.861584000">
        <ele>156.83</ele>
        <time>2014-03-23T11:37:24Z</time>
      </trkpt>
      <trkpt lat="41.581852000" lon="1.861749000">
        <ele>156.35</ele>
        <time>2014-03-23T11:37:27Z</time>
      </trkpt>
      <trkpt lat="41.581818000" lon="1.861854000">
        <ele>155.87</ele>
        <time>2014-03-23T11:37:29Z</time>
      </trkpt>
      <trkpt lat="41.581718000" lon="1.862119000">
        <ele>154.43</ele>
        <time>2014-03-23T11:37:34Z</time>
      </trkpt>
      <trkpt lat="41.581581000" lon="1.862216000">
        <ele>154.43</ele>
        <time>2014-03-23T11:37:38Z</time>
      </trkpt>
      <trkpt lat="41.581379000" lon="1.862135000">
        <ele>155.87</ele>
        <time>2014-03-23T11:37:45Z</time>
      </trkpt>
      <trkpt lat="41.580994000" lon="1.862218000">
        <ele>157.31</ele>
        <time>2014-03-23T11:37:56Z</time>
      </trkpt>
      <trkpt lat="41.580639000" lon="1.862319000">
        <ele>156.83</ele>
        <time>2014-03-23T11:38:07Z</time>
      </trkpt>
      <trkpt lat="41.580292000" lon="1.862402000">
        <ele>157.31</ele>
        <time>2014-03-23T11:38:17Z</time>
      </trkpt>
      <trkpt lat="41.580017000" lon="1.862392000">
        <ele>157.31</ele>
        <time>2014-03-23T11:38:27Z</time>
      </trkpt>
      <trkpt lat="41.579792000" lon="1.862420000">
        <ele>159.72</ele>
        <time>2014-03-23T11:38:36Z</time>
      </trkpt>
      <trkpt lat="41.579334000" lon="1.862528000">
        <ele>161.16</ele>
        <time>2014-03-23T11:38:50Z</time>
      </trkpt>
      <trkpt lat="41.579033000" lon="1.862634000">
        <ele>162.12</ele>
        <time>2014-03-23T11:39:01Z</time>
      </trkpt>
      <trkpt lat="41.578640000" lon="1.862670000">
        <ele>163.56</ele>
        <time>2014-03-23T11:39:13Z</time>
      </trkpt>
      <trkpt lat="41.578346000" lon="1.862845000">
        <ele>163.08</ele>
        <time>2014-03-23T11:39:22Z</time>
      </trkpt>
      <trkpt lat="41.578228000" lon="1.862857000">
        <ele>162.60</ele>
        <time>2014-03-23T11:39:25Z</time>
      </trkpt>
      <trkpt lat="41.578072000" lon="1.862866000">
        <ele>162.60</ele>
        <time>2014-03-23T11:39:29Z</time>
      </trkpt>
      <trkpt lat="41.577766000" lon="1.863037000">
        <ele>162.60</ele>
        <time>2014-03-23T11:39:38Z</time>
      </trkpt>
      <trkpt lat="41.577610000" lon="1.863336000">
        <ele>160.20</ele>
        <time>2014-03-23T11:39:44Z</time>
      </trkpt>
      <trkpt lat="41.577358000" lon="1.863451000">
        <ele>159.72</ele>
        <time>2014-03-23T11:39:50Z</time>
      </trkpt>
      <trkpt lat="41.577137000" lon="1.863445000">
        <ele>159.72</ele>
        <time>2014-03-23T11:39:58Z</time>
      </trkpt>
      <trkpt lat="41.576920000" lon="1.863858000">
        <ele>156.83</ele>
        <time>2014-03-23T11:40:07Z</time>
      </trkpt>
      <trkpt lat="41.576912000" lon="1.864005000">
        <ele>157.31</ele>
        <time>2014-03-23T11:40:09Z</time>
      </trkpt>
      <trkpt lat="41.576969000" lon="1.864174000">
        <ele>155.87</ele>
        <time>2014-03-23T11:40:12Z</time>
      </trkpt>
      <trkpt lat="41.576996000" lon="1.864502000">
        <ele>155.87</ele>
        <time>2014-03-23T11:40:18Z</time>
      </trkpt>
      <trkpt lat="41.576904000" lon="1.864755000">
        <ele>157.31</ele>
        <time>2014-03-23T11:40:24Z</time>
      </trkpt>
      <trkpt lat="41.576694000" lon="1.865093000">
        <ele>159.24</ele>
        <time>2014-03-23T11:40:35Z</time>
      </trkpt>
      <trkpt lat="41.576466000" lon="1.865168000">
        <ele>161.16</ele>
        <time>2014-03-23T11:40:42Z</time>
      </trkpt>
      <trkpt lat="41.576454000" lon="1.865413000">
        <ele>160.68</ele>
        <time>2014-03-23T11:40:48Z</time>
      </trkpt>
      <trkpt lat="41.576561000" lon="1.865621000">
        <ele>160.20</ele>
        <time>2014-03-23T11:40:52Z</time>
      </trkpt>
      <trkpt lat="41.576611000" lon="1.865988000">
        <ele>159.72</ele>
        <time>2014-03-23T11:40:58Z</time>
      </trkpt>
      <trkpt lat="41.576504000" lon="1.866226000">
        <ele>159.72</ele>
        <time>2014-03-23T11:41:03Z</time>
      </trkpt>
      <trkpt lat="41.576328000" lon="1.866303000">
        <ele>162.60</ele>
        <time>2014-03-23T11:41:10Z</time>
      </trkpt>
      <trkpt lat="41.576263000" lon="1.866659000">
        <ele>163.08</ele>
        <time>2014-03-23T11:41:20Z</time>
      </trkpt>
      <trkpt lat="41.576092000" lon="1.866819000">
        <ele>165.48</ele>
        <time>2014-03-23T11:41:29Z</time>
      </trkpt>
      <trkpt lat="41.575901000" lon="1.866947000">
        <ele>168.85</ele>
        <time>2014-03-23T11:41:42Z</time>
      </trkpt>
      <trkpt lat="41.575813000" lon="1.867026000">
        <ele>169.81</ele>
        <time>2014-03-23T11:41:50Z</time>
      </trkpt>
      <trkpt lat="41.575657000" lon="1.867244000">
        <ele>172.21</ele>
        <time>2014-03-23T11:42:04Z</time>
      </trkpt>
      <trkpt lat="41.575649000" lon="1.867272000">
        <ele>172.69</ele>
        <time>2014-03-23T11:42:05Z</time>
      </trkpt>
      <trkpt lat="41.575672000" lon="1.867488000">
        <ele>173.17</ele>
        <time>2014-03-23T11:42:14Z</time>
      </trkpt>
      <trkpt lat="41.575684000" lon="1.867601000">
        <ele>175.10</ele>
        <time>2014-03-23T11:42:18Z</time>
      </trkpt>
      <trkpt lat="41.575844000" lon="1.867816000">
        <ele>174.62</ele>
        <time>2014-03-23T11:42:29Z</time>
      </trkpt>
      <trkpt lat="41.575886000" lon="1.867801000">
        <ele>175.58</ele>
        <time>2014-03-23T11:42:31Z</time>
      </trkpt>
      <trkpt lat="41.575989000" lon="1.867850000">
        <ele>176.54</ele>
        <time>2014-03-23T11:42:37Z</time>
      </trkpt>
      <trkpt lat="41.576408000" lon="1.867891000">
        <ele>177.02</ele>
        <time>2014-03-23T11:42:52Z</time>
      </trkpt>
      <trkpt lat="41.576645000" lon="1.868209000">
        <ele>178.46</ele>
        <time>2014-03-23T11:43:04Z</time>
      </trkpt>
      <trkpt lat="41.576843000" lon="1.868550000">
        <ele>177.98</ele>
        <time>2014-03-23T11:43:13Z</time>
      </trkpt>
      <trkpt lat="41.576931000" lon="1.868970000">
        <ele>178.46</ele>
        <time>2014-03-23T11:43:22Z</time>
      </trkpt>
      <trkpt lat="41.577229000" lon="1.869422000">
        <ele>180.87</ele>
        <time>2014-03-23T11:43:35Z</time>
      </trkpt>
      <trkpt lat="41.577267000" lon="1.869767000">
        <ele>181.35</ele>
        <time>2014-03-23T11:43:43Z</time>
      </trkpt>
      <trkpt lat="41.577320000" lon="1.869850000">
        <ele>182.79</ele>
        <time>2014-03-23T11:43:47Z</time>
      </trkpt>
      <trkpt lat="41.577511000" lon="1.870159000">
        <ele>183.75</ele>
        <time>2014-03-23T11:43:59Z</time>
      </trkpt>
      <trkpt lat="41.577530000" lon="1.870477000">
        <ele>184.23</ele>
        <time>2014-03-23T11:44:07Z</time>
      </trkpt>
      <trkpt lat="41.577450000" lon="1.870565000">
        <ele>184.71</ele>
        <time>2014-03-23T11:44:11Z</time>
      </trkpt>
      <trkpt lat="41.577415000" lon="1.870760000">
        <ele>186.15</ele>
        <time>2014-03-23T11:44:17Z</time>
      </trkpt>
      <trkpt lat="41.577286000" lon="1.871156000">
        <ele>188.08</ele>
        <time>2014-03-23T11:44:31Z</time>
      </trkpt>
      <trkpt lat="41.577259000" lon="1.871193000">
        <ele>188.08</ele>
        <time>2014-03-23T11:44:33Z</time>
      </trkpt>
      <trkpt lat="41.577084000" lon="1.871289000">
        <ele>191.44</ele>
        <time>2014-03-23T11:44:45Z</time>
      </trkpt>
      <trkpt lat="41.576908000" lon="1.871216000">
        <ele>193.36</ele>
        <time>2014-03-23T11:44:56Z</time>
      </trkpt>
      <trkpt lat="41.576847000" lon="1.871169000">
        <ele>193.84</ele>
        <time>2014-03-23T11:45:00Z</time>
      </trkpt>
      <trkpt lat="41.576649000" lon="1.871053000">
        <ele>196.73</ele>
        <time>2014-03-23T11:45:11Z</time>
      </trkpt>
      <trkpt lat="41.576427000" lon="1.871163000">
        <ele>198.17</ele>
        <time>2014-03-23T11:45:24Z</time>
      </trkpt>
      <trkpt lat="41.576389000" lon="1.871230000">
        <ele>198.65</ele>
        <time>2014-03-23T11:45:27Z</time>
      </trkpt>
      <trkpt lat="41.576180000" lon="1.871508000">
        <ele>201.53</ele>
        <time>2014-03-23T11:45:42Z</time>
      </trkpt>
      <trkpt lat="41.576122000" lon="1.871639000">
        <ele>202.01</ele>
        <time>2014-03-23T11:45:48Z</time>
      </trkpt>
      <trkpt lat="41.575909000" lon="1.871812000">
        <ele>205.38</ele>
        <time>2014-03-23T11:46:02Z</time>
      </trkpt>
      <trkpt lat="41.575684000" lon="1.871925000">
        <ele>208.74</ele>
        <time>2014-03-23T11:46:15Z</time>
      </trkpt>
      <trkpt lat="41.575500000" lon="1.872090000">
        <ele>209.70</ele>
        <time>2014-03-23T11:46:26Z</time>
      </trkpt>
      <trkpt lat="41.575237000" lon="1.872258000">
        <ele>212.11</ele>
        <time>2014-03-23T11:46:40Z</time>
      </trkpt>
      <trkpt lat="41.575111000" lon="1.872326000">
        <ele>214.99</ele>
        <time>2014-03-23T11:46:48Z</time>
      </trkpt>
      <trkpt lat="41.575100000" lon="1.872332000">
        <ele>214.99</ele>
        <time>2014-03-23T11:46:49Z</time>
      </trkpt>
      <trkpt lat="41.575008000" lon="1.872389000">
        <ele>215.95</ele>
        <time>2014-03-23T11:46:55Z</time>
      </trkpt>
      <trkpt lat="41.574902000" lon="1.872440000">
        <ele>218.36</ele>
        <time>2014-03-23T11:47:02Z</time>
      </trkpt>
      <trkpt lat="41.574715000" lon="1.872590000">
        <ele>221.72</ele>
        <time>2014-03-23T11:47:16Z</time>
      </trkpt>
      <trkpt lat="41.574589000" lon="1.872662000">
        <ele>223.64</ele>
        <time>2014-03-23T11:47:24Z</time>
      </trkpt>
      <trkpt lat="41.574406000" lon="1.872549000">
        <ele>226.53</ele>
        <time>2014-03-23T11:47:37Z</time>
      </trkpt>
      <trkpt lat="41.574383000" lon="1.872529000">
        <ele>226.53</ele>
        <time>2014-03-23T11:47:39Z</time>
      </trkpt>
      <trkpt lat="41.574310000" lon="1.872393000">
        <ele>226.53</ele>
        <time>2014-03-23T11:47:46Z</time>
      </trkpt>
      <trkpt lat="41.574272000" lon="1.872332000">
        <ele>221.24</ele>
        <time>2014-03-23T11:47:49Z</time>
      </trkpt>
      <trkpt lat="41.574257000" lon="1.872314000">
        <ele>225.57</ele>
        <time>2014-03-23T11:47:50Z</time>
      </trkpt>
      <trkpt lat="41.574062000" lon="1.872229000">
        <ele>225.09</ele>
        <time>2014-03-23T11:47:58Z</time>
      </trkpt>
      <trkpt lat="41.573830000" lon="1.872221000">
        <ele>221.72</ele>
        <time>2014-03-23T11:48:03Z</time>
      </trkpt>
      <trkpt lat="41.573612000" lon="1.872176000">
        <ele>218.36</ele>
        <time>2014-03-23T11:48:07Z</time>
      </trkpt>
      <trkpt lat="41.573364000" lon="1.872100000">
        <ele>213.55</ele>
        <time>2014-03-23T11:48:11Z</time>
      </trkpt>
      <trkpt lat="41.573208000" lon="1.871975000">
        <ele>210.67</ele>
        <time>2014-03-23T11:48:14Z</time>
      </trkpt>
      <trkpt lat="41.572945000" lon="1.871794000">
        <ele>207.30</ele>
        <time>2014-03-23T11:48:18Z</time>
      </trkpt>
      <trkpt lat="41.572750000" lon="1.871688000">
        <ele>205.86</ele>
        <time>2014-03-23T11:48:21Z</time>
      </trkpt>
      <trkpt lat="41.572571000" lon="1.871606000">
        <ele>204.90</ele>
        <time>2014-03-23T11:48:24Z</time>
      </trkpt>
      <trkpt lat="41.572468000" lon="1.871552000">
        <ele>203.94</ele>
        <time>2014-03-23T11:48:26Z</time>
      </trkpt>
      <trkpt lat="41.572289000" lon="1.871461000">
        <ele>201.53</ele>
        <time>2014-03-23T11:48:29Z</time>
      </trkpt>
      <trkpt lat="41.572113000" lon="1.871425000">
        <ele>199.61</ele>
        <time>2014-03-23T11:48:32Z</time>
      </trkpt>
      <trkpt lat="41.571964000" lon="1.871363000">
        <ele>198.17</ele>
        <time>2014-03-23T11:48:35Z</time>
      </trkpt>
      <trkpt lat="41.571934000" lon="1.871312000">
        <ele>197.69</ele>
        <time>2014-03-23T11:48:36Z</time>
      </trkpt>
      <trkpt lat="41.571983000" lon="1.870838000">
        <ele>197.69</ele>
        <time>2014-03-23T11:48:47Z</time>
      </trkpt>
      <trkpt lat="41.572063000" lon="1.870681000">
        <ele>194.32</ele>
        <time>2014-03-23T11:48:50Z</time>
      </trkpt>
      <trkpt lat="41.572113000" lon="1.870545000">
        <ele>191.92</ele>
        <time>2014-03-23T11:48:52Z</time>
      </trkpt>
      <trkpt lat="41.572098000" lon="1.870176000">
        <ele>190.96</ele>
        <time>2014-03-23T11:48:57Z</time>
      </trkpt>
      <trkpt lat="41.571926000" lon="1.869874000">
        <ele>188.56</ele>
        <time>2014-03-23T11:49:02Z</time>
      </trkpt>
      <trkpt lat="41.571808000" lon="1.869734000">
        <ele>186.63</ele>
        <time>2014-03-23T11:49:05Z</time>
      </trkpt>
      <trkpt lat="41.571728000" lon="1.869491000">
        <ele>184.71</ele>
        <time>2014-03-23T11:49:09Z</time>
      </trkpt>
      <trkpt lat="41.571709000" lon="1.869350000">
        <ele>183.75</ele>
        <time>2014-03-23T11:49:11Z</time>
      </trkpt>
      <trkpt lat="41.571671000" lon="1.869197000">
        <ele>181.35</ele>
        <time>2014-03-23T11:49:13Z</time>
      </trkpt>
      <trkpt lat="41.571632000" lon="1.868806000">
        <ele>177.50</ele>
        <time>2014-03-23T11:49:18Z</time>
      </trkpt>
      <trkpt lat="41.571590000" lon="1.868470000">
        <ele>176.54</ele>
        <time>2014-03-23T11:49:22Z</time>
      </trkpt>
      <trkpt lat="41.571568000" lon="1.868287000">
        <ele>175.10</ele>
        <time>2014-03-23T11:49:25Z</time>
      </trkpt>
      <trkpt lat="41.571560000" lon="1.868223000">
        <ele>175.10</ele>
        <time>2014-03-23T11:49:26Z</time>
      </trkpt>
      <trkpt lat="41.571518000" lon="1.868028000">
        <ele>172.21</ele>
        <time>2014-03-23T11:49:29Z</time>
      </trkpt>
      <trkpt lat="41.571495000" lon="1.867908000">
        <ele>171.73</ele>
        <time>2014-03-23T11:49:31Z</time>
      </trkpt>
      <trkpt lat="41.571438000" lon="1.867768000">
        <ele>168.85</ele>
        <time>2014-03-23T11:49:36Z</time>
      </trkpt>
      <trkpt lat="41.571400000" lon="1.868022000">
        <ele>167.41</ele>
        <time>2014-03-23T11:49:42Z</time>
      </trkpt>
      <trkpt lat="41.571350000" lon="1.868269000">
        <ele>166.45</ele>
        <time>2014-03-23T11:49:47Z</time>
      </trkpt>
      <trkpt lat="41.571327000" lon="1.868601000">
        <ele>163.56</ele>
        <time>2014-03-23T11:49:53Z</time>
      </trkpt>
      <trkpt lat="41.571186000" lon="1.868997000">
        <ele>158.27</ele>
        <time>2014-03-23T11:49:59Z</time>
      </trkpt>
      <trkpt lat="41.571163000" lon="1.869125000">
        <ele>156.35</ele>
        <time>2014-03-23T11:50:01Z</time>
      </trkpt>
      <trkpt lat="41.571026000" lon="1.869391000">
        <ele>152.51</ele>
        <time>2014-03-23T11:50:06Z</time>
      </trkpt>
      <trkpt lat="41.570988000" lon="1.869720000">
        <ele>150.10</ele>
        <time>2014-03-23T11:50:11Z</time>
      </trkpt>
      <trkpt lat="41.571026000" lon="1.869843000">
        <ele>149.14</ele>
        <time>2014-03-23T11:50:13Z</time>
      </trkpt>
      <trkpt lat="41.571251000" lon="1.870081000">
        <ele>149.62</ele>
        <time>2014-03-23T11:50:20Z</time>
      </trkpt>
      <trkpt lat="41.571323000" lon="1.870156000">
        <ele>150.10</ele>
        <time>2014-03-23T11:50:22Z</time>
      </trkpt>
      <trkpt lat="41.571293000" lon="1.870492000">
        <ele>150.10</ele>
        <time>2014-03-23T11:50:29Z</time>
      </trkpt>
      <trkpt lat="41.571205000" lon="1.870904000">
        <ele>150.58</ele>
        <time>2014-03-23T11:50:37Z</time>
      </trkpt>
      <trkpt lat="41.571140000" lon="1.871033000">
        <ele>150.58</ele>
        <time>2014-03-23T11:50:40Z</time>
      </trkpt>
      <trkpt lat="41.571171000" lon="1.871304000">
        <ele>150.58</ele>
        <time>2014-03-23T11:50:45Z</time>
      </trkpt>
      <trkpt lat="41.571400000" lon="1.871923000">
        <ele>150.10</ele>
        <time>2014-03-23T11:50:57Z</time>
      </trkpt>
      <trkpt lat="41.571468000" lon="1.872252000">
        <ele>149.14</ele>
        <time>2014-03-23T11:51:02Z</time>
      </trkpt>
      <trkpt lat="41.571598000" lon="1.872489000">
        <ele>148.18</ele>
        <time>2014-03-23T11:51:06Z</time>
      </trkpt>
      <trkpt lat="41.571712000" lon="1.872615000">
        <ele>146.74</ele>
        <time>2014-03-23T11:51:09Z</time>
      </trkpt>
      <trkpt lat="41.571754000" lon="1.872934000">
        <ele>143.85</ele>
        <time>2014-03-23T11:51:13Z</time>
      </trkpt>
      <trkpt lat="41.571800000" lon="1.873748000">
        <ele>140.49</ele>
        <time>2014-03-23T11:51:22Z</time>
      </trkpt>
      <trkpt lat="41.571770000" lon="1.873829000">
        <ele>140.49</ele>
        <time>2014-03-23T11:51:23Z</time>
      </trkpt>
      <trkpt lat="41.571701000" lon="1.873973000">
        <ele>140.01</ele>
        <time>2014-03-23T11:51:25Z</time>
      </trkpt>
      <trkpt lat="41.571598000" lon="1.874170000">
        <ele>138.57</ele>
        <time>2014-03-23T11:51:28Z</time>
      </trkpt>
      <trkpt lat="41.571396000" lon="1.874401000">
        <ele>135.68</ele>
        <time>2014-03-23T11:51:33Z</time>
      </trkpt>
      <trkpt lat="41.571426000" lon="1.874638000">
        <ele>131.84</ele>
        <time>2014-03-23T11:51:37Z</time>
      </trkpt>
      <trkpt lat="41.571712000" lon="1.875115000">
        <ele>128.95</ele>
        <time>2014-03-23T11:51:44Z</time>
      </trkpt>
      <trkpt lat="41.571815000" lon="1.875375000">
        <ele>127.99</ele>
        <time>2014-03-23T11:51:47Z</time>
      </trkpt>
      <trkpt lat="41.571838000" lon="1.875561000">
        <ele>127.51</ele>
        <time>2014-03-23T11:51:49Z</time>
      </trkpt>
      <trkpt lat="41.571835000" lon="1.875793000">
        <ele>127.03</ele>
        <time>2014-03-23T11:51:52Z</time>
      </trkpt>
      <trkpt lat="41.571854000" lon="1.875995000">
        <ele>124.15</ele>
        <time>2014-03-23T11:51:55Z</time>
      </trkpt>
      <trkpt lat="41.571815000" lon="1.876204000">
        <ele>121.74</ele>
        <time>2014-03-23T11:51:58Z</time>
      </trkpt>
      <trkpt lat="41.571743000" lon="1.876417000">
        <ele>118.86</ele>
        <time>2014-03-23T11:52:01Z</time>
      </trkpt>
      <trkpt lat="41.571697000" lon="1.876666000">
        <ele>116.46</ele>
        <time>2014-03-23T11:52:04Z</time>
      </trkpt>
      <trkpt lat="41.571484000" lon="1.876974000">
        <ele>112.13</ele>
        <time>2014-03-23T11:52:10Z</time>
      </trkpt>
      <trkpt lat="41.571163000" lon="1.877151000">
        <ele>108.77</ele>
        <time>2014-03-23T11:52:16Z</time>
      </trkpt>
      <trkpt lat="41.571056000" lon="1.877388000">
        <ele>106.36</ele>
        <time>2014-03-23T11:52:20Z</time>
      </trkpt>
      <trkpt lat="41.570889000" lon="1.877704000">
        <ele>100.60</ele>
        <time>2014-03-23T11:52:25Z</time>
      </trkpt>
      <trkpt lat="41.570839000" lon="1.877771000">
        <ele>99.15</ele>
        <time>2014-03-23T11:52:26Z</time>
      </trkpt>
      <trkpt lat="41.570694000" lon="1.877997000">
        <ele>94.35</ele>
        <time>2014-03-23T11:52:29Z</time>
      </trkpt>
      <trkpt lat="41.570595000" lon="1.878164000">
        <ele>90.98</ele>
        <time>2014-03-23T11:52:31Z</time>
      </trkpt>
      <trkpt lat="41.570423000" lon="1.878416000">
        <ele>87.62</ele>
        <time>2014-03-23T11:52:34Z</time>
      </trkpt>
      <trkpt lat="41.570232000" lon="1.878814000">
        <ele>87.14</ele>
        <time>2014-03-23T11:52:39Z</time>
      </trkpt>
      <trkpt lat="41.570152000" lon="1.879038000">
        <ele>88.10</ele>
        <time>2014-03-23T11:52:43Z</time>
      </trkpt>
      <trkpt lat="41.569977000" lon="1.879429000">
        <ele>88.58</ele>
        <time>2014-03-23T11:52:51Z</time>
      </trkpt>
      <trkpt lat="41.569824000" lon="1.879615000">
        <ele>89.06</ele>
        <time>2014-03-23T11:52:56Z</time>
      </trkpt>
      <trkpt lat="41.569344000" lon="1.879986000">
        <ele>92.42</ele>
        <time>2014-03-23T11:53:10Z</time>
      </trkpt>
      <trkpt lat="41.569096000" lon="1.880188000">
        <ele>94.35</ele>
        <time>2014-03-23T11:53:18Z</time>
      </trkpt>
      <trkpt lat="41.568752000" lon="1.880488000">
        <ele>96.27</ele>
        <time>2014-03-23T11:53:30Z</time>
      </trkpt>
      <trkpt lat="41.568630000" lon="1.880635000">
        <ele>96.27</ele>
        <time>2014-03-23T11:53:35Z</time>
      </trkpt>
      <trkpt lat="41.568295000" lon="1.880782000">
        <ele>97.23</ele>
        <time>2014-03-23T11:53:46Z</time>
      </trkpt>
      <trkpt lat="41.568218000" lon="1.880798000">
        <ele>97.23</ele>
        <time>2014-03-23T11:53:48Z</time>
      </trkpt>
      <trkpt lat="41.567905000" lon="1.880526000">
        <ele>97.71</ele>
        <time>2014-03-23T11:53:58Z</time>
      </trkpt>
      <trkpt lat="41.567757000" lon="1.880352000">
        <ele>97.23</ele>
        <time>2014-03-23T11:54:03Z</time>
      </trkpt>
      <trkpt lat="41.567516000" lon="1.880318000">
        <ele>95.31</ele>
        <time>2014-03-23T11:54:09Z</time>
      </trkpt>
      <trkpt lat="41.567406000" lon="1.880412000">
        <ele>94.35</ele>
        <time>2014-03-23T11:54:12Z</time>
      </trkpt>
      <trkpt lat="41.567120000" lon="1.880527000">
        <ele>93.39</ele>
        <time>2014-03-23T11:54:18Z</time>
      </trkpt>
      <trkpt lat="41.566856000" lon="1.880425000">
        <ele>90.02</ele>
        <time>2014-03-23T11:54:23Z</time>
      </trkpt>
      <trkpt lat="41.566776000" lon="1.880404000">
        <ele>89.06</ele>
        <time>2014-03-23T11:54:30Z</time>
      </trkpt>
      <trkpt lat="41.566776000" lon="1.880404000">
        <ele>89.06</ele>
        <time>2014-03-23T11:54:46Z</time>
      </trkpt>
      <trkpt lat="41.566776000" lon="1.880404000">
        <ele>89.54</ele>
        <time>2014-03-23T11:54:54Z</time>
      </trkpt>
      <trkpt lat="41.566692000" lon="1.880372000">
        <ele>89.54</ele>
        <time>2014-03-23T11:54:58Z</time>
      </trkpt>
      <trkpt lat="41.566216000" lon="1.880675000">
        <ele>89.06</ele>
        <time>2014-03-23T11:55:10Z</time>
      </trkpt>
      <trkpt lat="41.566128000" lon="1.880734000">
        <ele>85.69</ele>
        <time>2014-03-23T11:55:12Z</time>
      </trkpt>
      <trkpt lat="41.566086000" lon="1.880761000">
        <ele>89.54</ele>
        <time>2014-03-23T11:55:13Z</time>
      </trkpt>
      <trkpt lat="41.565567000" lon="1.881060000">
        <ele>89.54</ele>
        <time>2014-03-23T11:55:25Z</time>
      </trkpt>
      <trkpt lat="41.565105000" lon="1.881253000">
        <ele>89.54</ele>
        <time>2014-03-23T11:55:37Z</time>
      </trkpt>
      <trkpt lat="41.565006000" lon="1.881286000">
        <ele>89.54</ele>
        <time>2014-03-23T11:55:39Z</time>
      </trkpt>
      <trkpt lat="41.564899000" lon="1.881333000">
        <ele>90.02</ele>
        <time>2014-03-23T11:55:41Z</time>
      </trkpt>
      <trkpt lat="41.563908000" lon="1.881711000">
        <ele>88.58</ele>
        <time>2014-03-23T11:55:58Z</time>
      </trkpt>
      <trkpt lat="41.562908000" lon="1.881811000">
        <ele>86.18</ele>
        <time>2014-03-23T11:56:11Z</time>
      </trkpt>
      <trkpt lat="41.561996000" lon="1.881545000">
        <ele>87.62</ele>
        <time>2014-03-23T11:56:24Z</time>
      </trkpt>
      <trkpt lat="41.561253000" lon="1.881317000">
        <ele>90.50</ele>
        <time>2014-03-23T11:56:37Z</time>
      </trkpt>
      <trkpt lat="41.560356000" lon="1.881172000">
        <ele>93.39</ele>
        <time>2014-03-23T11:56:53Z</time>
      </trkpt>
      <trkpt lat="41.559662000" lon="1.881136000">
        <ele>93.39</ele>
        <time>2014-03-23T11:57:07Z</time>
      </trkpt>
      <trkpt lat="41.558914000" lon="1.881081000">
        <ele>94.83</ele>
        <time>2014-03-23T11:57:22Z</time>
      </trkpt>
      <trkpt lat="41.558422000" lon="1.880985000">
        <ele>95.79</ele>
        <time>2014-03-23T11:57:32Z</time>
      </trkpt>
      <trkpt lat="41.557995000" lon="1.880772000">
        <ele>97.23</ele>
        <time>2014-03-23T11:57:41Z</time>
      </trkpt>
      <trkpt lat="41.557308000" lon="1.880189000">
        <ele>99.15</ele>
        <time>2014-03-23T11:57:57Z</time>
      </trkpt>
      <trkpt lat="41.556488000" lon="1.879471000">
        <ele>100.11</ele>
        <time>2014-03-23T11:58:16Z</time>
      </trkpt>
      <trkpt lat="41.556099000" lon="1.879242000">
        <ele>99.63</ele>
        <time>2014-03-23T11:58:24Z</time>
      </trkpt>
      <trkpt lat="41.555264000" lon="1.878797000">
        <ele>98.19</ele>
        <time>2014-03-23T11:58:40Z</time>
      </trkpt>
      <trkpt lat="41.554314000" lon="1.878708000">
        <ele>97.23</ele>
        <time>2014-03-23T11:58:55Z</time>
      </trkpt>
      <trkpt lat="41.554253000" lon="1.878708000">
        <ele>97.23</ele>
        <time>2014-03-23T11:58:56Z</time>
      </trkpt>
      <trkpt lat="41.554131000" lon="1.878755000">
        <ele>99.15</ele>
        <time>2014-03-23T11:58:58Z</time>
      </trkpt>
      <trkpt lat="41.553959000" lon="1.879171000">
        <ele>98.67</ele>
        <time>2014-03-23T11:59:04Z</time>
      </trkpt>
      <trkpt lat="41.553982000" lon="1.879297000">
        <ele>99.63</ele>
        <time>2014-03-23T11:59:06Z</time>
      </trkpt>
      <trkpt lat="41.553993000" lon="1.879535000">
        <ele>102.04</ele>
        <time>2014-03-23T11:59:10Z</time>
      </trkpt>
      <trkpt lat="41.554012000" lon="1.879701000">
        <ele>103.96</ele>
        <time>2014-03-23T11:59:13Z</time>
      </trkpt>
      <trkpt lat="41.554081000" lon="1.880023000">
        <ele>107.81</ele>
        <time>2014-03-23T11:59:20Z</time>
      </trkpt>
      <trkpt lat="41.554127000" lon="1.880270000">
        <ele>105.88</ele>
        <time>2014-03-23T11:59:25Z</time>
      </trkpt>
      <trkpt lat="41.554054000" lon="1.880521000">
        <ele>103.00</ele>
        <time>2014-03-23T11:59:29Z</time>
      </trkpt>
      <trkpt lat="41.553947000" lon="1.880571000">
        <ele>103.00</ele>
        <time>2014-03-23T11:59:31Z</time>
      </trkpt>
      <trkpt lat="41.553799000" lon="1.880601000">
        <ele>103.00</ele>
        <time>2014-03-23T11:59:34Z</time>
      </trkpt>
      <trkpt lat="41.553703000" lon="1.880618000">
        <ele>103.48</ele>
        <time>2014-03-23T11:59:36Z</time>
      </trkpt>
      <trkpt lat="41.553349000" lon="1.880665000">
        <ele>102.52</ele>
        <time>2014-03-23T11:59:43Z</time>
      </trkpt>
      <trkpt lat="41.552807000" lon="1.880743000">
        <ele>102.52</ele>
        <time>2014-03-23T11:59:53Z</time>
      </trkpt>
      <trkpt lat="41.552414000" lon="1.880790000">
        <ele>103.48</ele>
        <time>2014-03-23T12:00:00Z</time>
      </trkpt>
      <trkpt lat="41.552166000" lon="1.880855000">
        <ele>103.00</ele>
        <time>2014-03-23T12:00:05Z</time>
      </trkpt>
      <trkpt lat="41.551991000" lon="1.880884000">
        <ele>102.52</ele>
        <time>2014-03-23T12:00:09Z</time>
      </trkpt>
      <trkpt lat="41.551788000" lon="1.880917000">
        <ele>103.00</ele>
        <time>2014-03-23T12:00:14Z</time>
      </trkpt>
      <trkpt lat="41.551704000" lon="1.880947000">
        <ele>103.00</ele>
        <time>2014-03-23T12:00:16Z</time>
      </trkpt>
      <trkpt lat="41.551590000" lon="1.881011000">
        <ele>103.00</ele>
        <time>2014-03-23T12:00:19Z</time>
      </trkpt>
      <trkpt lat="41.551353000" lon="1.881258000">
        <ele>103.96</ele>
        <time>2014-03-23T12:00:26Z</time>
      </trkpt>
      <trkpt lat="41.551285000" lon="1.881329000">
        <ele>103.00</ele>
        <time>2014-03-23T12:00:28Z</time>
      </trkpt>
      <trkpt lat="41.551250000" lon="1.881364000">
        <ele>103.00</ele>
        <time>2014-03-23T12:00:29Z</time>
      </trkpt>
      <trkpt lat="41.551182000" lon="1.881447000">
        <ele>102.52</ele>
        <time>2014-03-23T12:00:31Z</time>
      </trkpt>
      <trkpt lat="41.551014000" lon="1.881620000">
        <ele>103.96</ele>
        <time>2014-03-23T12:00:36Z</time>
      </trkpt>
      <trkpt lat="41.550388000" lon="1.882323000">
        <ele>102.04</ele>
        <time>2014-03-23T12:00:53Z</time>
      </trkpt>
      <trkpt lat="41.550129000" lon="1.882623000">
        <ele>101.08</ele>
        <time>2014-03-23T12:01:00Z</time>
      </trkpt>
      <trkpt lat="41.549889000" lon="1.882884000">
        <ele>102.52</ele>
        <time>2014-03-23T12:01:07Z</time>
      </trkpt>
      <trkpt lat="41.549629000" lon="1.883209000">
        <ele>101.56</ele>
        <time>2014-03-23T12:01:14Z</time>
      </trkpt>
      <trkpt lat="41.549210000" lon="1.883468000">
        <ele>101.08</ele>
        <time>2014-03-23T12:01:23Z</time>
      </trkpt>
      <trkpt lat="41.549168000" lon="1.883671000">
        <ele>101.56</ele>
        <time>2014-03-23T12:01:26Z</time>
      </trkpt>
      <trkpt lat="41.548981000" lon="1.884069000">
        <ele>101.56</ele>
        <time>2014-03-23T12:01:33Z</time>
      </trkpt>
      <trkpt lat="41.548897000" lon="1.884171000">
        <ele>101.08</ele>
        <time>2014-03-23T12:01:35Z</time>
      </trkpt>
      <trkpt lat="41.548332000" lon="1.885000000">
        <ele>101.08</ele>
        <time>2014-03-23T12:01:50Z</time>
      </trkpt>
      <trkpt lat="41.548149000" lon="1.885275000">
        <ele>101.08</ele>
        <time>2014-03-23T12:01:55Z</time>
      </trkpt>
      <trkpt lat="41.548031000" lon="1.885408000">
        <ele>102.04</ele>
        <time>2014-03-23T12:01:58Z</time>
      </trkpt>
      <trkpt lat="41.547752000" lon="1.885681000">
        <ele>103.48</ele>
        <time>2014-03-23T12:02:06Z</time>
      </trkpt>
      <trkpt lat="41.547710000" lon="1.885848000">
        <ele>103.96</ele>
        <time>2014-03-23T12:02:09Z</time>
      </trkpt>
      <trkpt lat="41.547600000" lon="1.886031000">
        <ele>105.40</ele>
        <time>2014-03-23T12:02:13Z</time>
      </trkpt>
      <trkpt lat="41.547333000" lon="1.886408000">
        <ele>107.32</ele>
        <time>2014-03-23T12:02:22Z</time>
      </trkpt>
      <trkpt lat="41.546913000" lon="1.886948000">
        <ele>110.21</ele>
        <time>2014-03-23T12:02:37Z</time>
      </trkpt>
      <trkpt lat="41.546661000" lon="1.887485000">
        <ele>113.09</ele>
        <time>2014-03-23T12:02:50Z</time>
      </trkpt>
      <trkpt lat="41.546406000" lon="1.888077000">
        <ele>114.05</ele>
        <time>2014-03-23T12:03:03Z</time>
      </trkpt>
      <trkpt lat="41.546276000" lon="1.888545000">
        <ele>114.05</ele>
        <time>2014-03-23T12:03:14Z</time>
      </trkpt>
      <trkpt lat="41.546223000" lon="1.888736000">
        <ele>114.05</ele>
        <time>2014-03-23T12:03:20Z</time>
      </trkpt>
      <trkpt lat="41.546066000" lon="1.889437000">
        <ele>114.53</ele>
        <time>2014-03-23T12:03:31Z</time>
      </trkpt>
      <trkpt lat="41.545876000" lon="1.889790000">
        <ele>113.09</ele>
        <time>2014-03-23T12:03:36Z</time>
      </trkpt>
      <trkpt lat="41.545654000" lon="1.890281000">
        <ele>112.13</ele>
        <time>2014-03-23T12:03:42Z</time>
      </trkpt>
      <trkpt lat="41.545200000" lon="1.891278000">
        <ele>109.73</ele>
        <time>2014-03-23T12:03:53Z</time>
      </trkpt>
      <trkpt lat="41.545139000" lon="1.891456000">
        <ele>109.73</ele>
        <time>2014-03-23T12:03:55Z</time>
      </trkpt>
      <trkpt lat="41.544689000" lon="1.892185000">
        <ele>110.69</ele>
        <time>2014-03-23T12:04:06Z</time>
      </trkpt>
      <trkpt lat="41.544575000" lon="1.892403000">
        <ele>110.21</ele>
        <time>2014-03-23T12:04:10Z</time>
      </trkpt>
      <trkpt lat="41.544460000" lon="1.892506000">
        <ele>110.21</ele>
        <time>2014-03-23T12:04:16Z</time>
      </trkpt>
      <trkpt lat="41.544365000" lon="1.892751000">
        <ele>110.21</ele>
        <time>2014-03-23T12:04:22Z</time>
      </trkpt>
      <trkpt lat="41.543774000" lon="1.893762000">
        <ele>108.29</ele>
        <time>2014-03-23T12:04:37Z</time>
      </trkpt>
      <trkpt lat="41.543476000" lon="1.894260000">
        <ele>107.32</ele>
        <time>2014-03-23T12:04:46Z</time>
      </trkpt>
      <trkpt lat="41.543320000" lon="1.894585000">
        <ele>107.32</ele>
        <time>2014-03-23T12:04:51Z</time>
      </trkpt>
      <trkpt lat="41.542770000" lon="1.895491000">
        <ele>106.84</ele>
        <time>2014-03-23T12:05:06Z</time>
      </trkpt>
      <trkpt lat="41.542580000" lon="1.895819000">
        <ele>105.40</ele>
        <time>2014-03-23T12:05:11Z</time>
      </trkpt>
      <trkpt lat="41.542500000" lon="1.895957000">
        <ele>105.40</ele>
        <time>2014-03-23T12:05:13Z</time>
      </trkpt>
      <trkpt lat="41.542431000" lon="1.896099000">
        <ele>106.36</ele>
        <time>2014-03-23T12:05:15Z</time>
      </trkpt>
      <trkpt lat="41.542397000" lon="1.896336000">
        <ele>105.88</ele>
        <time>2014-03-23T12:05:20Z</time>
      </trkpt>
      <trkpt lat="41.542633000" lon="1.896590000">
        <ele>106.84</ele>
        <time>2014-03-23T12:05:30Z</time>
      </trkpt>
      <trkpt lat="41.542667000" lon="1.896617000">
        <ele>106.36</ele>
        <time>2014-03-23T12:05:31Z</time>
      </trkpt>
      <trkpt lat="41.542770000" lon="1.896710000">
        <ele>106.84</ele>
        <time>2014-03-23T12:05:34Z</time>
      </trkpt>
      <trkpt lat="41.542912000" lon="1.896828000">
        <ele>106.84</ele>
        <time>2014-03-23T12:05:39Z</time>
      </trkpt>
      <trkpt lat="41.543221000" lon="1.897127000">
        <ele>109.25</ele>
        <time>2014-03-23T12:05:50Z</time>
      </trkpt>
      <trkpt lat="41.543488000" lon="1.897400000">
        <ele>111.65</ele>
        <time>2014-03-23T12:06:00Z</time>
      </trkpt>
      <trkpt lat="41.543537000" lon="1.897430000">
        <ele>113.09</ele>
        <time>2014-03-23T12:06:02Z</time>
      </trkpt>
      <trkpt lat="41.543793000" lon="1.897729000">
        <ele>114.53</ele>
        <time>2014-03-23T12:06:12Z</time>
      </trkpt>
      <trkpt lat="41.543964000" lon="1.898160000">
        <ele>117.90</ele>
        <time>2014-03-23T12:06:22Z</time>
      </trkpt>
      <trkpt lat="41.543972000" lon="1.898207000">
        <ele>118.38</ele>
        <time>2014-03-23T12:06:23Z</time>
      </trkpt>
      <trkpt lat="41.544018000" lon="1.898757000">
        <ele>120.78</ele>
        <time>2014-03-23T12:06:37Z</time>
      </trkpt>
      <trkpt lat="41.544083000" lon="1.899294000">
        <ele>123.67</ele>
        <time>2014-03-23T12:06:53Z</time>
      </trkpt>
      <trkpt lat="41.544109000" lon="1.899943000">
        <ele>126.55</ele>
        <time>2014-03-23T12:07:10Z</time>
      </trkpt>
      <trkpt lat="41.544064000" lon="1.900525000">
        <ele>129.43</ele>
        <time>2014-03-23T12:07:25Z</time>
      </trkpt>
      <trkpt lat="41.543949000" lon="1.900986000">
        <ele>131.84</ele>
        <time>2014-03-23T12:07:38Z</time>
      </trkpt>
      <trkpt lat="41.543911000" lon="1.901165000">
        <ele>133.28</ele>
        <time>2014-03-23T12:07:43Z</time>
      </trkpt>
      <trkpt lat="41.543983000" lon="1.901599000">
        <ele>134.72</ele>
        <time>2014-03-23T12:07:55Z</time>
      </trkpt>
      <trkpt lat="41.544224000" lon="1.901930000">
        <ele>138.09</ele>
        <time>2014-03-23T12:08:07Z</time>
      </trkpt>
      <trkpt lat="41.544491000" lon="1.902316000">
        <ele>140.01</ele>
        <time>2014-03-23T12:08:21Z</time>
      </trkpt>
      <trkpt lat="41.544582000" lon="1.902731000">
        <ele>142.89</ele>
        <time>2014-03-23T12:08:33Z</time>
      </trkpt>
      <trkpt lat="41.544601000" lon="1.903125000">
        <ele>145.78</ele>
        <time>2014-03-23T12:08:45Z</time>
      </trkpt>
      <trkpt lat="41.544762000" lon="1.903428000">
        <ele>148.18</ele>
        <time>2014-03-23T12:08:55Z</time>
      </trkpt>
      <trkpt lat="41.545086000" lon="1.903643000">
        <ele>151.54</ele>
        <time>2014-03-23T12:09:07Z</time>
      </trkpt>
      <trkpt lat="41.545498000" lon="1.903817000">
        <ele>154.43</ele>
        <time>2014-03-23T12:09:22Z</time>
      </trkpt>
      <trkpt lat="41.545895000" lon="1.903885000">
        <ele>157.31</ele>
        <time>2014-03-23T12:09:36Z</time>
      </trkpt>
      <trkpt lat="41.546150000" lon="1.903852000">
        <ele>159.72</ele>
        <time>2014-03-23T12:09:45Z</time>
      </trkpt>
      <trkpt lat="41.546547000" lon="1.903905000">
        <ele>162.12</ele>
        <time>2014-03-23T12:09:59Z</time>
      </trkpt>
      <trkpt lat="41.546570000" lon="1.903923000">
        <ele>162.60</ele>
        <time>2014-03-23T12:10:00Z</time>
      </trkpt>
      <trkpt lat="41.546837000" lon="1.904315000">
        <ele>165.00</ele>
        <time>2014-03-23T12:10:14Z</time>
      </trkpt>
      <trkpt lat="41.547176000" lon="1.904516000">
        <ele>166.93</ele>
        <time>2014-03-23T12:10:27Z</time>
      </trkpt>
      <trkpt lat="41.547520000" lon="1.904609000">
        <ele>169.33</ele>
        <time>2014-03-23T12:10:39Z</time>
      </trkpt>
      <trkpt lat="41.547840000" lon="1.904719000">
        <ele>172.21</ele>
        <time>2014-03-23T12:10:50Z</time>
      </trkpt>
      <trkpt lat="41.548206000" lon="1.904894000">
        <ele>175.10</ele>
        <time>2014-03-23T12:11:03Z</time>
      </trkpt>
      <trkpt lat="41.548489000" lon="1.905322000">
        <ele>177.02</ele>
        <time>2014-03-23T12:11:17Z</time>
      </trkpt>
      <trkpt lat="41.548763000" lon="1.905827000">
        <ele>179.90</ele>
        <time>2014-03-23T12:11:32Z</time>
      </trkpt>
      <trkpt lat="41.548992000" lon="1.906275000">
        <ele>182.31</ele>
        <time>2014-03-23T12:11:45Z</time>
      </trkpt>
      <trkpt lat="41.549309000" lon="1.906740000">
        <ele>186.15</ele>
        <time>2014-03-23T12:12:01Z</time>
      </trkpt>
      <trkpt lat="41.549694000" lon="1.907081000">
        <ele>188.08</ele>
        <time>2014-03-23T12:12:16Z</time>
      </trkpt>
      <trkpt lat="41.549919000" lon="1.907591000">
        <ele>190.00</ele>
        <time>2014-03-23T12:12:31Z</time>
      </trkpt>
      <trkpt lat="41.550255000" lon="1.907899000">
        <ele>193.36</ele>
        <time>2014-03-23T12:12:44Z</time>
      </trkpt>
      <trkpt lat="41.550644000" lon="1.908284000">
        <ele>196.25</ele>
        <time>2014-03-23T12:12:58Z</time>
      </trkpt>
      <trkpt lat="41.550888000" lon="1.908776000">
        <ele>199.13</ele>
        <time>2014-03-23T12:13:11Z</time>
      </trkpt>
      <trkpt lat="41.551220000" lon="1.909013000">
        <ele>201.05</ele>
        <time>2014-03-23T12:13:23Z</time>
      </trkpt>
      <trkpt lat="41.551785000" lon="1.909056000">
        <ele>203.94</ele>
        <time>2014-03-23T12:13:40Z</time>
      </trkpt>
      <trkpt lat="41.552151000" lon="1.909355000">
        <ele>206.82</ele>
        <time>2014-03-23T12:13:53Z</time>
      </trkpt>
      <trkpt lat="41.552586000" lon="1.909483000">
        <ele>209.22</ele>
        <time>2014-03-23T12:14:06Z</time>
      </trkpt>
      <trkpt lat="41.553181000" lon="1.909471000">
        <ele>210.19</ele>
        <time>2014-03-23T12:14:21Z</time>
      </trkpt>
      <trkpt lat="41.553391000" lon="1.909485000">
        <ele>210.19</ele>
        <time>2014-03-23T12:14:26Z</time>
      </trkpt>
      <trkpt lat="41.553474000" lon="1.909514000">
        <ele>210.19</ele>
        <time>2014-03-23T12:14:28Z</time>
      </trkpt>
      <trkpt lat="41.553875000" lon="1.909980000">
        <ele>209.70</ele>
        <time>2014-03-23T12:14:39Z</time>
      </trkpt>
      <trkpt lat="41.554058000" lon="1.910223000">
        <ele>209.70</ele>
        <time>2014-03-23T12:14:44Z</time>
      </trkpt>
      <trkpt lat="41.554443000" lon="1.910247000">
        <ele>210.67</ele>
        <time>2014-03-23T12:14:52Z</time>
      </trkpt>
      <trkpt lat="41.554653000" lon="1.909818000">
        <ele>210.67</ele>
        <time>2014-03-23T12:14:59Z</time>
      </trkpt>
      <trkpt lat="41.554707000" lon="1.909714000">
        <ele>210.19</ele>
        <time>2014-03-23T12:15:01Z</time>
      </trkpt>
      <trkpt lat="41.554787000" lon="1.909554000">
        <ele>210.67</ele>
        <time>2014-03-23T12:15:04Z</time>
      </trkpt>
      <trkpt lat="41.555180000" lon="1.909409000">
        <ele>210.67</ele>
        <time>2014-03-23T12:15:13Z</time>
      </trkpt>
      <trkpt lat="41.555347000" lon="1.909490000">
        <ele>211.15</ele>
        <time>2014-03-23T12:15:17Z</time>
      </trkpt>
      <trkpt lat="41.555897000" lon="1.909626000">
        <ele>212.59</ele>
        <time>2014-03-23T12:15:29Z</time>
      </trkpt>
      <trkpt lat="41.556057000" lon="1.910044000">
        <ele>214.03</ele>
        <time>2014-03-23T12:15:39Z</time>
      </trkpt>
      <trkpt lat="41.555828000" lon="1.910500000">
        <ele>217.40</ele>
        <time>2014-03-23T12:15:51Z</time>
      </trkpt>
      <trkpt lat="41.555511000" lon="1.910876000">
        <ele>220.28</ele>
        <time>2014-03-23T12:16:05Z</time>
      </trkpt>
      <trkpt lat="41.555412000" lon="1.911255000">
        <ele>223.16</ele>
        <time>2014-03-23T12:16:16Z</time>
      </trkpt>
      <trkpt lat="41.555626000" lon="1.911760000">
        <ele>226.53</ele>
        <time>2014-03-23T12:16:30Z</time>
      </trkpt>
      <trkpt lat="41.555946000" lon="1.912254000">
        <ele>229.89</ele>
        <time>2014-03-23T12:16:46Z</time>
      </trkpt>
      <trkpt lat="41.556160000" lon="1.912661000">
        <ele>233.26</ele>
        <time>2014-03-23T12:16:58Z</time>
      </trkpt>
      <trkpt lat="41.556194000" lon="1.913174000">
        <ele>236.14</ele>
        <time>2014-03-23T12:17:12Z</time>
      </trkpt>
      <trkpt lat="41.556240000" lon="1.913676000">
        <ele>232.78</ele>
        <time>2014-03-23T12:17:27Z</time>
      </trkpt>
      <trkpt lat="41.556244000" lon="1.913703000">
        <ele>239.51</ele>
        <time>2014-03-23T12:17:28Z</time>
      </trkpt>
      <trkpt lat="41.556393000" lon="1.914012000">
        <ele>240.47</ele>
        <time>2014-03-23T12:17:40Z</time>
      </trkpt>
      <trkpt lat="41.556534000" lon="1.914420000">
        <ele>243.35</ele>
        <time>2014-03-23T12:17:52Z</time>
      </trkpt>
      <trkpt lat="41.556644000" lon="1.914869000">
        <ele>245.75</ele>
        <time>2014-03-23T12:18:06Z</time>
      </trkpt>
      <trkpt lat="41.556770000" lon="1.915262000">
        <ele>248.64</ele>
        <time>2014-03-23T12:18:19Z</time>
      </trkpt>
      <trkpt lat="41.556931000" lon="1.915744000">
        <ele>251.04</ele>
        <time>2014-03-23T12:18:35Z</time>
      </trkpt>
      <trkpt lat="41.557018000" lon="1.916313000">
        <ele>254.41</ele>
        <time>2014-03-23T12:18:52Z</time>
      </trkpt>
      <trkpt lat="41.556885000" lon="1.916699000">
        <ele>256.33</ele>
        <time>2014-03-23T12:19:03Z</time>
      </trkpt>
      <trkpt lat="41.556793000" lon="1.916980000">
        <ele>258.73</ele>
        <time>2014-03-23T12:19:14Z</time>
      </trkpt>
      <trkpt lat="41.556644000" lon="1.917017000">
        <ele>260.65</ele>
        <time>2014-03-23T12:19:23Z</time>
      </trkpt>
      <trkpt lat="41.556610000" lon="1.917015000">
        <ele>261.62</ele>
        <time>2014-03-23T12:19:25Z</time>
      </trkpt>
      <trkpt lat="41.556450000" lon="1.916921000">
        <ele>264.98</ele>
        <time>2014-03-23T12:19:35Z</time>
      </trkpt>
      <trkpt lat="41.556355000" lon="1.916865000">
        <ele>265.94</ele>
        <time>2014-03-23T12:19:41Z</time>
      </trkpt>
      <trkpt lat="41.556068000" lon="1.916900000">
        <ele>268.35</ele>
        <time>2014-03-23T12:19:57Z</time>
      </trkpt>
      <trkpt lat="41.555878000" lon="1.916869000">
        <ele>271.71</ele>
        <time>2014-03-23T12:20:08Z</time>
      </trkpt>
      <trkpt lat="41.555672000" lon="1.916846000">
        <ele>273.15</ele>
        <time>2014-03-23T12:20:20Z</time>
      </trkpt>
      <trkpt lat="41.555477000" lon="1.916765000">
        <ele>276.04</ele>
        <time>2014-03-23T12:20:31Z</time>
      </trkpt>
      <trkpt lat="41.555382000" lon="1.916627000">
        <ele>277.96</ele>
        <time>2014-03-23T12:20:38Z</time>
      </trkpt>
      <trkpt lat="41.555359000" lon="1.916516000">
        <ele>278.44</ele>
        <time>2014-03-23T12:20:42Z</time>
      </trkpt>
      <trkpt lat="41.555267000" lon="1.916302000">
        <ele>278.44</ele>
        <time>2014-03-23T12:20:52Z</time>
      </trkpt>
      <trkpt lat="41.555218000" lon="1.916206000">
        <ele>278.44</ele>
        <time>2014-03-23T12:20:56Z</time>
      </trkpt>
      <trkpt lat="41.555153000" lon="1.915922000">
        <ele>281.80</ele>
        <time>2014-03-23T12:21:06Z</time>
      </trkpt>
      <trkpt lat="41.555122000" lon="1.915889000">
        <ele>282.28</ele>
        <time>2014-03-23T12:21:08Z</time>
      </trkpt>
      <trkpt lat="41.555046000" lon="1.916062000">
        <ele>282.28</ele>
        <time>2014-03-23T12:21:19Z</time>
      </trkpt>
      <trkpt lat="41.555107000" lon="1.916478000">
        <ele>284.21</ele>
        <time>2014-03-23T12:21:33Z</time>
      </trkpt>
      <trkpt lat="41.555172000" lon="1.916869000">
        <ele>287.09</ele>
        <time>2014-03-23T12:21:46Z</time>
      </trkpt>
      <trkpt lat="41.555222000" lon="1.917184000">
        <ele>290.46</ele>
        <time>2014-03-23T12:21:57Z</time>
      </trkpt>
      <trkpt lat="41.555233000" lon="1.917234000">
        <ele>290.94</ele>
        <time>2014-03-23T12:21:59Z</time>
      </trkpt>
      <trkpt lat="41.555225000" lon="1.917377000">
        <ele>293.34</ele>
        <time>2014-03-23T12:22:05Z</time>
      </trkpt>
      <trkpt lat="41.555210000" lon="1.917426000">
        <ele>293.34</ele>
        <time>2014-03-23T12:22:07Z</time>
      </trkpt>
      <trkpt lat="41.555103000" lon="1.917593000">
        <ele>294.30</ele>
        <time>2014-03-23T12:22:15Z</time>
      </trkpt>
      <trkpt lat="41.555084000" lon="1.917662000">
        <ele>295.26</ele>
        <time>2014-03-23T12:22:18Z</time>
      </trkpt>
      <trkpt lat="41.555042000" lon="1.917736000">
        <ele>296.22</ele>
        <time>2014-03-23T12:22:22Z</time>
      </trkpt>
      <trkpt lat="41.554989000" lon="1.917809000">
        <ele>296.70</ele>
        <time>2014-03-23T12:22:27Z</time>
      </trkpt>
      <trkpt lat="41.554886000" lon="1.918007000">
        <ele>300.55</ele>
        <time>2014-03-23T12:22:37Z</time>
      </trkpt>
      <trkpt lat="41.554661000" lon="1.918135000">
        <ele>303.43</ele>
        <time>2014-03-23T12:22:50Z</time>
      </trkpt>
      <trkpt lat="41.554386000" lon="1.918242000">
        <ele>304.39</ele>
        <time>2014-03-23T12:23:02Z</time>
      </trkpt>
      <trkpt lat="41.554150000" lon="1.918377000">
        <ele>306.32</ele>
        <time>2014-03-23T12:23:12Z</time>
      </trkpt>
      <trkpt lat="41.553867000" lon="1.918523000">
        <ele>309.68</ele>
        <time>2014-03-23T12:23:24Z</time>
      </trkpt>
      <trkpt lat="41.553646000" lon="1.918599000">
        <ele>308.24</ele>
        <time>2014-03-23T12:23:35Z</time>
      </trkpt>
      <trkpt lat="41.553329000" lon="1.918725000">
        <ele>310.16</ele>
        <time>2014-03-23T12:23:47Z</time>
      </trkpt>
      <trkpt lat="41.553158000" lon="1.918841000">
        <ele>314.01</ele>
        <time>2014-03-23T12:23:53Z</time>
      </trkpt>
      <trkpt lat="41.552982000" lon="1.919038000">
        <ele>311.12</ele>
        <time>2014-03-23T12:23:59Z</time>
      </trkpt>
      <trkpt lat="41.552822000" lon="1.919228000">
        <ele>311.60</ele>
        <time>2014-03-23T12:24:04Z</time>
      </trkpt>
      <trkpt lat="41.552715000" lon="1.919312000">
        <ele>312.09</ele>
        <time>2014-03-23T12:24:07Z</time>
      </trkpt>
      <trkpt lat="41.552551000" lon="1.919340000">
        <ele>311.60</ele>
        <time>2014-03-23T12:24:11Z</time>
      </trkpt>
      <trkpt lat="41.552467000" lon="1.919343000">
        <ele>312.09</ele>
        <time>2014-03-23T12:24:13Z</time>
      </trkpt>
      <trkpt lat="41.552063000" lon="1.919278000">
        <ele>313.05</ele>
        <time>2014-03-23T12:24:22Z</time>
      </trkpt>
      <trkpt lat="41.551884000" lon="1.919217000">
        <ele>313.05</ele>
        <time>2014-03-23T12:24:26Z</time>
      </trkpt>
      <trkpt lat="41.551765000" lon="1.919161000">
        <ele>312.57</ele>
        <time>2014-03-23T12:24:29Z</time>
      </trkpt>
      <trkpt lat="41.551636000" lon="1.919086000">
        <ele>312.09</ele>
        <time>2014-03-23T12:24:32Z</time>
      </trkpt>
      <trkpt lat="41.551479000" lon="1.919033000">
        <ele>310.64</ele>
        <time>2014-03-23T12:24:35Z</time>
      </trkpt>
      <trkpt lat="41.551273000" lon="1.919007000">
        <ele>309.20</ele>
        <time>2014-03-23T12:24:38Z</time>
      </trkpt>
      <trkpt lat="41.550953000" lon="1.918973000">
        <ele>305.84</ele>
        <time>2014-03-23T12:24:42Z</time>
      </trkpt>
      <trkpt lat="41.550838000" lon="1.918916000">
        <ele>304.39</ele>
        <time>2014-03-23T12:24:45Z</time>
      </trkpt>
      <trkpt lat="41.550884000" lon="1.918699000">
        <ele>302.47</ele>
        <time>2014-03-23T12:24:53Z</time>
      </trkpt>
      <trkpt lat="41.550888000" lon="1.918696000">
        <ele>302.47</ele>
        <time>2014-03-23T12:25:04Z</time>
      </trkpt>
      <trkpt lat="41.550888000" lon="1.918690000">
        <ele>302.95</ele>
        <time>2014-03-23T12:25:21Z</time>
      </trkpt>
      <trkpt lat="41.550892000" lon="1.918681000">
        <ele>301.99</ele>
        <time>2014-03-23T12:25:48Z</time>
      </trkpt>
      <trkpt lat="41.550892000" lon="1.918632000">
        <ele>301.99</ele>
        <time>2014-03-23T12:26:01Z</time>
      </trkpt>
      <trkpt lat="41.550915000" lon="1.918542000">
        <ele>301.03</ele>
        <time>2014-03-23T12:26:09Z</time>
      </trkpt>
      <trkpt lat="41.550964000" lon="1.918200000">
        <ele>300.55</ele>
        <time>2014-03-23T12:26:21Z</time>
      </trkpt>
      <trkpt lat="41.550972000" lon="1.918039000">
        <ele>299.59</ele>
        <time>2014-03-23T12:26:32Z</time>
      </trkpt>
      <trkpt lat="41.550980000" lon="1.918034000">
        <ele>299.59</ele>
        <time>2014-03-23T12:26:50Z</time>
      </trkpt>
      <trkpt lat="41.550976000" lon="1.918058000">
        <ele>299.59</ele>
        <time>2014-03-23T12:27:01Z</time>
      </trkpt>
      <trkpt lat="41.550972000" lon="1.918081000">
        <ele>299.11</ele>
        <time>2014-03-23T12:27:12Z</time>
      </trkpt>
      <trkpt lat="41.550976000" lon="1.918025000">
        <ele>299.59</ele>
        <time>2014-03-23T12:27:25Z</time>
      </trkpt>
      <trkpt lat="41.550976000" lon="1.918025000">
        <ele>298.63</ele>
        <time>2014-03-23T12:27:53Z</time>
      </trkpt>
      <trkpt lat="41.550972000" lon="1.918025000">
        <ele>299.59</ele>
        <time>2014-03-23T12:28:21Z</time>
      </trkpt>
      <trkpt lat="41.550972000" lon="1.918023000">
        <ele>299.11</ele>
        <time>2014-03-23T12:28:54Z</time>
      </trkpt>
      <trkpt lat="41.550972000" lon="1.918022000">
        <ele>299.11</ele>
        <time>2014-03-23T12:29:26Z</time>
      </trkpt>
      <trkpt lat="41.550972000" lon="1.918022000">
        <ele>298.63</ele>
        <time>2014-03-23T12:29:59Z</time>
      </trkpt>
      <trkpt lat="41.550976000" lon="1.918022000">
        <ele>298.15</ele>
        <time>2014-03-23T12:30:36Z</time>
      </trkpt>
      <trkpt lat="41.550976000" lon="1.918021000">
        <ele>298.63</ele>
        <time>2014-03-23T12:31:06Z</time>
      </trkpt>
      <trkpt lat="41.550980000" lon="1.918023000">
        <ele>298.15</ele>
        <time>2014-03-23T12:31:32Z</time>
      </trkpt>
      <trkpt lat="41.550980000" lon="1.918023000">
        <ele>298.63</ele>
        <time>2014-03-23T12:32:00Z</time>
      </trkpt>
      <trkpt lat="41.550980000" lon="1.918023000">
        <ele>298.63</ele>
        <time>2014-03-23T12:32:30Z</time>
      </trkpt>
      <trkpt lat="41.550983000" lon="1.918024000">
        <ele>298.63</ele>
        <time>2014-03-23T12:33:01Z</time>
      </trkpt>
      <trkpt lat="41.550983000" lon="1.918023000">
        <ele>298.15</ele>
        <time>2014-03-23T12:33:31Z</time>
      </trkpt>
      <trkpt lat="41.550983000" lon="1.918023000">
        <ele>298.63</ele>
        <time>2014-03-23T12:33:58Z</time>
      </trkpt>
      <trkpt lat="41.550983000" lon="1.918023000">
        <ele>299.11</ele>
        <time>2014-03-23T12:34:29Z</time>
      </trkpt>
      <trkpt lat="41.550987000" lon="1.918025000">
        <ele>299.11</ele>
        <time>2014-03-23T12:35:01Z</time>
      </trkpt>
      <trkpt lat="41.550991000" lon="1.918026000">
        <ele>299.11</ele>
        <time>2014-03-23T12:35:28Z</time>
      </trkpt>
      <trkpt lat="41.550991000" lon="1.918026000">
        <ele>298.63</ele>
        <time>2014-03-23T12:36:00Z</time>
      </trkpt>
      <trkpt lat="41.550991000" lon="1.918026000">
        <ele>298.15</ele>
        <time>2014-03-23T12:36:32Z</time>
      </trkpt>
      <trkpt lat="41.550995000" lon="1.918026000">
        <ele>298.63</ele>
        <time>2014-03-23T12:37:04Z</time>
      </trkpt>
      <trkpt lat="41.550991000" lon="1.918026000">
        <ele>298.15</ele>
        <time>2014-03-23T12:37:30Z</time>
      </trkpt>
      <trkpt lat="41.550991000" lon="1.918026000">
        <ele>298.63</ele>
        <time>2014-03-23T12:38:00Z</time>
      </trkpt>
      <trkpt lat="41.550991000" lon="1.918025000">
        <ele>298.63</ele>
        <time>2014-03-23T12:38:33Z</time>
      </trkpt>
      <trkpt lat="41.550987000" lon="1.918024000">
        <ele>298.63</ele>
        <time>2014-03-23T12:39:06Z</time>
      </trkpt>
      <trkpt lat="41.550991000" lon="1.918023000">
        <ele>298.15</ele>
        <time>2014-03-23T12:39:31Z</time>
      </trkpt>
      <trkpt lat="41.550991000" lon="1.918023000">
        <ele>298.15</ele>
        <time>2014-03-23T12:40:01Z</time>
      </trkpt>
      <trkpt lat="41.550991000" lon="1.918023000">
        <ele>298.15</ele>
        <time>2014-03-23T12:40:29Z</time>
      </trkpt>
      <trkpt lat="41.550991000" lon="1.918022000">
        <ele>298.63</ele>
        <time>2014-03-23T12:40:53Z</time>
      </trkpt>
      <trkpt lat="41.550991000" lon="1.918021000">
        <ele>298.63</ele>
        <time>2014-03-23T12:41:23Z</time>
      </trkpt>
      <trkpt lat="41.550991000" lon="1.918021000">
        <ele>298.63</ele>
        <time>2014-03-23T12:41:58Z</time>
      </trkpt>
      <trkpt lat="41.550991000" lon="1.918020000">
        <ele>298.63</ele>
        <time>2014-03-23T12:42:33Z</time>
      </trkpt>
      <trkpt lat="41.550995000" lon="1.918019000">
        <ele>298.63</ele>
        <time>2014-03-23T12:43:09Z</time>
      </trkpt>
      <trkpt lat="41.550995000" lon="1.918021000">
        <ele>298.63</ele>
        <time>2014-03-23T12:43:45Z</time>
      </trkpt>
      <trkpt lat="41.550995000" lon="1.918024000">
        <ele>299.11</ele>
        <time>2014-03-23T12:44:21Z</time>
      </trkpt>
      <trkpt lat="41.550995000" lon="1.918024000">
        <ele>298.63</ele>
        <time>2014-03-23T12:44:55Z</time>
      </trkpt>
      <trkpt lat="41.550995000" lon="1.918022000">
        <ele>299.59</ele>
        <time>2014-03-23T12:45:26Z</time>
      </trkpt>
      <trkpt lat="41.550995000" lon="1.918022000">
        <ele>299.11</ele>
        <time>2014-03-23T12:45:58Z</time>
      </trkpt>
      <trkpt lat="41.550995000" lon="1.918020000">
        <ele>298.63</ele>
        <time>2014-03-23T12:46:29Z</time>
      </trkpt>
      <trkpt lat="41.550995000" lon="1.918019000">
        <ele>299.11</ele>
        <time>2014-03-23T12:47:04Z</time>
      </trkpt>
      <trkpt lat="41.550991000" lon="1.918016000">
        <ele>299.11</ele>
        <time>2014-03-23T12:47:39Z</time>
      </trkpt>
      <trkpt lat="41.550995000" lon="1.918014000">
        <ele>299.11</ele>
        <time>2014-03-23T12:48:18Z</time>
      </trkpt>
      <trkpt lat="41.550999000" lon="1.918012000">
        <ele>299.11</ele>
        <time>2014-03-23T12:48:53Z</time>
      </trkpt>
      <trkpt lat="41.550999000" lon="1.918012000">
        <ele>298.63</ele>
        <time>2014-03-23T12:49:27Z</time>
      </trkpt>
      <trkpt lat="41.550999000" lon="1.918012000">
        <ele>299.59</ele>
        <time>2014-03-23T12:49:59Z</time>
      </trkpt>
      <trkpt lat="41.550999000" lon="1.918013000">
        <ele>299.11</ele>
        <time>2014-03-23T12:50:31Z</time>
      </trkpt>
      <trkpt lat="41.550999000" lon="1.918013000">
        <ele>299.11</ele>
        <time>2014-03-23T12:51:02Z</time>
      </trkpt>
      <trkpt lat="41.550999000" lon="1.918012000">
        <ele>300.07</ele>
        <time>2014-03-23T12:51:32Z</time>
      </trkpt>
      <trkpt lat="41.550999000" lon="1.918012000">
        <ele>300.55</ele>
        <time>2014-03-23T12:51:59Z</time>
      </trkpt>
      <trkpt lat="41.550999000" lon="1.918012000">
        <ele>299.59</ele>
        <time>2014-03-23T12:52:29Z</time>
      </trkpt>
      <trkpt lat="41.551003000" lon="1.918015000">
        <ele>300.07</ele>
        <time>2014-03-23T12:53:02Z</time>
      </trkpt>
      <trkpt lat="41.550999000" lon="1.918017000">
        <ele>300.55</ele>
        <time>2014-03-23T12:53:33Z</time>
      </trkpt>
      <trkpt lat="41.551003000" lon="1.918017000">
        <ele>300.07</ele>
        <time>2014-03-23T12:54:06Z</time>
      </trkpt>
      <trkpt lat="41.551003000" lon="1.918017000">
        <ele>300.07</ele>
        <time>2014-03-23T12:54:34Z</time>
      </trkpt>
      <trkpt lat="41.551003000" lon="1.918017000">
        <ele>300.07</ele>
        <time>2014-03-23T12:55:05Z</time>
      </trkpt>
      <trkpt lat="41.551003000" lon="1.918017000">
        <ele>300.55</ele>
        <time>2014-03-23T12:55:33Z</time>
      </trkpt>
      <trkpt lat="41.551003000" lon="1.918018000">
        <ele>300.07</ele>
        <time>2014-03-23T12:56:06Z</time>
      </trkpt>
      <trkpt lat="41.551003000" lon="1.918018000">
        <ele>299.59</ele>
        <time>2014-03-23T12:56:46Z</time>
      </trkpt>
      <trkpt lat="41.551003000" lon="1.918019000">
        <ele>299.59</ele>
        <time>2014-03-23T12:57:21Z</time>
      </trkpt>
      <trkpt lat="41.551003000" lon="1.918019000">
        <ele>299.59</ele>
        <time>2014-03-23T12:57:53Z</time>
      </trkpt>
      <trkpt lat="41.551003000" lon="1.918020000">
        <ele>300.07</ele>
        <time>2014-03-23T12:58:22Z</time>
      </trkpt>
      <trkpt lat="41.551003000" lon="1.918019000">
        <ele>299.59</ele>
        <time>2014-03-23T12:58:55Z</time>
      </trkpt>
      <trkpt lat="41.551003000" lon="1.918019000">
        <ele>299.59</ele>
        <time>2014-03-23T12:59:27Z</time>
      </trkpt>
      <trkpt lat="41.551003000" lon="1.918019000">
        <ele>299.59</ele>
        <time>2014-03-23T13:00:00Z</time>
      </trkpt>
      <trkpt lat="41.551003000" lon="1.918018000">
        <ele>299.11</ele>
        <time>2014-03-23T13:00:14Z</time>
      </trkpt>
      <trkpt lat="41.550983000" lon="1.918065000">
        <ele>298.63</ele>
        <time>2014-03-23T13:00:27Z</time>
      </trkpt>
      <trkpt lat="41.550968000" lon="1.918114000">
        <ele>299.59</ele>
        <time>2014-03-23T13:00:39Z</time>
      </trkpt>
      <trkpt lat="41.550964000" lon="1.918218000">
        <ele>300.07</ele>
        <time>2014-03-23T13:00:52Z</time>
      </trkpt>
      <trkpt lat="41.550922000" lon="1.918367000">
        <ele>300.07</ele>
        <time>2014-03-23T13:01:07Z</time>
      </trkpt>
      <trkpt lat="41.550892000" lon="1.918486000">
        <ele>299.59</ele>
        <time>2014-03-23T13:01:20Z</time>
      </trkpt>
      <trkpt lat="41.550873000" lon="1.918622000">
        <ele>300.55</ele>
        <time>2014-03-23T13:01:34Z</time>
      </trkpt>
      <trkpt lat="41.550877000" lon="1.918638000">
        <ele>301.51</ele>
        <time>2014-03-23T13:01:47Z</time>
      </trkpt>
      <trkpt lat="41.550877000" lon="1.918638000">
        <ele>301.51</ele>
        <time>2014-03-23T13:02:07Z</time>
      </trkpt>
      <trkpt lat="41.550880000" lon="1.918662000">
        <ele>301.99</ele>
        <time>2014-03-23T13:02:22Z</time>
      </trkpt>
      <trkpt lat="41.550877000" lon="1.918725000">
        <ele>301.99</ele>
        <time>2014-03-23T13:02:25Z</time>
      </trkpt>
      <trkpt lat="41.550838000" lon="1.918880000">
        <ele>302.95</ele>
        <time>2014-03-23T13:02:32Z</time>
      </trkpt>
      <trkpt lat="41.551022000" lon="1.918990000">
        <ele>304.39</ele>
        <time>2014-03-23T13:02:44Z</time>
      </trkpt>
      <trkpt lat="41.551262000" lon="1.919036000">
        <ele>307.76</ele>
        <time>2014-03-23T13:02:56Z</time>
      </trkpt>
      <trkpt lat="41.551567000" lon="1.919100000">
        <ele>311.12</ele>
        <time>2014-03-23T13:03:11Z</time>
      </trkpt>
      <trkpt lat="41.551903000" lon="1.919250000">
        <ele>313.05</ele>
        <time>2014-03-23T13:03:25Z</time>
      </trkpt>
      <trkpt lat="41.552242000" lon="1.919348000">
        <ele>313.05</ele>
        <time>2014-03-23T13:03:36Z</time>
      </trkpt>
      <trkpt lat="41.552551000" lon="1.919344000">
        <ele>312.09</ele>
        <time>2014-03-23T13:03:47Z</time>
      </trkpt>
      <trkpt lat="41.552933000" lon="1.919133000">
        <ele>311.12</ele>
        <time>2014-03-23T13:03:58Z</time>
      </trkpt>
      <trkpt lat="41.553139000" lon="1.918898000">
        <ele>311.12</ele>
        <time>2014-03-23T13:04:05Z</time>
      </trkpt>
      <trkpt lat="41.553257000" lon="1.918824000">
        <ele>310.16</ele>
        <time>2014-03-23T13:04:08Z</time>
      </trkpt>
      <trkpt lat="41.553520000" lon="1.918702000">
        <ele>307.76</ele>
        <time>2014-03-23T13:04:13Z</time>
      </trkpt>
      <trkpt lat="41.554062000" lon="1.918468000">
        <ele>306.32</ele>
        <time>2014-03-23T13:04:22Z</time>
      </trkpt>
      <trkpt lat="41.554516000" lon="1.918231000">
        <ele>303.91</ele>
        <time>2014-03-23T13:04:29Z</time>
      </trkpt>
      <trkpt lat="41.554733000" lon="1.918167000">
        <ele>303.91</ele>
        <time>2014-03-23T13:04:32Z</time>
      </trkpt>
      <trkpt lat="41.555031000" lon="1.917911000">
        <ele>299.11</ele>
        <time>2014-03-23T13:04:37Z</time>
      </trkpt>
      <trkpt lat="41.555229000" lon="1.917523000">
        <ele>293.82</ele>
        <time>2014-03-23T13:04:41Z</time>
      </trkpt>
      <trkpt lat="41.555298000" lon="1.917156000">
        <ele>291.42</ele>
        <time>2014-03-23T13:04:45Z</time>
      </trkpt>
      <trkpt lat="41.555214000" lon="1.916632000">
        <ele>286.61</ele>
        <time>2014-03-23T13:04:49Z</time>
      </trkpt>
      <trkpt lat="41.555126000" lon="1.916183000">
        <ele>283.25</ele>
        <time>2014-03-23T13:04:53Z</time>
      </trkpt>
      <trkpt lat="41.555191000" lon="1.915993000">
        <ele>280.36</ele>
        <time>2014-03-23T13:04:58Z</time>
      </trkpt>
      <trkpt lat="41.555225000" lon="1.916105000">
        <ele>278.92</ele>
        <time>2014-03-23T13:05:00Z</time>
      </trkpt>
      <trkpt lat="41.555294000" lon="1.916391000">
        <ele>278.92</ele>
        <time>2014-03-23T13:05:04Z</time>
      </trkpt>
      <trkpt lat="41.555592000" lon="1.916851000">
        <ele>275.56</ele>
        <time>2014-03-23T13:05:12Z</time>
      </trkpt>
      <trkpt lat="41.555660000" lon="1.916869000">
        <ele>275.07</ele>
        <time>2014-03-23T13:05:13Z</time>
      </trkpt>
      <trkpt lat="41.555882000" lon="1.916912000">
        <ele>273.63</ele>
        <time>2014-03-23T13:05:16Z</time>
      </trkpt>
      <trkpt lat="41.555962000" lon="1.916933000">
        <ele>272.67</ele>
        <time>2014-03-23T13:05:17Z</time>
      </trkpt>
      <trkpt lat="41.556313000" lon="1.916931000">
        <ele>267.86</ele>
        <time>2014-03-23T13:05:21Z</time>
      </trkpt>
      <trkpt lat="41.556629000" lon="1.917077000">
        <ele>262.10</ele>
        <time>2014-03-23T13:05:25Z</time>
      </trkpt>
      <trkpt lat="41.556927000" lon="1.916976000">
        <ele>259.69</ele>
        <time>2014-03-23T13:05:31Z</time>
      </trkpt>
      <trkpt lat="41.556957000" lon="1.916812000">
        <ele>258.73</ele>
        <time>2014-03-23T13:05:33Z</time>
      </trkpt>
      <trkpt lat="41.557041000" lon="1.916538000">
        <ele>257.29</ele>
        <time>2014-03-23T13:05:36Z</time>
      </trkpt>
      <trkpt lat="41.557018000" lon="1.915754000">
        <ele>252.96</ele>
        <time>2014-03-23T13:05:43Z</time>
      </trkpt>
      <trkpt lat="41.556767000" lon="1.915036000">
        <ele>249.12</ele>
        <time>2014-03-23T13:05:49Z</time>
      </trkpt>
      <trkpt lat="41.556618000" lon="1.914515000">
        <ele>245.75</ele>
        <time>2014-03-23T13:05:53Z</time>
      </trkpt>
      <trkpt lat="41.556587000" lon="1.914378000">
        <ele>245.27</ele>
        <time>2014-03-23T13:05:54Z</time>
      </trkpt>
      <trkpt lat="41.556385000" lon="1.913885000">
        <ele>241.91</ele>
        <time>2014-03-23T13:05:58Z</time>
      </trkpt>
      <trkpt lat="41.556244000" lon="1.913324000">
        <ele>238.54</ele>
        <time>2014-03-23T13:06:02Z</time>
      </trkpt>
      <trkpt lat="41.556225000" lon="1.913012000">
        <ele>237.58</ele>
        <time>2014-03-23T13:06:04Z</time>
      </trkpt>
      <trkpt lat="41.556206000" lon="1.912717000">
        <ele>235.66</ele>
        <time>2014-03-23T13:06:06Z</time>
      </trkpt>
      <trkpt lat="41.556019000" lon="1.912252000">
        <ele>232.30</ele>
        <time>2014-03-23T13:06:10Z</time>
      </trkpt>
      <trkpt lat="41.555740000" lon="1.911873000">
        <ele>230.37</ele>
        <time>2014-03-23T13:06:14Z</time>
      </trkpt>
      <trkpt lat="41.555534000" lon="1.911436000">
        <ele>227.01</ele>
        <time>2014-03-23T13:06:18Z</time>
      </trkpt>
      <trkpt lat="41.555550000" lon="1.910906000">
        <ele>223.64</ele>
        <time>2014-03-23T13:06:23Z</time>
      </trkpt>
      <trkpt lat="41.555668000" lon="1.910750000">
        <ele>221.24</ele>
        <time>2014-03-23T13:06:25Z</time>
      </trkpt>
      <trkpt lat="41.555984000" lon="1.910357000">
        <ele>215.95</ele>
        <time>2014-03-23T13:06:30Z</time>
      </trkpt>
      <trkpt lat="41.556046000" lon="1.910268000">
        <ele>215.47</ele>
        <time>2014-03-23T13:06:31Z</time>
      </trkpt>
      <trkpt lat="41.556004000" lon="1.909639000">
        <ele>213.55</ele>
        <time>2014-03-23T13:06:37Z</time>
      </trkpt>
      <trkpt lat="41.555759000" lon="1.909495000">
        <ele>212.59</ele>
        <time>2014-03-23T13:06:40Z</time>
      </trkpt>
      <trkpt lat="41.555168000" lon="1.909306000">
        <ele>210.67</ele>
        <time>2014-03-23T13:06:47Z</time>
      </trkpt>
      <trkpt lat="41.554718000" lon="1.909551000">
        <ele>210.67</ele>
        <time>2014-03-23T13:06:54Z</time>
      </trkpt>
      <trkpt lat="41.554676000" lon="1.909628000">
        <ele>210.67</ele>
        <time>2014-03-23T13:06:55Z</time>
      </trkpt>
      <trkpt lat="41.554512000" lon="1.910009000">
        <ele>210.19</ele>
        <time>2014-03-23T13:07:00Z</time>
      </trkpt>
      <trkpt lat="41.554134000" lon="1.910217000">
        <ele>210.19</ele>
        <time>2014-03-23T13:07:07Z</time>
      </trkpt>
      <trkpt lat="41.553719000" lon="1.909649000">
        <ele>209.70</ele>
        <time>2014-03-23T13:07:16Z</time>
      </trkpt>
      <trkpt lat="41.553440000" lon="1.909433000">
        <ele>210.67</ele>
        <time>2014-03-23T13:07:21Z</time>
      </trkpt>
      <trkpt lat="41.552601000" lon="1.909409000">
        <ele>210.67</ele>
        <time>2014-03-23T13:07:35Z</time>
      </trkpt>
      <trkpt lat="41.552540000" lon="1.909413000">
        <ele>210.19</ele>
        <time>2014-03-23T13:07:36Z</time>
      </trkpt>
      <trkpt lat="41.552109000" lon="1.909275000">
        <ele>207.30</ele>
        <time>2014-03-23T13:07:43Z</time>
      </trkpt>
      <trkpt lat="41.551888000" lon="1.909067000">
        <ele>205.86</ele>
        <time>2014-03-23T13:07:47Z</time>
      </trkpt>
      <trkpt lat="41.551628000" lon="1.908958000">
        <ele>204.90</ele>
        <time>2014-03-23T13:07:51Z</time>
      </trkpt>
      <trkpt lat="41.551407000" lon="1.908978000">
        <ele>203.94</ele>
        <time>2014-03-23T13:07:54Z</time>
      </trkpt>
      <trkpt lat="41.551170000" lon="1.908950000">
        <ele>202.49</ele>
        <time>2014-03-23T13:07:57Z</time>
      </trkpt>
      <trkpt lat="41.550854000" lon="1.908618000">
        <ele>199.61</ele>
        <time>2014-03-23T13:08:02Z</time>
      </trkpt>
      <trkpt lat="41.550774000" lon="1.908412000">
        <ele>199.13</ele>
        <time>2014-03-23T13:08:04Z</time>
      </trkpt>
      <trkpt lat="41.550453000" lon="1.908018000">
        <ele>196.73</ele>
        <time>2014-03-23T13:08:09Z</time>
      </trkpt>
      <trkpt lat="41.550148000" lon="1.907773000">
        <ele>195.28</ele>
        <time>2014-03-23T13:08:13Z</time>
      </trkpt>
      <trkpt lat="41.549919000" lon="1.907545000">
        <ele>192.88</ele>
        <time>2014-03-23T13:08:16Z</time>
      </trkpt>
      <trkpt lat="41.549805000" lon="1.907350000">
        <ele>192.40</ele>
        <time>2014-03-23T13:08:18Z</time>
      </trkpt>
      <trkpt lat="41.549545000" lon="1.906856000">
        <ele>189.52</ele>
        <time>2014-03-23T13:08:23Z</time>
      </trkpt>
      <trkpt lat="41.549377000" lon="1.906740000">
        <ele>188.56</ele>
        <time>2014-03-23T13:08:25Z</time>
      </trkpt>
      <trkpt lat="41.549152000" lon="1.906498000">
        <ele>186.63</ele>
        <time>2014-03-23T13:08:28Z</time>
      </trkpt>
      <trkpt lat="41.549088000" lon="1.906397000">
        <ele>185.67</ele>
        <time>2014-03-23T13:08:29Z</time>
      </trkpt>
      <trkpt lat="41.548744000" lon="1.905742000">
        <ele>183.27</ele>
        <time>2014-03-23T13:08:35Z</time>
      </trkpt>
      <trkpt lat="41.548565000" lon="1.905425000">
        <ele>181.83</ele>
        <time>2014-03-23T13:08:38Z</time>
      </trkpt>
      <trkpt lat="41.548450000" lon="1.905212000">
        <ele>180.38</ele>
        <time>2014-03-23T13:08:40Z</time>
      </trkpt>
      <trkpt lat="41.548393000" lon="1.905108000">
        <ele>180.38</ele>
        <time>2014-03-23T13:08:41Z</time>
      </trkpt>
      <trkpt lat="41.548191000" lon="1.904848000">
        <ele>177.98</ele>
        <time>2014-03-23T13:08:44Z</time>
      </trkpt>
      <trkpt lat="41.547932000" lon="1.904718000">
        <ele>175.58</ele>
        <time>2014-03-23T13:08:47Z</time>
      </trkpt>
      <trkpt lat="41.547474000" lon="1.904562000">
        <ele>172.69</ele>
        <time>2014-03-23T13:08:52Z</time>
      </trkpt>
      <trkpt lat="41.547104000" lon="1.904444000">
        <ele>169.81</ele>
        <time>2014-03-23T13:08:56Z</time>
      </trkpt>
      <trkpt lat="41.546574000" lon="1.903892000">
        <ele>165.48</ele>
        <time>2014-03-23T13:09:03Z</time>
      </trkpt>
      <trkpt lat="41.546196000" lon="1.903798000">
        <ele>162.60</ele>
        <time>2014-03-23T13:09:07Z</time>
      </trkpt>
      <trkpt lat="41.545891000" lon="1.903831000">
        <ele>160.68</ele>
        <time>2014-03-23T13:09:10Z</time>
      </trkpt>
      <trkpt lat="41.545788000" lon="1.903828000">
        <ele>160.20</ele>
        <time>2014-03-23T13:09:11Z</time>
      </trkpt>
      <trkpt lat="41.545235000" lon="1.903671000">
        <ele>155.39</ele>
        <time>2014-03-23T13:09:17Z</time>
      </trkpt>
      <trkpt lat="41.544907000" lon="1.903461000">
        <ele>151.06</ele>
        <time>2014-03-23T13:09:21Z</time>
      </trkpt>
      <trkpt lat="41.544621000" lon="1.903021000">
        <ele>148.18</ele>
        <time>2014-03-23T13:09:26Z</time>
      </trkpt>
      <trkpt lat="41.544613000" lon="1.902904000">
        <ele>147.22</ele>
        <time>2014-03-23T13:09:27Z</time>
      </trkpt>
      <trkpt lat="41.544613000" lon="1.902672000">
        <ele>145.30</ele>
        <time>2014-03-23T13:09:29Z</time>
      </trkpt>
      <trkpt lat="41.544460000" lon="1.902151000">
        <ele>142.89</ele>
        <time>2014-03-23T13:09:34Z</time>
      </trkpt>
      <trkpt lat="41.544403000" lon="1.902070000">
        <ele>142.41</ele>
        <time>2014-03-23T13:09:35Z</time>
      </trkpt>
      <trkpt lat="41.544273000" lon="1.901919000">
        <ele>140.97</ele>
        <time>2014-03-23T13:09:37Z</time>
      </trkpt>
      <trkpt lat="41.544086000" lon="1.901686000">
        <ele>139.53</ele>
        <time>2014-03-23T13:09:40Z</time>
      </trkpt>
      <trkpt lat="41.543957000" lon="1.901399000">
        <ele>137.61</ele>
        <time>2014-03-23T13:09:43Z</time>
      </trkpt>
      <trkpt lat="41.543976000" lon="1.900968000">
        <ele>134.24</ele>
        <time>2014-03-23T13:09:47Z</time>
      </trkpt>
      <trkpt lat="41.544083000" lon="1.900592000">
        <ele>132.80</ele>
        <time>2014-03-23T13:09:51Z</time>
      </trkpt>
      <trkpt lat="41.544140000" lon="1.900222000">
        <ele>130.40</ele>
        <time>2014-03-23T13:09:55Z</time>
      </trkpt>
      <trkpt lat="41.544151000" lon="1.899947000">
        <ele>129.92</ele>
        <time>2014-03-23T13:09:58Z</time>
      </trkpt>
      <trkpt lat="41.544140000" lon="1.899678000">
        <ele>127.99</ele>
        <time>2014-03-23T13:10:01Z</time>
      </trkpt>
      <trkpt lat="41.544125000" lon="1.899219000">
        <ele>125.59</ele>
        <time>2014-03-23T13:10:06Z</time>
      </trkpt>
      <trkpt lat="41.544090000" lon="1.898946000">
        <ele>124.15</ele>
        <time>2014-03-23T13:10:09Z</time>
      </trkpt>
      <trkpt lat="41.544029000" lon="1.898452000">
        <ele>123.19</ele>
        <time>2014-03-23T13:10:14Z</time>
      </trkpt>
      <trkpt lat="41.544022000" lon="1.898234000">
        <ele>121.74</ele>
        <time>2014-03-23T13:10:16Z</time>
      </trkpt>
      <trkpt lat="41.543991000" lon="1.897480000">
        <ele>118.86</ele>
        <time>2014-03-23T13:10:23Z</time>
      </trkpt>
      <trkpt lat="41.543983000" lon="1.896978000">
        <ele>116.94</ele>
        <time>2014-03-23T13:10:28Z</time>
      </trkpt>
      <trkpt lat="41.544025000" lon="1.896592000">
        <ele>115.50</ele>
        <time>2014-03-23T13:10:32Z</time>
      </trkpt>
      <trkpt lat="41.544067000" lon="1.896415000">
        <ele>115.50</ele>
        <time>2014-03-23T13:10:34Z</time>
      </trkpt>
      <trkpt lat="41.544117000" lon="1.896249000">
        <ele>114.53</ele>
        <time>2014-03-23T13:10:36Z</time>
      </trkpt>
      <trkpt lat="41.544193000" lon="1.896112000">
        <ele>114.05</ele>
        <time>2014-03-23T13:10:38Z</time>
      </trkpt>
      <trkpt lat="41.544285000" lon="1.896001000">
        <ele>113.57</ele>
        <time>2014-03-23T13:10:40Z</time>
      </trkpt>
      <trkpt lat="41.544369000" lon="1.895618000">
        <ele>110.69</ele>
        <time>2014-03-23T13:10:47Z</time>
      </trkpt>
      <trkpt lat="41.544407000" lon="1.895423000">
        <ele>110.69</ele>
        <time>2014-03-23T13:10:51Z</time>
      </trkpt>
      <trkpt lat="41.544460000" lon="1.894809000">
        <ele>113.57</ele>
        <time>2014-03-23T13:11:03Z</time>
      </trkpt>
      <trkpt lat="41.544479000" lon="1.894681000">
        <ele>114.05</ele>
        <time>2014-03-23T13:11:05Z</time>
      </trkpt>
      <trkpt lat="41.544506000" lon="1.894601000">
        <ele>114.53</ele>
        <time>2014-03-23T13:11:07Z</time>
      </trkpt>
      <trkpt lat="41.544888000" lon="1.894106000">
        <ele>117.42</ele>
        <time>2014-03-23T13:11:19Z</time>
      </trkpt>
      <trkpt lat="41.544983000" lon="1.893945000">
        <ele>115.98</ele>
        <time>2014-03-23T13:11:24Z</time>
      </trkpt>
      <trkpt lat="41.544983000" lon="1.893749000">
        <ele>115.50</ele>
        <time>2014-03-23T13:11:29Z</time>
      </trkpt>
      <trkpt lat="41.544991000" lon="1.893562000">
        <ele>116.94</ele>
        <time>2014-03-23T13:11:32Z</time>
      </trkpt>
      <trkpt lat="41.544964000" lon="1.893201000">
        <ele>116.94</ele>
        <time>2014-03-23T13:11:38Z</time>
      </trkpt>
      <trkpt lat="41.544922000" lon="1.893121000">
        <ele>115.98</ele>
        <time>2014-03-23T13:11:43Z</time>
      </trkpt>
      <trkpt lat="41.544685000" lon="1.892989000">
        <ele>114.53</ele>
        <time>2014-03-23T13:11:54Z</time>
      </trkpt>
      <trkpt lat="41.544498000" lon="1.892633000">
        <ele>114.05</ele>
        <time>2014-03-23T13:12:02Z</time>
      </trkpt>
      <trkpt lat="41.544533000" lon="1.892392000">
        <ele>114.05</ele>
        <time>2014-03-23T13:12:10Z</time>
      </trkpt>
      <trkpt lat="41.544739000" lon="1.892032000">
        <ele>114.53</ele>
        <time>2014-03-23T13:12:17Z</time>
      </trkpt>
      <trkpt lat="41.544849000" lon="1.891823000">
        <ele>115.01</ele>
        <time>2014-03-23T13:12:21Z</time>
      </trkpt>
      <trkpt lat="41.544907000" lon="1.891732000">
        <ele>116.46</ele>
        <time>2014-03-23T13:12:23Z</time>
      </trkpt>
      <trkpt lat="41.545002000" lon="1.891619000">
        <ele>114.05</ele>
        <time>2014-03-23T13:12:26Z</time>
      </trkpt>
      <trkpt lat="41.545029000" lon="1.891575000">
        <ele>113.57</ele>
        <time>2014-03-23T13:12:27Z</time>
      </trkpt>
      <trkpt lat="41.545094000" lon="1.891378000">
        <ele>112.61</ele>
        <time>2014-03-23T13:12:31Z</time>
      </trkpt>
      <trkpt lat="41.545082000" lon="1.891255000">
        <ele>112.13</ele>
        <time>2014-03-23T13:12:34Z</time>
      </trkpt>
      <trkpt lat="41.545025000" lon="1.891214000">
        <ele>110.69</ele>
        <time>2014-03-23T13:12:37Z</time>
      </trkpt>
      <trkpt lat="41.544910000" lon="1.891117000">
        <ele>110.21</ele>
        <time>2014-03-23T13:12:40Z</time>
      </trkpt>
      <trkpt lat="41.544792000" lon="1.890938000">
        <ele>111.17</ele>
        <time>2014-03-23T13:12:43Z</time>
      </trkpt>
      <trkpt lat="41.544678000" lon="1.890784000">
        <ele>108.77</ele>
        <time>2014-03-23T13:12:46Z</time>
      </trkpt>
      <trkpt lat="41.544647000" lon="1.890738000">
        <ele>107.81</ele>
        <time>2014-03-23T13:12:47Z</time>
      </trkpt>
      <trkpt lat="41.544800000" lon="1.890698000">
        <ele>106.36</ele>
        <time>2014-03-23T13:12:54Z</time>
      </trkpt>
      <trkpt lat="41.544846000" lon="1.890769000">
        <ele>106.36</ele>
        <time>2014-03-23T13:12:56Z</time>
      </trkpt>
      <trkpt lat="41.544930000" lon="1.890888000">
        <ele>106.84</ele>
        <time>2014-03-23T13:13:06Z</time>
      </trkpt>
      <trkpt lat="41.544926000" lon="1.890891000">
        <ele>106.84</ele>
        <time>2014-03-23T13:13:30Z</time>
      </trkpt>
      <trkpt lat="41.544926000" lon="1.890891000">
        <ele>106.84</ele>
        <time>2014-03-23T13:13:36Z</time>
      </trkpt>
      <trkpt lat="41.544968000" lon="1.890844000">
        <ele>105.88</ele>
        <time>2014-03-23T13:13:40Z</time>
      </trkpt>
      <trkpt lat="41.545025000" lon="1.890755000">
        <ele>104.92</ele>
        <time>2014-03-23T13:13:43Z</time>
      </trkpt>
      <trkpt lat="41.545395000" lon="1.890720000">
        <ele>103.00</ele>
        <time>2014-03-23T13:14:01Z</time>
      </trkpt>
    </trkseg>
  </trk>
</gpx>
